<?xml version="1.0" encoding="UTF-8"?><gpx creator="Wikiloc - https://www.wikiloc.com" version="1.1" xmlns="http://www.topografix.com/GPX/1/1" xmlns:xsi="http://www.w3.org/2001/XMLSchema-instance" xsi:schemaLocation="http://www.topografix.com/GPX/1/1 http://www.topografix.com/GPX/1/1/gpx.xsd"><metadata><name>Wikiloc - Ruta per la Serra del Verd</name><author><name>Turisme Solsonès</name><link href="https://www.wikiloc.com/wikiloc/user.do?id=439236"><text>Turisme Solsonès on Wikiloc</text></link></author><link href="https://www.wikiloc.com/hiking-trails/ruta-per-la-serra-del-verd-2634494"><text>Ruta per la Serra del Verd on Wikiloc</text></link><time>2012-03-25T12:30:25Z</time></metadata><trk><name>Ruta per la Serra del Verd</name><cmt></cmt><desc></desc><trkseg><trkpt lat="42.178325" lon="1.590960"><ele>1017.467</ele><time>2012-05-13T09:53:18Z</time></trkpt><trkpt lat="42.178284" lon="1.591022"><ele>1016.681</ele><time>2012-05-13T09:53:58Z</time></trkpt><trkpt lat="42.178226" lon="1.591107"><ele>1016.219</ele><time>2012-05-13T09:54:38Z</time></trkpt><trkpt lat="42.178221" lon="1.591168"><ele>1016.807</ele><time>2012-05-13T09:55:18Z</time></trkpt><trkpt lat="42.178215" lon="1.591228"><ele>1017.338</ele><time>2012-05-13T09:55:58Z</time></trkpt><trkpt lat="42.178210" lon="1.591289"><ele>1018.022</ele><time>2012-05-13T09:56:38Z</time></trkpt><trkpt lat="42.178204" lon="1.591349"><ele>1018.679</ele><time>2012-05-13T09:57:18Z</time></trkpt><trkpt lat="42.178201" lon="1.591389"><ele>1019.060</ele><time>2012-05-13T09:57:58Z</time></trkpt><trkpt lat="42.178190" lon="1.591450"><ele>1021.750</ele><time>2012-05-13T09:58:38Z</time></trkpt><trkpt lat="42.178179" lon="1.591511"><ele>1024.475</ele><time>2012-05-13T09:59:18Z</time></trkpt><trkpt lat="42.178168" lon="1.591572"><ele>1027.320</ele><time>2012-05-13T09:59:58Z</time></trkpt><trkpt lat="42.178156" lon="1.591634"><ele>1030.383</ele><time>2012-05-13T10:00:38Z</time></trkpt><trkpt lat="42.178112" lon="1.591687"><ele>1033.725</ele><time>2012-05-13T10:01:18Z</time></trkpt><trkpt lat="42.178068" lon="1.591740"><ele>1036.917</ele><time>2012-05-13T10:01:58Z</time></trkpt><trkpt lat="42.178025" lon="1.591791"><ele>1039.607</ele><time>2012-05-13T10:02:38Z</time></trkpt><trkpt lat="42.177987" lon="1.591852"><ele>1042.790</ele><time>2012-05-13T10:03:18Z</time></trkpt><trkpt lat="42.177950" lon="1.591914"><ele>1045.844</ele><time>2012-05-13T10:03:58Z</time></trkpt><trkpt lat="42.177913" lon="1.591975"><ele>1049.521</ele><time>2012-05-13T10:04:38Z</time></trkpt><trkpt lat="42.177876" lon="1.592036"><ele>1053.632</ele><time>2012-05-13T10:05:18Z</time></trkpt><trkpt lat="42.177854" lon="1.592071"><ele>1055.862</ele><time>2012-05-13T10:05:58Z</time></trkpt><trkpt lat="42.177817" lon="1.592133"><ele>1059.767</ele><time>2012-05-13T10:06:38Z</time></trkpt><trkpt lat="42.177780" lon="1.592194"><ele>1063.412</ele><time>2012-05-13T10:07:18Z</time></trkpt><trkpt lat="42.177742" lon="1.592256"><ele>1066.691</ele><time>2012-05-13T10:07:58Z</time></trkpt><trkpt lat="42.177705" lon="1.592317"><ele>1070.081</ele><time>2012-05-13T10:08:38Z</time></trkpt><trkpt lat="42.177678" lon="1.592360"><ele>1072.319</ele><time>2012-05-13T10:09:18Z</time></trkpt><trkpt lat="42.177634" lon="1.592417"><ele>1075.007</ele><time>2012-05-13T10:09:58Z</time></trkpt><trkpt lat="42.177590" lon="1.592473"><ele>1077.661</ele><time>2012-05-13T10:10:38Z</time></trkpt><trkpt lat="42.177545" lon="1.592530"><ele>1079.515</ele><time>2012-05-13T10:11:18Z</time></trkpt><trkpt lat="42.177485" lon="1.592606"><ele>1080.882</ele><time>2012-05-13T10:11:58Z</time></trkpt><trkpt lat="42.177441" lon="1.592655"><ele>1080.833</ele><time>2012-05-13T10:12:38Z</time></trkpt><trkpt lat="42.177397" lon="1.592705"><ele>1080.933</ele><time>2012-05-13T10:13:18Z</time></trkpt><trkpt lat="42.177352" lon="1.592754"><ele>1081.068</ele><time>2012-05-13T10:13:58Z</time></trkpt><trkpt lat="42.177308" lon="1.592804"><ele>1080.963</ele><time>2012-05-13T10:14:38Z</time></trkpt><trkpt lat="42.177244" lon="1.592875"><ele>1080.226</ele><time>2012-05-13T10:15:18Z</time></trkpt><trkpt lat="42.177199" lon="1.592907"><ele>1079.247</ele><time>2012-05-13T10:15:58Z</time></trkpt><trkpt lat="42.177155" lon="1.592939"><ele>1078.311</ele><time>2012-05-13T10:16:38Z</time></trkpt><trkpt lat="42.177110" lon="1.592971"><ele>1077.407</ele><time>2012-05-13T10:17:18Z</time></trkpt><trkpt lat="42.177065" lon="1.593003"><ele>1076.534</ele><time>2012-05-13T10:17:58Z</time></trkpt><trkpt lat="42.177021" lon="1.593035"><ele>1075.638</ele><time>2012-05-13T10:18:38Z</time></trkpt><trkpt lat="42.176976" lon="1.593067"><ele>1074.665</ele><time>2012-05-13T10:19:18Z</time></trkpt><trkpt lat="42.176932" lon="1.593099"><ele>1073.676</ele><time>2012-05-13T10:19:58Z</time></trkpt><trkpt lat="42.176897" lon="1.593124"><ele>1073.146</ele><time>2012-05-13T10:20:38Z</time></trkpt><trkpt lat="42.176876" lon="1.593185"><ele>1073.771</ele><time>2012-05-13T10:21:18Z</time></trkpt><trkpt lat="42.176855" lon="1.593246"><ele>1074.396</ele><time>2012-05-13T10:21:58Z</time></trkpt><trkpt lat="42.176834" lon="1.593307"><ele>1074.922</ele><time>2012-05-13T10:22:38Z</time></trkpt><trkpt lat="42.176813" lon="1.593368"><ele>1075.562</ele><time>2012-05-13T10:23:18Z</time></trkpt><trkpt lat="42.176786" lon="1.593447"><ele>1076.308</ele><time>2012-05-13T10:23:58Z</time></trkpt><trkpt lat="42.176779" lon="1.593507"><ele>1077.307</ele><time>2012-05-13T10:24:38Z</time></trkpt><trkpt lat="42.176772" lon="1.593568"><ele>1078.364</ele><time>2012-05-13T10:25:18Z</time></trkpt><trkpt lat="42.176764" lon="1.593629"><ele>1079.498</ele><time>2012-05-13T10:25:58Z</time></trkpt><trkpt lat="42.176757" lon="1.593690"><ele>1080.835</ele><time>2012-05-13T10:26:38Z</time></trkpt><trkpt lat="42.176750" lon="1.593750"><ele>1082.226</ele><time>2012-05-13T10:27:18Z</time></trkpt><trkpt lat="42.176743" lon="1.593811"><ele>1083.756</ele><time>2012-05-13T10:27:58Z</time></trkpt><trkpt lat="42.176735" lon="1.593872"><ele>1085.051</ele><time>2012-05-13T10:28:38Z</time></trkpt><trkpt lat="42.176728" lon="1.593932"><ele>1086.766</ele><time>2012-05-13T10:29:18Z</time></trkpt><trkpt lat="42.176719" lon="1.594005"><ele>1088.942</ele><time>2012-05-13T10:29:58Z</time></trkpt><trkpt lat="42.176699" lon="1.594066"><ele>1090.122</ele><time>2012-05-13T10:30:38Z</time></trkpt><trkpt lat="42.176678" lon="1.594127"><ele>1091.214</ele><time>2012-05-13T10:31:18Z</time></trkpt><trkpt lat="42.176658" lon="1.594188"><ele>1092.307</ele><time>2012-05-13T10:31:58Z</time></trkpt><trkpt lat="42.176638" lon="1.594249"><ele>1093.476</ele><time>2012-05-13T10:32:38Z</time></trkpt><trkpt lat="42.176617" lon="1.594310"><ele>1094.520</ele><time>2012-05-13T10:33:18Z</time></trkpt><trkpt lat="42.176593" lon="1.594381"><ele>1095.747</ele><time>2012-05-13T10:33:58Z</time></trkpt><trkpt lat="42.176575" lon="1.594442"><ele>1097.098</ele><time>2012-05-13T10:34:38Z</time></trkpt><trkpt lat="42.176557" lon="1.594503"><ele>1097.878</ele><time>2012-05-13T10:35:18Z</time></trkpt><trkpt lat="42.176539" lon="1.594564"><ele>1098.733</ele><time>2012-05-13T10:35:58Z</time></trkpt><trkpt lat="42.176515" lon="1.594646"><ele>1100.138</ele><time>2012-05-13T10:36:38Z</time></trkpt><trkpt lat="42.176516" lon="1.594707"><ele>1102.075</ele><time>2012-05-13T10:37:18Z</time></trkpt><trkpt lat="42.176516" lon="1.594767"><ele>1104.328</ele><time>2012-05-13T10:37:58Z</time></trkpt><trkpt lat="42.176517" lon="1.594828"><ele>1106.820</ele><time>2012-05-13T10:38:38Z</time></trkpt><trkpt lat="42.176518" lon="1.594888"><ele>1109.207</ele><time>2012-05-13T10:39:18Z</time></trkpt><trkpt lat="42.176519" lon="1.594953"><ele>1111.929</ele><time>2012-05-13T10:39:58Z</time></trkpt><trkpt lat="42.176523" lon="1.595014"><ele>1114.413</ele><time>2012-05-13T10:40:38Z</time></trkpt><trkpt lat="42.176527" lon="1.595074"><ele>1116.950</ele><time>2012-05-13T10:41:18Z</time></trkpt><trkpt lat="42.176531" lon="1.595135"><ele>1119.411</ele><time>2012-05-13T10:41:58Z</time></trkpt><trkpt lat="42.176534" lon="1.595195"><ele>1121.931</ele><time>2012-05-13T10:42:38Z</time></trkpt><trkpt lat="42.176539" lon="1.595260"><ele>1124.656</ele><time>2012-05-13T10:43:18Z</time></trkpt><trkpt lat="42.176559" lon="1.595320"><ele>1127.651</ele><time>2012-05-13T10:43:58Z</time></trkpt><trkpt lat="42.176579" lon="1.595380"><ele>1130.613</ele><time>2012-05-13T10:44:38Z</time></trkpt><trkpt lat="42.176599" lon="1.595440"><ele>1133.643</ele><time>2012-05-13T10:45:18Z</time></trkpt><trkpt lat="42.176619" lon="1.595500"><ele>1136.607</ele><time>2012-05-13T10:45:58Z</time></trkpt><trkpt lat="42.176640" lon="1.595565"><ele>1139.707</ele><time>2012-05-13T10:46:38Z</time></trkpt><trkpt lat="42.176653" lon="1.595625"><ele>1142.743</ele><time>2012-05-13T10:47:18Z</time></trkpt><trkpt lat="42.176666" lon="1.595686"><ele>1145.657</ele><time>2012-05-13T10:47:58Z</time></trkpt><trkpt lat="42.176679" lon="1.595746"><ele>1148.454</ele><time>2012-05-13T10:48:38Z</time></trkpt><trkpt lat="42.176692" lon="1.595805"><ele>1151.295</ele><time>2012-05-13T10:49:18Z</time></trkpt><trkpt lat="42.176677" lon="1.595866"><ele>1153.325</ele><time>2012-05-13T10:49:58Z</time></trkpt><trkpt lat="42.176661" lon="1.595927"><ele>1155.220</ele><time>2012-05-13T10:50:38Z</time></trkpt><trkpt lat="42.176645" lon="1.595988"><ele>1156.925</ele><time>2012-05-13T10:51:18Z</time></trkpt><trkpt lat="42.176630" lon="1.596048"><ele>1158.624</ele><time>2012-05-13T10:51:58Z</time></trkpt><trkpt lat="42.176639" lon="1.596108"><ele>1161.004</ele><time>2012-05-13T10:52:38Z</time></trkpt><trkpt lat="42.176648" lon="1.596169"><ele>1161.314</ele><time>2012-05-13T10:53:18Z</time></trkpt><trkpt lat="42.176657" lon="1.596229"><ele>1161.407</ele><time>2012-05-13T10:53:58Z</time></trkpt><trkpt lat="42.176666" lon="1.596289"><ele>1161.344</ele><time>2012-05-13T10:54:38Z</time></trkpt><trkpt lat="42.176711" lon="1.596339"><ele>1161.488</ele><time>2012-05-13T10:55:18Z</time></trkpt><trkpt lat="42.176757" lon="1.596389"><ele>1161.655</ele><time>2012-05-13T10:55:58Z</time></trkpt><trkpt lat="42.176803" lon="1.596440"><ele>1161.376</ele><time>2012-05-13T10:56:38Z</time></trkpt><trkpt lat="42.176848" lon="1.596490"><ele>1161.096</ele><time>2012-05-13T10:57:18Z</time></trkpt><trkpt lat="42.176894" lon="1.596541"><ele>1160.551</ele><time>2012-05-13T10:57:58Z</time></trkpt><trkpt lat="42.176939" lon="1.596591"><ele>1160.116</ele><time>2012-05-13T10:58:38Z</time></trkpt><trkpt lat="42.176996" lon="1.596654"><ele>1160.733</ele><time>2012-05-13T10:59:18Z</time></trkpt><trkpt lat="42.177032" lon="1.596714"><ele>1160.023</ele><time>2012-05-13T10:59:58Z</time></trkpt><trkpt lat="42.177068" lon="1.596774"><ele>1159.015</ele><time>2012-05-13T11:00:38Z</time></trkpt><trkpt lat="42.177104" lon="1.596834"><ele>1157.707</ele><time>2012-05-13T11:01:18Z</time></trkpt><trkpt lat="42.177139" lon="1.596893"><ele>1156.465</ele><time>2012-05-13T11:01:58Z</time></trkpt><trkpt lat="42.177175" lon="1.596953"><ele>1154.889</ele><time>2012-05-13T11:02:38Z</time></trkpt><trkpt lat="42.177211" lon="1.597013"><ele>1153.126</ele><time>2012-05-13T11:03:18Z</time></trkpt><trkpt lat="42.177230" lon="1.597044"><ele>1152.317</ele><time>2012-05-13T11:03:58Z</time></trkpt><trkpt lat="42.177256" lon="1.597104"><ele>1150.887</ele><time>2012-05-13T11:04:38Z</time></trkpt><trkpt lat="42.177282" lon="1.597164"><ele>1149.292</ele><time>2012-05-13T11:05:18Z</time></trkpt><trkpt lat="42.177308" lon="1.597224"><ele>1147.487</ele><time>2012-05-13T11:05:58Z</time></trkpt><trkpt lat="42.177334" lon="1.597284"><ele>1145.944</ele><time>2012-05-13T11:06:38Z</time></trkpt><trkpt lat="42.177360" lon="1.597344"><ele>1144.405</ele><time>2012-05-13T11:07:18Z</time></trkpt><trkpt lat="42.177381" lon="1.597392"><ele>1143.115</ele><time>2012-05-13T11:07:58Z</time></trkpt><trkpt lat="42.177406" lon="1.597452"><ele>1141.507</ele><time>2012-05-13T11:08:38Z</time></trkpt><trkpt lat="42.177431" lon="1.597512"><ele>1140.076</ele><time>2012-05-13T11:09:18Z</time></trkpt><trkpt lat="42.177456" lon="1.597572"><ele>1139.690</ele><time>2012-05-13T11:09:58Z</time></trkpt><trkpt lat="42.177481" lon="1.597632"><ele>1139.587</ele><time>2012-05-13T11:10:38Z</time></trkpt><trkpt lat="42.177499" lon="1.597674"><ele>1139.558</ele><time>2012-05-13T11:11:18Z</time></trkpt><trkpt lat="42.177516" lon="1.597735"><ele>1139.598</ele><time>2012-05-13T11:11:58Z</time></trkpt><trkpt lat="42.177533" lon="1.597795"><ele>1139.773</ele><time>2012-05-13T11:12:38Z</time></trkpt><trkpt lat="42.177550" lon="1.597855"><ele>1140.468</ele><time>2012-05-13T11:13:18Z</time></trkpt><trkpt lat="42.177567" lon="1.597914"><ele>1141.087</ele><time>2012-05-13T11:13:58Z</time></trkpt><trkpt lat="42.177612" lon="1.597946"><ele>1142.842</ele><time>2012-05-13T11:14:38Z</time></trkpt><trkpt lat="42.177658" lon="1.597978"><ele>1144.526</ele><time>2012-05-13T11:15:18Z</time></trkpt><trkpt lat="42.177703" lon="1.598010"><ele>1145.907</ele><time>2012-05-13T11:15:58Z</time></trkpt><trkpt lat="42.177748" lon="1.598042"><ele>1147.120</ele><time>2012-05-13T11:16:38Z</time></trkpt><trkpt lat="42.177785" lon="1.598067"><ele>1147.814</ele><time>2012-05-13T11:17:18Z</time></trkpt><trkpt lat="42.177791" lon="1.598127"><ele>1146.271</ele><time>2012-05-13T11:17:58Z</time></trkpt><trkpt lat="42.177797" lon="1.598188"><ele>1144.472</ele><time>2012-05-13T11:18:38Z</time></trkpt><trkpt lat="42.177805" lon="1.598255"><ele>1142.412</ele><time>2012-05-13T11:19:18Z</time></trkpt><trkpt lat="42.177837" lon="1.598315"><ele>1140.667</ele><time>2012-05-13T11:19:58Z</time></trkpt><trkpt lat="42.177870" lon="1.598375"><ele>1139.092</ele><time>2012-05-13T11:20:38Z</time></trkpt><trkpt lat="42.177903" lon="1.598435"><ele>1137.572</ele><time>2012-05-13T11:21:18Z</time></trkpt><trkpt lat="42.177949" lon="1.598520"><ele>1135.113</ele><time>2012-05-13T11:21:58Z</time></trkpt><trkpt lat="42.177995" lon="1.598554"><ele>1134.014</ele><time>2012-05-13T11:22:38Z</time></trkpt><trkpt lat="42.178041" lon="1.598587"><ele>1132.807</ele><time>2012-05-13T11:23:18Z</time></trkpt><trkpt lat="42.178065" lon="1.598605"><ele>1132.339</ele><time>2012-05-13T11:23:58Z</time></trkpt><trkpt lat="42.178086" lon="1.598665"><ele>1131.463</ele><time>2012-05-13T11:24:38Z</time></trkpt><trkpt lat="42.178107" lon="1.598726"><ele>1130.460</ele><time>2012-05-13T11:25:18Z</time></trkpt><trkpt lat="42.178129" lon="1.598786"><ele>1129.451</ele><time>2012-05-13T11:25:58Z</time></trkpt><trkpt lat="42.178149" lon="1.598845"><ele>1128.351</ele><time>2012-05-13T11:26:38Z</time></trkpt><trkpt lat="42.178195" lon="1.598863"><ele>1128.636</ele><time>2012-05-13T11:27:18Z</time></trkpt><trkpt lat="42.178240" lon="1.598881"><ele>1128.871</ele><time>2012-05-13T11:27:58Z</time></trkpt><trkpt lat="42.178285" lon="1.598899"><ele>1129.234</ele><time>2012-05-13T11:28:38Z</time></trkpt><trkpt lat="42.178330" lon="1.598917"><ele>1129.655</ele><time>2012-05-13T11:29:18Z</time></trkpt><trkpt lat="42.178376" lon="1.598935"><ele>1130.510</ele><time>2012-05-13T11:29:58Z</time></trkpt><trkpt lat="42.178412" lon="1.598949"><ele>1131.107</ele><time>2012-05-13T11:30:38Z</time></trkpt><trkpt lat="42.178432" lon="1.599009"><ele>1130.695</ele><time>2012-05-13T11:31:18Z</time></trkpt><trkpt lat="42.178453" lon="1.599069"><ele>1130.089</ele><time>2012-05-13T11:31:58Z</time></trkpt><trkpt lat="42.178479" lon="1.599145"><ele>1129.066</ele><time>2012-05-13T11:32:38Z</time></trkpt><trkpt lat="42.178525" lon="1.599204"><ele>1128.387</ele><time>2012-05-13T11:33:18Z</time></trkpt><trkpt lat="42.178571" lon="1.599264"><ele>1127.397</ele><time>2012-05-13T11:33:58Z</time></trkpt><trkpt lat="42.178629" lon="1.599339"><ele>1125.912</ele><time>2012-05-13T11:34:38Z</time></trkpt><trkpt lat="42.178674" lon="1.599365"><ele>1125.947</ele><time>2012-05-13T11:35:18Z</time></trkpt><trkpt lat="42.178719" lon="1.599391"><ele>1125.996</ele><time>2012-05-13T11:35:58Z</time></trkpt><trkpt lat="42.178777" lon="1.599424"><ele>1125.931</ele><time>2012-05-13T11:36:38Z</time></trkpt><trkpt lat="42.178822" lon="1.599441"><ele>1126.124</ele><time>2012-05-13T11:37:18Z</time></trkpt><trkpt lat="42.178867" lon="1.599459"><ele>1126.207</ele><time>2012-05-13T11:37:58Z</time></trkpt><trkpt lat="42.178912" lon="1.599477"><ele>1125.731</ele><time>2012-05-13T11:38:38Z</time></trkpt><trkpt lat="42.178958" lon="1.599494"><ele>1124.885</ele><time>2012-05-13T11:39:18Z</time></trkpt><trkpt lat="42.178990" lon="1.599507"><ele>1124.182</ele><time>2012-05-13T11:39:58Z</time></trkpt><trkpt lat="42.179035" lon="1.599518"><ele>1123.483</ele><time>2012-05-13T11:40:38Z</time></trkpt><trkpt lat="42.179080" lon="1.599529"><ele>1122.853</ele><time>2012-05-13T11:41:18Z</time></trkpt><trkpt lat="42.179125" lon="1.599540"><ele>1122.288</ele><time>2012-05-13T11:41:58Z</time></trkpt><trkpt lat="42.179153" lon="1.599547"><ele>1121.813</ele><time>2012-05-13T11:42:38Z</time></trkpt><trkpt lat="42.179198" lon="1.599537"><ele>1122.259</ele><time>2012-05-13T11:43:18Z</time></trkpt><trkpt lat="42.179243" lon="1.599526"><ele>1122.903</ele><time>2012-05-13T11:43:58Z</time></trkpt><trkpt lat="42.179288" lon="1.599516"><ele>1123.623</ele><time>2012-05-13T11:44:38Z</time></trkpt><trkpt lat="42.179333" lon="1.599506"><ele>1124.207</ele><time>2012-05-13T11:45:18Z</time></trkpt><trkpt lat="42.179365" lon="1.599498"><ele>1124.757</ele><time>2012-05-13T11:45:58Z</time></trkpt><trkpt lat="42.179410" lon="1.599482"><ele>1125.581</ele><time>2012-05-13T11:46:38Z</time></trkpt><trkpt lat="42.179455" lon="1.599466"><ele>1126.658</ele><time>2012-05-13T11:47:18Z</time></trkpt><trkpt lat="42.179495" lon="1.599452"><ele>1128.459</ele><time>2012-05-13T11:47:58Z</time></trkpt><trkpt lat="42.179540" lon="1.599447"><ele>1130.059</ele><time>2012-05-13T11:48:38Z</time></trkpt><trkpt lat="42.179585" lon="1.599442"><ele>1131.634</ele><time>2012-05-13T11:49:18Z</time></trkpt><trkpt lat="42.179630" lon="1.599437"><ele>1133.179</ele><time>2012-05-13T11:49:58Z</time></trkpt><trkpt lat="42.179675" lon="1.599433"><ele>1134.611</ele><time>2012-05-13T11:50:38Z</time></trkpt><trkpt lat="42.179720" lon="1.599428"><ele>1136.121</ele><time>2012-05-13T11:51:18Z</time></trkpt><trkpt lat="42.179756" lon="1.599424"><ele>1136.003</ele><time>2012-05-13T11:51:58Z</time></trkpt><trkpt lat="42.179801" lon="1.599419"><ele>1135.807</ele><time>2012-05-13T11:52:38Z</time></trkpt><trkpt lat="42.179846" lon="1.599413"><ele>1135.573</ele><time>2012-05-13T11:53:18Z</time></trkpt><trkpt lat="42.179891" lon="1.599408"><ele>1135.367</ele><time>2012-05-13T11:53:58Z</time></trkpt><trkpt lat="42.179936" lon="1.599403"><ele>1135.194</ele><time>2012-05-13T11:54:38Z</time></trkpt><trkpt lat="42.179984" lon="1.599397"><ele>1135.015</ele><time>2012-05-13T11:55:18Z</time></trkpt><trkpt lat="42.180029" lon="1.599404"><ele>1134.465</ele><time>2012-05-13T11:55:58Z</time></trkpt><trkpt lat="42.180074" lon="1.599410"><ele>1133.790</ele><time>2012-05-13T11:56:38Z</time></trkpt><trkpt lat="42.180119" lon="1.599417"><ele>1132.955</ele><time>2012-05-13T11:57:18Z</time></trkpt><trkpt lat="42.180164" lon="1.599423"><ele>1132.252</ele><time>2012-05-13T11:57:58Z</time></trkpt><trkpt lat="42.180210" lon="1.599430"><ele>1131.453</ele><time>2012-05-13T11:58:38Z</time></trkpt><trkpt lat="42.180246" lon="1.599435"><ele>1130.708</ele><time>2012-05-13T11:59:18Z</time></trkpt><trkpt lat="42.180291" lon="1.599438"><ele>1130.507</ele><time>2012-05-13T11:59:58Z</time></trkpt><trkpt lat="42.180336" lon="1.599441"><ele>1131.647</ele><time>2012-05-13T12:00:38Z</time></trkpt><trkpt lat="42.180381" lon="1.599444"><ele>1132.681</ele><time>2012-05-13T12:01:18Z</time></trkpt><trkpt lat="42.180426" lon="1.599447"><ele>1133.718</ele><time>2012-05-13T12:01:58Z</time></trkpt><trkpt lat="42.180491" lon="1.599452"><ele>1135.339</ele><time>2012-05-13T12:02:38Z</time></trkpt><trkpt lat="42.180516" lon="1.599512"><ele>1135.119</ele><time>2012-05-13T12:03:18Z</time></trkpt><trkpt lat="42.180542" lon="1.599572"><ele>1135.274</ele><time>2012-05-13T12:03:58Z</time></trkpt><trkpt lat="42.180568" lon="1.599632"><ele>1135.559</ele><time>2012-05-13T12:04:38Z</time></trkpt><trkpt lat="42.180594" lon="1.599692"><ele>1135.756</ele><time>2012-05-13T12:05:18Z</time></trkpt><trkpt lat="42.180620" lon="1.599751"><ele>1135.859</ele><time>2012-05-13T12:05:58Z</time></trkpt><trkpt lat="42.180645" lon="1.599811"><ele>1135.814</ele><time>2012-05-13T12:06:38Z</time></trkpt><trkpt lat="42.180659" lon="1.599843"><ele>1135.907</ele><time>2012-05-13T12:07:18Z</time></trkpt><trkpt lat="42.180661" lon="1.599903"><ele>1135.027</ele><time>2012-05-13T12:07:58Z</time></trkpt><trkpt lat="42.180663" lon="1.599964"><ele>1134.231</ele><time>2012-05-13T12:08:38Z</time></trkpt><trkpt lat="42.180664" lon="1.600024"><ele>1133.548</ele><time>2012-05-13T12:09:18Z</time></trkpt><trkpt lat="42.180666" lon="1.600085"><ele>1133.399</ele><time>2012-05-13T12:09:58Z</time></trkpt><trkpt lat="42.180668" lon="1.600145"><ele>1133.029</ele><time>2012-05-13T12:10:38Z</time></trkpt><trkpt lat="42.180670" lon="1.600206"><ele>1132.884</ele><time>2012-05-13T12:11:18Z</time></trkpt><trkpt lat="42.180672" lon="1.600266"><ele>1132.569</ele><time>2012-05-13T12:11:58Z</time></trkpt><trkpt lat="42.180674" lon="1.600327"><ele>1132.754</ele><time>2012-05-13T12:12:38Z</time></trkpt><trkpt lat="42.180676" lon="1.600387"><ele>1132.956</ele><time>2012-05-13T12:13:18Z</time></trkpt><trkpt lat="42.180678" lon="1.600448"><ele>1133.111</ele><time>2012-05-13T12:13:58Z</time></trkpt><trkpt lat="42.180680" lon="1.600508"><ele>1133.407</ele><time>2012-05-13T12:14:38Z</time></trkpt><trkpt lat="42.180681" lon="1.600569"><ele>1133.367</ele><time>2012-05-13T12:15:18Z</time></trkpt><trkpt lat="42.180683" lon="1.600629"><ele>1132.681</ele><time>2012-05-13T12:15:58Z</time></trkpt><trkpt lat="42.180686" lon="1.600698"><ele>1131.958</ele><time>2012-05-13T12:16:38Z</time></trkpt><trkpt lat="42.180705" lon="1.600758"><ele>1131.959</ele><time>2012-05-13T12:17:18Z</time></trkpt><trkpt lat="42.180725" lon="1.600818"><ele>1132.189</ele><time>2012-05-13T12:17:58Z</time></trkpt><trkpt lat="42.180745" lon="1.600878"><ele>1132.164</ele><time>2012-05-13T12:18:38Z</time></trkpt><trkpt lat="42.180765" lon="1.600938"><ele>1132.169</ele><time>2012-05-13T12:19:18Z</time></trkpt><trkpt lat="42.180784" lon="1.600999"><ele>1132.335</ele><time>2012-05-13T12:19:58Z</time></trkpt><trkpt lat="42.180804" lon="1.601059"><ele>1132.786</ele><time>2012-05-13T12:20:38Z</time></trkpt><trkpt lat="42.180824" lon="1.601119"><ele>1133.214</ele><time>2012-05-13T12:21:18Z</time></trkpt><trkpt lat="42.180844" lon="1.601179"><ele>1133.607</ele><time>2012-05-13T12:21:58Z</time></trkpt><trkpt lat="42.180872" lon="1.601265"><ele>1133.855</ele><time>2012-05-13T12:22:38Z</time></trkpt><trkpt lat="42.180911" lon="1.601324"><ele>1135.199</ele><time>2012-05-13T12:23:18Z</time></trkpt><trkpt lat="42.180949" lon="1.601384"><ele>1136.346</ele><time>2012-05-13T12:23:58Z</time></trkpt><trkpt lat="42.180988" lon="1.601444"><ele>1137.867</ele><time>2012-05-13T12:24:38Z</time></trkpt><trkpt lat="42.181026" lon="1.601503"><ele>1139.357</ele><time>2012-05-13T12:25:18Z</time></trkpt><trkpt lat="42.181065" lon="1.601563"><ele>1140.792</ele><time>2012-05-13T12:25:58Z</time></trkpt><trkpt lat="42.181104" lon="1.601623"><ele>1142.147</ele><time>2012-05-13T12:26:38Z</time></trkpt><trkpt lat="42.181138" lon="1.601676"><ele>1143.279</ele><time>2012-05-13T12:27:18Z</time></trkpt><trkpt lat="42.181184" lon="1.601735"><ele>1144.905</ele><time>2012-05-13T12:27:58Z</time></trkpt><trkpt lat="42.181230" lon="1.601795"><ele>1146.425</ele><time>2012-05-13T12:28:38Z</time></trkpt><trkpt lat="42.181275" lon="1.601854"><ele>1147.907</ele><time>2012-05-13T12:29:18Z</time></trkpt><trkpt lat="42.181321" lon="1.601913"><ele>1149.479</ele><time>2012-05-13T12:29:58Z</time></trkpt><trkpt lat="42.181357" lon="1.601973"><ele>1150.643</ele><time>2012-05-13T12:30:38Z</time></trkpt><trkpt lat="42.181394" lon="1.602032"><ele>1152.260</ele><time>2012-05-13T12:31:18Z</time></trkpt><trkpt lat="42.181431" lon="1.602092"><ele>1153.981</ele><time>2012-05-13T12:31:58Z</time></trkpt><trkpt lat="42.181468" lon="1.602152"><ele>1155.541</ele><time>2012-05-13T12:32:38Z</time></trkpt><trkpt lat="42.181500" lon="1.602205"><ele>1156.816</ele><time>2012-05-13T12:33:18Z</time></trkpt><trkpt lat="42.181503" lon="1.602265"><ele>1156.881</ele><time>2012-05-13T12:33:58Z</time></trkpt><trkpt lat="42.181506" lon="1.602326"><ele>1156.747</ele><time>2012-05-13T12:34:38Z</time></trkpt><trkpt lat="42.181509" lon="1.602387"><ele>1156.629</ele><time>2012-05-13T12:35:18Z</time></trkpt><trkpt lat="42.181512" lon="1.602447"><ele>1156.521</ele><time>2012-05-13T12:35:58Z</time></trkpt><trkpt lat="42.181515" lon="1.602507"><ele>1156.507</ele><time>2012-05-13T12:36:38Z</time></trkpt><trkpt lat="42.181517" lon="1.602568"><ele>1156.766</ele><time>2012-05-13T12:37:18Z</time></trkpt><trkpt lat="42.181520" lon="1.602628"><ele>1156.910</ele><time>2012-05-13T12:37:58Z</time></trkpt><trkpt lat="42.181524" lon="1.602700"><ele>1157.287</ele><time>2012-05-13T12:38:38Z</time></trkpt><trkpt lat="42.181527" lon="1.602760"><ele>1157.428</ele><time>2012-05-13T12:39:18Z</time></trkpt><trkpt lat="42.181530" lon="1.602821"><ele>1157.668</ele><time>2012-05-13T12:39:58Z</time></trkpt><trkpt lat="42.181533" lon="1.602881"><ele>1157.753</ele><time>2012-05-13T12:40:38Z</time></trkpt><trkpt lat="42.181537" lon="1.602942"><ele>1157.928</ele><time>2012-05-13T12:41:18Z</time></trkpt><trkpt lat="42.181540" lon="1.603002"><ele>1158.058</ele><time>2012-05-13T12:41:58Z</time></trkpt><trkpt lat="42.181543" lon="1.603062"><ele>1158.152</ele><time>2012-05-13T12:42:38Z</time></trkpt><trkpt lat="42.181570" lon="1.603136"><ele>1158.717</ele><time>2012-05-13T12:43:18Z</time></trkpt><trkpt lat="42.181562" lon="1.603196"><ele>1158.007</ele><time>2012-05-13T12:43:58Z</time></trkpt><trkpt lat="42.181554" lon="1.603257"><ele>1157.417</ele><time>2012-05-13T12:44:38Z</time></trkpt><trkpt lat="42.181547" lon="1.603318"><ele>1156.861</ele><time>2012-05-13T12:45:18Z</time></trkpt><trkpt lat="42.181539" lon="1.603378"><ele>1157.198</ele><time>2012-05-13T12:45:58Z</time></trkpt><trkpt lat="42.181531" lon="1.603439"><ele>1157.879</ele><time>2012-05-13T12:46:38Z</time></trkpt><trkpt lat="42.181520" lon="1.603529"><ele>1159.169</ele><time>2012-05-13T12:47:18Z</time></trkpt><trkpt lat="42.181475" lon="1.603524"><ele>1158.654</ele><time>2012-05-13T12:47:58Z</time></trkpt><trkpt lat="42.181429" lon="1.603519"><ele>1158.149</ele><time>2012-05-13T12:48:38Z</time></trkpt><trkpt lat="42.181384" lon="1.603514"><ele>1157.589</ele><time>2012-05-13T12:49:18Z</time></trkpt><trkpt lat="42.181339" lon="1.603508"><ele>1157.006</ele><time>2012-05-13T12:49:58Z</time></trkpt><trkpt lat="42.181294" lon="1.603503"><ele>1156.626</ele><time>2012-05-13T12:50:38Z</time></trkpt><trkpt lat="42.181249" lon="1.603498"><ele>1156.107</ele><time>2012-05-13T12:51:18Z</time></trkpt><trkpt lat="42.181204" lon="1.603493"><ele>1155.690</ele><time>2012-05-13T12:51:58Z</time></trkpt><trkpt lat="42.181159" lon="1.603487"><ele>1155.174</ele><time>2012-05-13T12:52:38Z</time></trkpt><trkpt lat="42.181114" lon="1.603482"><ele>1154.551</ele><time>2012-05-13T12:53:18Z</time></trkpt><trkpt lat="42.181069" lon="1.603477"><ele>1154.762</ele><time>2012-05-13T12:53:58Z</time></trkpt><trkpt lat="42.181024" lon="1.603471"><ele>1154.992</ele><time>2012-05-13T12:54:38Z</time></trkpt><trkpt lat="42.180989" lon="1.603467"><ele>1155.187</ele><time>2012-05-13T12:55:18Z</time></trkpt><trkpt lat="42.180985" lon="1.603528"><ele>1157.442</ele><time>2012-05-13T12:55:58Z</time></trkpt><trkpt lat="42.180981" lon="1.603589"><ele>1159.711</ele><time>2012-05-13T12:56:38Z</time></trkpt><trkpt lat="42.180977" lon="1.603649"><ele>1161.921</ele><time>2012-05-13T12:57:18Z</time></trkpt><trkpt lat="42.180972" lon="1.603710"><ele>1164.203</ele><time>2012-05-13T12:57:58Z</time></trkpt><trkpt lat="42.180968" lon="1.603771"><ele>1166.507</ele><time>2012-05-13T12:58:38Z</time></trkpt><trkpt lat="42.180964" lon="1.603831"><ele>1168.813</ele><time>2012-05-13T12:59:18Z</time></trkpt><trkpt lat="42.180960" lon="1.603892"><ele>1171.137</ele><time>2012-05-13T12:59:58Z</time></trkpt><trkpt lat="42.180955" lon="1.603953"><ele>1173.354</ele><time>2012-05-13T13:00:38Z</time></trkpt><trkpt lat="42.180951" lon="1.604013"><ele>1175.445</ele><time>2012-05-13T13:01:18Z</time></trkpt><trkpt lat="42.180947" lon="1.604074"><ele>1177.575</ele><time>2012-05-13T13:01:58Z</time></trkpt><trkpt lat="42.180943" lon="1.604135"><ele>1179.780</ele><time>2012-05-13T13:02:38Z</time></trkpt><trkpt lat="42.180938" lon="1.604195"><ele>1181.895</ele><time>2012-05-13T13:03:18Z</time></trkpt><trkpt lat="42.180934" lon="1.604256"><ele>1183.953</ele><time>2012-05-13T13:03:58Z</time></trkpt><trkpt lat="42.180930" lon="1.604316"><ele>1186.104</ele><time>2012-05-13T13:04:38Z</time></trkpt><trkpt lat="42.180927" lon="1.604353"><ele>1187.414</ele><time>2012-05-13T13:05:18Z</time></trkpt><trkpt lat="42.180883" lon="1.604403"><ele>1188.907</ele><time>2012-05-13T13:05:58Z</time></trkpt><trkpt lat="42.180838" lon="1.604453"><ele>1190.367</ele><time>2012-05-13T13:06:38Z</time></trkpt><trkpt lat="42.180794" lon="1.604502"><ele>1191.841</ele><time>2012-05-13T13:07:18Z</time></trkpt><trkpt lat="42.180749" lon="1.604552"><ele>1193.188</ele><time>2012-05-13T13:07:58Z</time></trkpt><trkpt lat="42.180705" lon="1.604602"><ele>1194.579</ele><time>2012-05-13T13:08:38Z</time></trkpt><trkpt lat="42.180661" lon="1.604652"><ele>1195.889</ele><time>2012-05-13T13:09:18Z</time></trkpt><trkpt lat="42.180616" lon="1.604702"><ele>1197.014</ele><time>2012-05-13T13:09:58Z</time></trkpt><trkpt lat="42.180572" lon="1.604752"><ele>1198.319</ele><time>2012-05-13T13:10:38Z</time></trkpt><trkpt lat="42.180527" lon="1.604802"><ele>1199.469</ele><time>2012-05-13T13:11:18Z</time></trkpt><trkpt lat="42.180483" lon="1.604851"><ele>1200.304</ele><time>2012-05-13T13:11:58Z</time></trkpt><trkpt lat="42.180438" lon="1.604901"><ele>1201.324</ele><time>2012-05-13T13:12:38Z</time></trkpt><trkpt lat="42.180394" lon="1.604951"><ele>1202.307</ele><time>2012-05-13T13:13:18Z</time></trkpt><trkpt lat="42.180350" lon="1.605001"><ele>1203.338</ele><time>2012-05-13T13:13:58Z</time></trkpt><trkpt lat="42.180305" lon="1.605051"><ele>1204.422</ele><time>2012-05-13T13:14:38Z</time></trkpt><trkpt lat="42.180261" lon="1.605101"><ele>1205.279</ele><time>2012-05-13T13:15:18Z</time></trkpt><trkpt lat="42.180216" lon="1.605150"><ele>1205.830</ele><time>2012-05-13T13:15:58Z</time></trkpt><trkpt lat="42.180172" lon="1.605200"><ele>1206.520</ele><time>2012-05-13T13:16:38Z</time></trkpt><trkpt lat="42.180142" lon="1.605234"><ele>1207.025</ele><time>2012-05-13T13:17:18Z</time></trkpt><trkpt lat="42.180121" lon="1.605295"><ele>1208.680</ele><time>2012-05-13T13:17:58Z</time></trkpt><trkpt lat="42.180100" lon="1.605356"><ele>1209.996</ele><time>2012-05-13T13:18:38Z</time></trkpt><trkpt lat="42.180079" lon="1.605417"><ele>1211.131</ele><time>2012-05-13T13:19:18Z</time></trkpt><trkpt lat="42.180059" lon="1.605478"><ele>1212.124</ele><time>2012-05-13T13:19:58Z</time></trkpt><trkpt lat="42.180038" lon="1.605539"><ele>1213.107</ele><time>2012-05-13T13:20:38Z</time></trkpt><trkpt lat="42.180017" lon="1.605600"><ele>1213.471</ele><time>2012-05-13T13:21:18Z</time></trkpt><trkpt lat="42.179997" lon="1.605661"><ele>1213.415</ele><time>2012-05-13T13:21:58Z</time></trkpt><trkpt lat="42.179973" lon="1.605732"><ele>1213.232</ele><time>2012-05-13T13:22:38Z</time></trkpt><trkpt lat="42.179999" lon="1.605792"><ele>1215.423</ele><time>2012-05-13T13:23:18Z</time></trkpt><trkpt lat="42.180025" lon="1.605852"><ele>1217.923</ele><time>2012-05-13T13:23:58Z</time></trkpt><trkpt lat="42.180051" lon="1.605912"><ele>1221.038</ele><time>2012-05-13T13:24:38Z</time></trkpt><trkpt lat="42.180077" lon="1.605972"><ele>1224.023</ele><time>2012-05-13T13:25:18Z</time></trkpt><trkpt lat="42.180103" lon="1.606032"><ele>1227.099</ele><time>2012-05-13T13:25:58Z</time></trkpt><trkpt lat="42.180135" lon="1.606105"><ele>1230.607</ele><time>2012-05-13T13:26:38Z</time></trkpt><trkpt lat="42.180131" lon="1.606166"><ele>1232.227</ele><time>2012-05-13T13:27:18Z</time></trkpt><trkpt lat="42.180128" lon="1.606226"><ele>1233.807</ele><time>2012-05-13T13:27:58Z</time></trkpt><trkpt lat="42.180125" lon="1.606287"><ele>1235.411</ele><time>2012-05-13T13:28:38Z</time></trkpt><trkpt lat="42.180121" lon="1.606348"><ele>1236.935</ele><time>2012-05-13T13:29:18Z</time></trkpt><trkpt lat="42.180118" lon="1.606408"><ele>1238.742</ele><time>2012-05-13T13:29:58Z</time></trkpt><trkpt lat="42.180115" lon="1.606469"><ele>1240.823</ele><time>2012-05-13T13:30:38Z</time></trkpt><trkpt lat="42.180111" lon="1.606529"><ele>1242.863</ele><time>2012-05-13T13:31:18Z</time></trkpt><trkpt lat="42.180108" lon="1.606590"><ele>1245.058</ele><time>2012-05-13T13:31:58Z</time></trkpt><trkpt lat="42.180106" lon="1.606623"><ele>1246.163</ele><time>2012-05-13T13:32:38Z</time></trkpt><trkpt lat="42.180089" lon="1.606684"><ele>1247.439</ele><time>2012-05-13T13:33:18Z</time></trkpt><trkpt lat="42.180071" lon="1.606745"><ele>1248.401</ele><time>2012-05-13T13:33:58Z</time></trkpt><trkpt lat="42.180054" lon="1.606806"><ele>1249.521</ele><time>2012-05-13T13:34:38Z</time></trkpt><trkpt lat="42.180037" lon="1.606867"><ele>1250.607</ele><time>2012-05-13T13:35:18Z</time></trkpt><trkpt lat="42.180019" lon="1.606928"><ele>1251.655</ele><time>2012-05-13T13:35:58Z</time></trkpt><trkpt lat="42.180002" lon="1.606989"><ele>1253.469</ele><time>2012-05-13T13:36:38Z</time></trkpt><trkpt lat="42.179985" lon="1.607050"><ele>1255.676</ele><time>2012-05-13T13:37:18Z</time></trkpt><trkpt lat="42.179972" lon="1.607097"><ele>1257.247</ele><time>2012-05-13T13:37:58Z</time></trkpt><trkpt lat="42.179987" lon="1.607157"><ele>1261.047</ele><time>2012-05-13T13:38:38Z</time></trkpt><trkpt lat="42.180002" lon="1.607217"><ele>1264.872</ele><time>2012-05-13T13:39:18Z</time></trkpt><trkpt lat="42.180016" lon="1.607278"><ele>1267.687</ele><time>2012-05-13T13:39:58Z</time></trkpt><trkpt lat="42.180031" lon="1.607338"><ele>1270.269</ele><time>2012-05-13T13:40:38Z</time></trkpt><trkpt lat="42.180046" lon="1.607398"><ele>1273.004</ele><time>2012-05-13T13:41:18Z</time></trkpt><trkpt lat="42.180061" lon="1.607458"><ele>1275.724</ele><time>2012-05-13T13:41:58Z</time></trkpt><trkpt lat="42.180082" lon="1.607542"><ele>1278.607</ele><time>2012-05-13T13:42:38Z</time></trkpt><trkpt lat="42.180127" lon="1.607520"><ele>1280.648</ele><time>2012-05-13T13:43:18Z</time></trkpt><trkpt lat="42.180172" lon="1.607499"><ele>1282.652</ele><time>2012-05-13T13:43:58Z</time></trkpt><trkpt lat="42.180216" lon="1.607478"><ele>1284.199</ele><time>2012-05-13T13:44:38Z</time></trkpt><trkpt lat="42.180261" lon="1.607457"><ele>1285.680</ele><time>2012-05-13T13:45:18Z</time></trkpt><trkpt lat="42.180306" lon="1.607436"><ele>1286.940</ele><time>2012-05-13T13:45:58Z</time></trkpt><trkpt lat="42.180343" lon="1.607418"><ele>1287.825</ele><time>2012-05-13T13:46:38Z</time></trkpt><trkpt lat="42.180388" lon="1.607398"><ele>1289.070</ele><time>2012-05-13T13:47:18Z</time></trkpt><trkpt lat="42.180433" lon="1.607378"><ele>1290.298</ele><time>2012-05-13T13:47:58Z</time></trkpt><trkpt lat="42.180477" lon="1.607358"><ele>1291.515</ele><time>2012-05-13T13:48:38Z</time></trkpt><trkpt lat="42.180522" lon="1.607338"><ele>1292.926</ele><time>2012-05-13T13:49:18Z</time></trkpt><trkpt lat="42.180567" lon="1.607318"><ele>1294.507</ele><time>2012-05-13T13:49:58Z</time></trkpt><trkpt lat="42.180612" lon="1.607298"><ele>1297.051</ele><time>2012-05-13T13:50:38Z</time></trkpt><trkpt lat="42.180674" lon="1.607270"><ele>1300.535</ele><time>2012-05-13T13:51:18Z</time></trkpt><trkpt lat="42.180691" lon="1.607330"><ele>1303.442</ele><time>2012-05-13T13:51:58Z</time></trkpt><trkpt lat="42.180709" lon="1.607390"><ele>1306.343</ele><time>2012-05-13T13:52:38Z</time></trkpt><trkpt lat="42.180729" lon="1.607457"><ele>1309.693</ele><time>2012-05-13T13:53:18Z</time></trkpt><trkpt lat="42.180765" lon="1.607517"><ele>1313.668</ele><time>2012-05-13T13:53:58Z</time></trkpt><trkpt lat="42.180800" lon="1.607573"><ele>1317.123</ele><time>2012-05-13T13:54:38Z</time></trkpt><trkpt lat="42.180842" lon="1.607512"><ele>1318.971</ele><time>2012-05-13T13:55:18Z</time></trkpt><trkpt lat="42.180884" lon="1.607450"><ele>1320.141</ele><time>2012-05-13T13:55:58Z</time></trkpt><trkpt lat="42.180926" lon="1.607389"><ele>1320.615</ele><time>2012-05-13T13:56:38Z</time></trkpt><trkpt lat="42.180968" lon="1.607327"><ele>1320.507</ele><time>2012-05-13T13:57:18Z</time></trkpt><trkpt lat="42.181010" lon="1.607266"><ele>1319.839</ele><time>2012-05-13T13:57:58Z</time></trkpt><trkpt lat="42.181053" lon="1.607204"><ele>1318.983</ele><time>2012-05-13T13:58:38Z</time></trkpt><trkpt lat="42.181095" lon="1.607143"><ele>1318.540</ele><time>2012-05-13T13:59:18Z</time></trkpt><trkpt lat="42.181137" lon="1.607081"><ele>1317.211</ele><time>2012-05-13T13:59:58Z</time></trkpt><trkpt lat="42.181179" lon="1.607020"><ele>1315.221</ele><time>2012-05-13T14:00:38Z</time></trkpt><trkpt lat="42.181216" lon="1.606965"><ele>1313.236</ele><time>2012-05-13T14:01:18Z</time></trkpt><trkpt lat="42.181262" lon="1.607002"><ele>1315.191</ele><time>2012-05-13T14:01:58Z</time></trkpt><trkpt lat="42.181307" lon="1.607039"><ele>1317.117</ele><time>2012-05-13T14:02:38Z</time></trkpt><trkpt lat="42.181353" lon="1.607076"><ele>1319.387</ele><time>2012-05-13T14:03:18Z</time></trkpt><trkpt lat="42.181420" lon="1.607131"><ele>1322.215</ele><time>2012-05-13T14:03:58Z</time></trkpt><trkpt lat="42.181466" lon="1.607190"><ele>1324.307</ele><time>2012-05-13T14:04:38Z</time></trkpt><trkpt lat="42.181512" lon="1.607250"><ele>1326.143</ele><time>2012-05-13T14:05:18Z</time></trkpt><trkpt lat="42.181557" lon="1.607310"><ele>1328.047</ele><time>2012-05-13T14:05:58Z</time></trkpt><trkpt lat="42.181603" lon="1.607369"><ele>1329.734</ele><time>2012-05-13T14:06:38Z</time></trkpt><trkpt lat="42.181663" lon="1.607447"><ele>1331.835</ele><time>2012-05-13T14:07:18Z</time></trkpt><trkpt lat="42.181716" lon="1.607516"><ele>1333.895</ele><time>2012-05-13T14:07:58Z</time></trkpt><trkpt lat="42.181752" lon="1.607575"><ele>1336.640</ele><time>2012-05-13T14:08:38Z</time></trkpt><trkpt lat="42.181789" lon="1.607635"><ele>1340.295</ele><time>2012-05-13T14:09:18Z</time></trkpt><trkpt lat="42.181825" lon="1.607695"><ele>1344.632</ele><time>2012-05-13T14:09:58Z</time></trkpt><trkpt lat="42.181845" lon="1.607727"><ele>1347.392</ele><time>2012-05-13T14:10:38Z</time></trkpt><trkpt lat="42.181886" lon="1.607787"><ele>1352.711</ele><time>2012-05-13T14:11:18Z</time></trkpt><trkpt lat="42.181928" lon="1.607847"><ele>1355.807</ele><time>2012-05-13T14:11:58Z</time></trkpt><trkpt lat="42.181969" lon="1.607906"><ele>1356.915</ele><time>2012-05-13T14:12:38Z</time></trkpt><trkpt lat="42.182022" lon="1.607982"><ele>1357.299</ele><time>2012-05-13T14:13:18Z</time></trkpt><trkpt lat="42.182046" lon="1.608042"><ele>1358.076</ele><time>2012-05-13T14:13:58Z</time></trkpt><trkpt lat="42.182071" lon="1.608102"><ele>1359.717</ele><time>2012-05-13T14:14:38Z</time></trkpt><trkpt lat="42.182096" lon="1.608162"><ele>1361.467</ele><time>2012-05-13T14:15:18Z</time></trkpt><trkpt lat="42.182120" lon="1.608222"><ele>1363.052</ele><time>2012-05-13T14:15:58Z</time></trkpt><trkpt lat="42.182145" lon="1.608282"><ele>1364.337</ele><time>2012-05-13T14:16:38Z</time></trkpt><trkpt lat="42.182162" lon="1.608323"><ele>1365.043</ele><time>2012-05-13T14:17:18Z</time></trkpt><trkpt lat="42.182192" lon="1.608383"><ele>1366.264</ele><time>2012-05-13T14:17:58Z</time></trkpt><trkpt lat="42.182223" lon="1.608443"><ele>1367.510</ele><time>2012-05-13T14:18:38Z</time></trkpt><trkpt lat="42.182254" lon="1.608503"><ele>1369.007</ele><time>2012-05-13T14:19:18Z</time></trkpt><trkpt lat="42.182277" lon="1.608548"><ele>1370.276</ele><time>2012-05-13T14:19:58Z</time></trkpt><trkpt lat="42.182322" lon="1.608581"><ele>1369.820</ele><time>2012-05-13T14:20:38Z</time></trkpt><trkpt lat="42.182376" lon="1.608621"><ele>1369.577</ele><time>2012-05-13T14:21:18Z</time></trkpt><trkpt lat="42.182396" lon="1.608681"><ele>1372.458</ele><time>2012-05-13T14:21:58Z</time></trkpt><trkpt lat="42.182416" lon="1.608740"><ele>1375.048</ele><time>2012-05-13T14:22:38Z</time></trkpt><trkpt lat="42.182459" lon="1.608800"><ele>1375.913</ele><time>2012-05-13T14:23:18Z</time></trkpt><trkpt lat="42.182501" lon="1.608858"><ele>1376.328</ele><time>2012-05-13T14:23:58Z</time></trkpt><trkpt lat="42.182547" lon="1.608899"><ele>1378.195</ele><time>2012-05-13T14:24:38Z</time></trkpt><trkpt lat="42.182592" lon="1.608941"><ele>1380.149</ele><time>2012-05-13T14:25:18Z</time></trkpt><trkpt lat="42.182638" lon="1.608981"><ele>1381.823</ele><time>2012-05-13T14:25:58Z</time></trkpt><trkpt lat="42.182672" lon="1.609012"><ele>1383.107</ele><time>2012-05-13T14:26:38Z</time></trkpt><trkpt lat="42.182718" lon="1.609041"><ele>1384.121</ele><time>2012-05-13T14:27:18Z</time></trkpt><trkpt lat="42.182763" lon="1.609069"><ele>1385.085</ele><time>2012-05-13T14:27:58Z</time></trkpt><trkpt lat="42.182819" lon="1.609104"><ele>1386.832</ele><time>2012-05-13T14:28:38Z</time></trkpt><trkpt lat="42.182864" lon="1.609125"><ele>1388.363</ele><time>2012-05-13T14:29:18Z</time></trkpt><trkpt lat="42.182909" lon="1.609146"><ele>1389.863</ele><time>2012-05-13T14:29:58Z</time></trkpt><trkpt lat="42.182955" lon="1.609167"><ele>1391.348</ele><time>2012-05-13T14:30:38Z</time></trkpt><trkpt lat="42.183000" lon="1.609188"><ele>1392.883</ele><time>2012-05-13T14:31:18Z</time></trkpt><trkpt lat="42.183045" lon="1.609209"><ele>1394.199</ele><time>2012-05-13T14:31:58Z</time></trkpt><trkpt lat="42.183090" lon="1.609231"><ele>1397.807</ele><time>2012-05-13T14:32:38Z</time></trkpt><trkpt lat="42.183116" lon="1.609242"><ele>1400.227</ele><time>2012-05-13T14:33:18Z</time></trkpt><trkpt lat="42.183161" lon="1.609221"><ele>1402.607</ele><time>2012-05-13T14:33:58Z</time></trkpt><trkpt lat="42.183200" lon="1.609203"><ele>1404.651</ele><time>2012-05-13T14:34:38Z</time></trkpt><trkpt lat="42.183232" lon="1.609142"><ele>1403.745</ele><time>2012-05-13T14:35:18Z</time></trkpt><trkpt lat="42.183263" lon="1.609080"><ele>1401.772</ele><time>2012-05-13T14:35:58Z</time></trkpt><trkpt lat="42.183283" lon="1.609043"><ele>1400.523</ele><time>2012-05-13T14:36:38Z</time></trkpt><trkpt lat="42.183328" lon="1.609077"><ele>1406.263</ele><time>2012-05-13T14:37:18Z</time></trkpt><trkpt lat="42.183374" lon="1.609111"><ele>1409.728</ele><time>2012-05-13T14:37:58Z</time></trkpt><trkpt lat="42.183419" lon="1.609145"><ele>1412.853</ele><time>2012-05-13T14:38:38Z</time></trkpt><trkpt lat="42.183464" lon="1.609179"><ele>1415.443</ele><time>2012-05-13T14:39:18Z</time></trkpt><trkpt lat="42.183491" lon="1.609199"><ele>1416.764</ele><time>2012-05-13T14:39:58Z</time></trkpt><trkpt lat="42.183537" lon="1.609248"><ele>1419.410</ele><time>2012-05-13T14:40:38Z</time></trkpt><trkpt lat="42.183592" lon="1.609308"><ele>1422.807</ele><time>2012-05-13T14:41:18Z</time></trkpt><trkpt lat="42.183603" lon="1.609369"><ele>1425.666</ele><time>2012-05-13T14:41:58Z</time></trkpt><trkpt lat="42.183619" lon="1.609453"><ele>1429.490</ele><time>2012-05-13T14:42:38Z</time></trkpt><trkpt lat="42.183588" lon="1.609514"><ele>1430.967</ele><time>2012-05-13T14:43:18Z</time></trkpt><trkpt lat="42.183556" lon="1.609576"><ele>1432.418</ele><time>2012-05-13T14:43:58Z</time></trkpt><trkpt lat="42.183538" lon="1.609611"><ele>1433.238</ele><time>2012-05-13T14:44:38Z</time></trkpt><trkpt lat="42.183537" lon="1.609672"><ele>1435.153</ele><time>2012-05-13T14:45:18Z</time></trkpt><trkpt lat="42.183536" lon="1.609732"><ele>1437.098</ele><time>2012-05-13T14:45:58Z</time></trkpt><trkpt lat="42.183535" lon="1.609793"><ele>1438.949</ele><time>2012-05-13T14:46:38Z</time></trkpt><trkpt lat="42.183534" lon="1.609853"><ele>1440.902</ele><time>2012-05-13T14:47:18Z</time></trkpt><trkpt lat="42.183533" lon="1.609913"><ele>1442.922</ele><time>2012-05-13T14:47:58Z</time></trkpt><trkpt lat="42.183578" lon="1.609934"><ele>1443.907</ele><time>2012-05-13T14:48:38Z</time></trkpt><trkpt lat="42.183624" lon="1.609955"><ele>1444.646</ele><time>2012-05-13T14:49:18Z</time></trkpt><trkpt lat="42.183669" lon="1.609977"><ele>1444.870</ele><time>2012-05-13T14:49:58Z</time></trkpt><trkpt lat="42.183692" lon="1.609987"><ele>1444.857</ele><time>2012-05-13T14:50:38Z</time></trkpt><trkpt lat="42.183737" lon="1.610000"><ele>1444.698</ele><time>2012-05-13T14:51:18Z</time></trkpt><trkpt lat="42.183767" lon="1.610008"><ele>1444.328</ele><time>2012-05-13T14:51:58Z</time></trkpt><trkpt lat="42.183759" lon="1.610069"><ele>1444.543</ele><time>2012-05-13T14:52:38Z</time></trkpt><trkpt lat="42.183751" lon="1.610130"><ele>1444.728</ele><time>2012-05-13T14:53:18Z</time></trkpt><trkpt lat="42.183744" lon="1.610190"><ele>1445.024</ele><time>2012-05-13T14:53:58Z</time></trkpt><trkpt lat="42.183736" lon="1.610251"><ele>1445.404</ele><time>2012-05-13T14:54:38Z</time></trkpt><trkpt lat="42.183728" lon="1.610312"><ele>1445.714</ele><time>2012-05-13T14:55:18Z</time></trkpt><trkpt lat="42.183721" lon="1.610366"><ele>1445.807</ele><time>2012-05-13T14:55:58Z</time></trkpt><trkpt lat="42.183724" lon="1.610427"><ele>1445.584</ele><time>2012-05-13T14:56:38Z</time></trkpt><trkpt lat="42.183728" lon="1.610487"><ele>1445.288</ele><time>2012-05-13T14:57:18Z</time></trkpt><trkpt lat="42.183731" lon="1.610548"><ele>1444.825</ele><time>2012-05-13T14:57:58Z</time></trkpt><trkpt lat="42.183734" lon="1.610608"><ele>1444.716</ele><time>2012-05-13T14:58:38Z</time></trkpt><trkpt lat="42.183738" lon="1.610669"><ele>1444.566</ele><time>2012-05-13T14:59:18Z</time></trkpt><trkpt lat="42.183741" lon="1.610729"><ele>1444.491</ele><time>2012-05-13T14:59:58Z</time></trkpt><trkpt lat="42.183743" lon="1.610768"><ele>1444.386</ele><time>2012-05-13T15:00:38Z</time></trkpt><trkpt lat="42.183698" lon="1.610822"><ele>1446.226</ele><time>2012-05-13T15:01:18Z</time></trkpt><trkpt lat="42.183654" lon="1.610877"><ele>1447.647</ele><time>2012-05-13T15:01:58Z</time></trkpt><trkpt lat="42.183610" lon="1.610931"><ele>1448.611</ele><time>2012-05-13T15:02:38Z</time></trkpt><trkpt lat="42.183565" lon="1.610986"><ele>1448.807</ele><time>2012-05-13T15:03:18Z</time></trkpt><trkpt lat="42.183521" lon="1.611040"><ele>1448.824</ele><time>2012-05-13T15:03:58Z</time></trkpt><trkpt lat="42.183477" lon="1.611095"><ele>1448.758</ele><time>2012-05-13T15:04:38Z</time></trkpt><trkpt lat="42.183432" lon="1.611149"><ele>1448.915</ele><time>2012-05-13T15:05:18Z</time></trkpt><trkpt lat="42.183388" lon="1.611203"><ele>1449.396</ele><time>2012-05-13T15:05:58Z</time></trkpt><trkpt lat="42.183343" lon="1.611258"><ele>1449.826</ele><time>2012-05-13T15:06:38Z</time></trkpt><trkpt lat="42.183299" lon="1.611312"><ele>1450.561</ele><time>2012-05-13T15:07:18Z</time></trkpt><trkpt lat="42.183252" lon="1.611370"><ele>1451.286</ele><time>2012-05-13T15:07:58Z</time></trkpt><trkpt lat="42.183259" lon="1.611431"><ele>1451.039</ele><time>2012-05-13T15:08:38Z</time></trkpt><trkpt lat="42.183265" lon="1.611491"><ele>1451.101</ele><time>2012-05-13T15:09:18Z</time></trkpt><trkpt lat="42.183272" lon="1.611552"><ele>1451.121</ele><time>2012-05-13T15:09:58Z</time></trkpt><trkpt lat="42.183279" lon="1.611612"><ele>1451.207</ele><time>2012-05-13T15:10:38Z</time></trkpt><trkpt lat="42.183285" lon="1.611672"><ele>1451.325</ele><time>2012-05-13T15:11:18Z</time></trkpt><trkpt lat="42.183292" lon="1.611733"><ele>1452.319</ele><time>2012-05-13T15:11:58Z</time></trkpt><trkpt lat="42.183299" lon="1.611793"><ele>1453.376</ele><time>2012-05-13T15:12:38Z</time></trkpt><trkpt lat="42.183308" lon="1.611872"><ele>1454.527</ele><time>2012-05-13T15:13:18Z</time></trkpt><trkpt lat="42.183307" lon="1.611932"><ele>1455.617</ele><time>2012-05-13T15:13:58Z</time></trkpt><trkpt lat="42.183307" lon="1.611993"><ele>1456.082</ele><time>2012-05-13T15:14:38Z</time></trkpt><trkpt lat="42.183306" lon="1.612053"><ele>1456.387</ele><time>2012-05-13T15:15:18Z</time></trkpt><trkpt lat="42.183305" lon="1.612114"><ele>1456.618</ele><time>2012-05-13T15:15:58Z</time></trkpt><trkpt lat="42.183305" lon="1.612174"><ele>1456.898</ele><time>2012-05-13T15:16:38Z</time></trkpt><trkpt lat="42.183304" lon="1.612251"><ele>1457.317</ele><time>2012-05-13T15:17:18Z</time></trkpt><trkpt lat="42.183305" lon="1.612312"><ele>1457.907</ele><time>2012-05-13T15:17:58Z</time></trkpt><trkpt lat="42.183305" lon="1.612372"><ele>1458.563</ele><time>2012-05-13T15:18:38Z</time></trkpt><trkpt lat="42.183306" lon="1.612433"><ele>1459.167</ele><time>2012-05-13T15:19:18Z</time></trkpt><trkpt lat="42.183307" lon="1.612493"><ele>1459.774</ele><time>2012-05-13T15:19:58Z</time></trkpt><trkpt lat="42.183308" lon="1.612554"><ele>1460.575</ele><time>2012-05-13T15:20:38Z</time></trkpt><trkpt lat="42.183308" lon="1.612620"><ele>1461.575</ele><time>2012-05-13T15:21:18Z</time></trkpt><trkpt lat="42.183351" lon="1.612679"><ele>1461.230</ele><time>2012-05-13T15:21:58Z</time></trkpt><trkpt lat="42.183394" lon="1.612739"><ele>1461.175</ele><time>2012-05-13T15:22:38Z</time></trkpt><trkpt lat="42.183436" lon="1.612799"><ele>1461.318</ele><time>2012-05-13T15:23:18Z</time></trkpt><trkpt lat="42.183479" lon="1.612858"><ele>1461.698</ele><time>2012-05-13T15:23:58Z</time></trkpt><trkpt lat="42.183528" lon="1.612928"><ele>1461.817</ele><time>2012-05-13T15:24:38Z</time></trkpt><trkpt lat="42.183556" lon="1.612988"><ele>1462.307</ele><time>2012-05-13T15:25:18Z</time></trkpt><trkpt lat="42.183584" lon="1.613047"><ele>1462.683</ele><time>2012-05-13T15:25:58Z</time></trkpt><trkpt lat="42.183612" lon="1.613107"><ele>1463.147</ele><time>2012-05-13T15:26:38Z</time></trkpt><trkpt lat="42.183640" lon="1.613167"><ele>1464.364</ele><time>2012-05-13T15:27:18Z</time></trkpt><trkpt lat="42.183673" lon="1.613237"><ele>1465.875</ele><time>2012-05-13T15:27:58Z</time></trkpt><trkpt lat="42.183718" lon="1.613236"><ele>1465.625</ele><time>2012-05-13T15:28:38Z</time></trkpt><trkpt lat="42.183763" lon="1.613235"><ele>1465.570</ele><time>2012-05-13T15:29:18Z</time></trkpt><trkpt lat="42.183789" lon="1.613235"><ele>1465.435</ele><time>2012-05-13T15:29:58Z</time></trkpt><trkpt lat="42.183834" lon="1.613213"><ele>1464.721</ele><time>2012-05-13T15:30:38Z</time></trkpt><trkpt lat="42.183879" lon="1.613191"><ele>1463.941</ele><time>2012-05-13T15:31:18Z</time></trkpt><trkpt lat="42.183923" lon="1.613170"><ele>1464.205</ele><time>2012-05-13T15:31:58Z</time></trkpt><trkpt lat="42.183968" lon="1.613148"><ele>1464.707</ele><time>2012-05-13T15:32:38Z</time></trkpt><trkpt lat="42.184013" lon="1.613127"><ele>1465.124</ele><time>2012-05-13T15:33:18Z</time></trkpt><trkpt lat="42.184058" lon="1.613105"><ele>1465.498</ele><time>2012-05-13T15:33:58Z</time></trkpt><trkpt lat="42.184103" lon="1.613084"><ele>1465.755</ele><time>2012-05-13T15:34:38Z</time></trkpt><trkpt lat="42.184147" lon="1.613062"><ele>1465.836</ele><time>2012-05-13T15:35:18Z</time></trkpt><trkpt lat="42.184192" lon="1.613040"><ele>1466.186</ele><time>2012-05-13T15:35:58Z</time></trkpt><trkpt lat="42.184237" lon="1.613019"><ele>1466.471</ele><time>2012-05-13T15:36:38Z</time></trkpt><trkpt lat="42.184282" lon="1.612997"><ele>1466.796</ele><time>2012-05-13T15:37:18Z</time></trkpt><trkpt lat="42.184326" lon="1.612976"><ele>1467.015</ele><time>2012-05-13T15:37:58Z</time></trkpt><trkpt lat="42.184371" lon="1.612954"><ele>1467.265</ele><time>2012-05-13T15:38:38Z</time></trkpt><trkpt lat="42.184416" lon="1.612932"><ele>1467.411</ele><time>2012-05-13T15:39:18Z</time></trkpt><trkpt lat="42.184441" lon="1.612920"><ele>1467.607</ele><time>2012-05-13T15:39:58Z</time></trkpt><trkpt lat="42.184441" lon="1.612920"><ele>1467.613</ele><time>2012-05-13T15:40:38Z</time></trkpt><trkpt lat="42.184486" lon="1.612898"><ele>1467.567</ele><time>2012-05-13T15:41:18Z</time></trkpt><trkpt lat="42.184531" lon="1.612877"><ele>1467.534</ele><time>2012-05-13T15:41:58Z</time></trkpt><trkpt lat="42.184565" lon="1.612860"><ele>1467.435</ele><time>2012-05-13T15:42:38Z</time></trkpt><trkpt lat="42.184610" lon="1.612864"><ele>1468.435</ele><time>2012-05-13T15:43:18Z</time></trkpt><trkpt lat="42.184656" lon="1.612868"><ele>1469.420</ele><time>2012-05-13T15:43:58Z</time></trkpt><trkpt lat="42.184700" lon="1.612872"><ele>1470.365</ele><time>2012-05-13T15:44:38Z</time></trkpt><trkpt lat="42.184746" lon="1.612875"><ele>1471.067</ele><time>2012-05-13T15:45:18Z</time></trkpt><trkpt lat="42.184791" lon="1.612879"><ele>1471.581</ele><time>2012-05-13T15:45:58Z</time></trkpt><trkpt lat="42.184836" lon="1.612883"><ele>1472.019</ele><time>2012-05-13T15:46:38Z</time></trkpt><trkpt lat="42.184881" lon="1.612887"><ele>1472.507</ele><time>2012-05-13T15:47:18Z</time></trkpt><trkpt lat="42.184926" lon="1.612891"><ele>1473.018</ele><time>2012-05-13T15:47:58Z</time></trkpt><trkpt lat="42.184971" lon="1.612894"><ele>1473.422</ele><time>2012-05-13T15:48:38Z</time></trkpt><trkpt lat="42.185016" lon="1.612898"><ele>1473.669</ele><time>2012-05-13T15:49:18Z</time></trkpt><trkpt lat="42.185061" lon="1.612902"><ele>1473.480</ele><time>2012-05-13T15:49:58Z</time></trkpt><trkpt lat="42.185106" lon="1.612906"><ele>1473.130</ele><time>2012-05-13T15:50:38Z</time></trkpt><trkpt lat="42.185151" lon="1.612909"><ele>1472.865</ele><time>2012-05-13T15:51:18Z</time></trkpt><trkpt lat="42.185196" lon="1.612913"><ele>1472.670</ele><time>2012-05-13T15:51:58Z</time></trkpt><trkpt lat="42.185241" lon="1.612917"><ele>1472.386</ele><time>2012-05-13T15:52:38Z</time></trkpt><trkpt lat="42.185305" lon="1.612922"><ele>1472.060</ele><time>2012-05-13T15:53:18Z</time></trkpt><trkpt lat="42.185350" lon="1.612930"><ele>1471.926</ele><time>2012-05-13T15:53:58Z</time></trkpt><trkpt lat="42.185395" lon="1.612938"><ele>1471.807</ele><time>2012-05-13T15:54:38Z</time></trkpt><trkpt lat="42.185441" lon="1.612946"><ele>1471.790</ele><time>2012-05-13T15:55:18Z</time></trkpt><trkpt lat="42.185486" lon="1.612954"><ele>1471.624</ele><time>2012-05-13T15:55:58Z</time></trkpt><trkpt lat="42.185531" lon="1.612962"><ele>1471.571</ele><time>2012-05-13T15:56:38Z</time></trkpt><trkpt lat="42.185576" lon="1.612970"><ele>1471.852</ele><time>2012-05-13T15:57:18Z</time></trkpt><trkpt lat="42.185621" lon="1.612978"><ele>1472.452</ele><time>2012-05-13T15:57:58Z</time></trkpt><trkpt lat="42.185666" lon="1.612986"><ele>1472.997</ele><time>2012-05-13T15:58:38Z</time></trkpt><trkpt lat="42.185711" lon="1.612994"><ele>1473.582</ele><time>2012-05-13T15:59:18Z</time></trkpt><trkpt lat="42.185756" lon="1.613002"><ele>1474.043</ele><time>2012-05-13T15:59:58Z</time></trkpt><trkpt lat="42.185801" lon="1.613010"><ele>1474.564</ele><time>2012-05-13T16:00:38Z</time></trkpt><trkpt lat="42.185847" lon="1.613018"><ele>1475.210</ele><time>2012-05-13T16:01:18Z</time></trkpt><trkpt lat="42.185892" lon="1.613026"><ele>1476.407</ele><time>2012-05-13T16:01:58Z</time></trkpt><trkpt lat="42.185937" lon="1.613034"><ele>1477.666</ele><time>2012-05-13T16:02:38Z</time></trkpt><trkpt lat="42.185982" lon="1.613042"><ele>1478.860</ele><time>2012-05-13T16:03:18Z</time></trkpt><trkpt lat="42.186038" lon="1.613052"><ele>1480.337</ele><time>2012-05-13T16:03:58Z</time></trkpt><trkpt lat="42.186082" lon="1.613051"><ele>1481.238</ele><time>2012-05-13T16:04:38Z</time></trkpt><trkpt lat="42.186128" lon="1.613051"><ele>1482.048</ele><time>2012-05-13T16:05:18Z</time></trkpt><trkpt lat="42.186173" lon="1.613051"><ele>1482.553</ele><time>2012-05-13T16:05:58Z</time></trkpt><trkpt lat="42.186218" lon="1.613051"><ele>1483.068</ele><time>2012-05-13T16:06:38Z</time></trkpt><trkpt lat="42.186263" lon="1.613051"><ele>1483.533</ele><time>2012-05-13T16:07:18Z</time></trkpt><trkpt lat="42.186308" lon="1.613051"><ele>1484.023</ele><time>2012-05-13T16:07:58Z</time></trkpt><trkpt lat="42.186353" lon="1.613050"><ele>1484.415</ele><time>2012-05-13T16:08:38Z</time></trkpt><trkpt lat="42.186398" lon="1.613050"><ele>1484.907</ele><time>2012-05-13T16:09:18Z</time></trkpt><trkpt lat="42.186443" lon="1.613050"><ele>1485.015</ele><time>2012-05-13T16:09:58Z</time></trkpt><trkpt lat="42.186488" lon="1.613050"><ele>1485.219</ele><time>2012-05-13T16:10:38Z</time></trkpt><trkpt lat="42.186533" lon="1.613050"><ele>1485.376</ele><time>2012-05-13T16:11:18Z</time></trkpt><trkpt lat="42.186578" lon="1.613050"><ele>1485.597</ele><time>2012-05-13T16:11:58Z</time></trkpt><trkpt lat="42.186635" lon="1.613049"><ele>1485.687</ele><time>2012-05-13T16:12:38Z</time></trkpt><trkpt lat="42.186681" lon="1.613099"><ele>1487.982</ele><time>2012-05-13T16:13:18Z</time></trkpt><trkpt lat="42.186727" lon="1.613149"><ele>1489.897</ele><time>2012-05-13T16:13:58Z</time></trkpt><trkpt lat="42.186772" lon="1.613199"><ele>1491.677</ele><time>2012-05-13T16:14:38Z</time></trkpt><trkpt lat="42.186818" lon="1.613249"><ele>1493.261</ele><time>2012-05-13T16:15:18Z</time></trkpt><trkpt lat="42.186864" lon="1.613299"><ele>1494.627</ele><time>2012-05-13T16:15:58Z</time></trkpt><trkpt lat="42.186909" lon="1.613349"><ele>1495.907</ele><time>2012-05-13T16:16:38Z</time></trkpt><trkpt lat="42.186926" lon="1.613381"><ele>1496.699</ele><time>2012-05-13T16:17:18Z</time></trkpt><trkpt lat="42.186951" lon="1.613447"><ele>1498.383</ele><time>2012-05-13T16:17:58Z</time></trkpt><trkpt lat="42.186975" lon="1.613507"><ele>1499.940</ele><time>2012-05-13T16:18:38Z</time></trkpt><trkpt lat="42.186998" lon="1.613567"><ele>1501.681</ele><time>2012-05-13T16:19:18Z</time></trkpt><trkpt lat="42.187059" lon="1.613647"><ele>1503.691</ele><time>2012-05-13T16:19:58Z</time></trkpt><trkpt lat="42.187105" lon="1.613706"><ele>1505.036</ele><time>2012-05-13T16:20:38Z</time></trkpt><trkpt lat="42.187151" lon="1.613766"><ele>1506.371</ele><time>2012-05-13T16:21:18Z</time></trkpt><trkpt lat="42.187196" lon="1.613825"><ele>1507.689</ele><time>2012-05-13T16:21:58Z</time></trkpt><trkpt lat="42.187256" lon="1.613784"><ele>1507.606</ele><time>2012-05-13T16:22:38Z</time></trkpt><trkpt lat="42.187301" lon="1.613752"><ele>1508.426</ele><time>2012-05-13T16:23:18Z</time></trkpt><trkpt lat="42.187346" lon="1.613721"><ele>1509.207</ele><time>2012-05-13T16:23:58Z</time></trkpt><trkpt lat="42.187390" lon="1.613690"><ele>1510.070</ele><time>2012-05-13T16:24:38Z</time></trkpt><trkpt lat="42.187444" lon="1.613663"><ele>1511.344</ele><time>2012-05-13T16:25:18Z</time></trkpt><trkpt lat="42.187489" lon="1.613641"><ele>1512.481</ele><time>2012-05-13T16:25:58Z</time></trkpt><trkpt lat="42.187534" lon="1.613619"><ele>1513.472</ele><time>2012-05-13T16:26:38Z</time></trkpt><trkpt lat="42.187578" lon="1.613597"><ele>1514.592</ele><time>2012-05-13T16:27:18Z</time></trkpt><trkpt lat="42.187623" lon="1.613575"><ele>1515.567</ele><time>2012-05-13T16:27:58Z</time></trkpt><trkpt lat="42.187668" lon="1.613552"><ele>1516.642</ele><time>2012-05-13T16:28:38Z</time></trkpt><trkpt lat="42.187718" lon="1.613530"><ele>1517.883</ele><time>2012-05-13T16:29:18Z</time></trkpt><trkpt lat="42.187763" lon="1.613511"><ele>1518.925</ele><time>2012-05-13T16:29:58Z</time></trkpt><trkpt lat="42.187808" lon="1.613492"><ele>1519.917</ele><time>2012-05-13T16:30:38Z</time></trkpt><trkpt lat="42.187853" lon="1.613472"><ele>1520.807</ele><time>2012-05-13T16:31:18Z</time></trkpt><trkpt lat="42.187898" lon="1.613453"><ele>1521.710</ele><time>2012-05-13T16:31:58Z</time></trkpt><trkpt lat="42.187942" lon="1.613433"><ele>1522.684</ele><time>2012-05-13T16:32:38Z</time></trkpt><trkpt lat="42.187987" lon="1.613414"><ele>1523.611</ele><time>2012-05-13T16:33:18Z</time></trkpt><trkpt lat="42.188013" lon="1.613415"><ele>1524.412</ele><time>2012-05-13T16:33:58Z</time></trkpt><trkpt lat="42.188059" lon="1.613418"><ele>1525.992</ele><time>2012-05-13T16:34:38Z</time></trkpt><trkpt lat="42.188103" lon="1.613420"><ele>1527.137</ele><time>2012-05-13T16:35:18Z</time></trkpt><trkpt lat="42.188149" lon="1.613422"><ele>1528.332</ele><time>2012-05-13T16:35:58Z</time></trkpt><trkpt lat="42.188194" lon="1.613425"><ele>1529.585</ele><time>2012-05-13T16:36:38Z</time></trkpt><trkpt lat="42.188239" lon="1.613427"><ele>1530.689</ele><time>2012-05-13T16:37:18Z</time></trkpt><trkpt lat="42.188268" lon="1.613419"><ele>1531.217</ele><time>2012-05-13T16:37:58Z</time></trkpt><trkpt lat="42.188313" lon="1.613406"><ele>1532.107</ele><time>2012-05-13T16:38:38Z</time></trkpt><trkpt lat="42.188358" lon="1.613392"><ele>1532.850</ele><time>2012-05-13T16:39:18Z</time></trkpt><trkpt lat="42.188403" lon="1.613379"><ele>1533.474</ele><time>2012-05-13T16:39:58Z</time></trkpt><trkpt lat="42.188447" lon="1.613366"><ele>1534.131</ele><time>2012-05-13T16:40:38Z</time></trkpt><trkpt lat="42.188477" lon="1.613381"><ele>1535.062</ele><time>2012-05-13T16:41:18Z</time></trkpt><trkpt lat="42.188522" lon="1.613405"><ele>1536.362</ele><time>2012-05-13T16:41:58Z</time></trkpt><trkpt lat="42.188568" lon="1.613428"><ele>1537.537</ele><time>2012-05-13T16:42:38Z</time></trkpt><trkpt lat="42.188613" lon="1.613451"><ele>1538.792</ele><time>2012-05-13T16:43:18Z</time></trkpt><trkpt lat="42.188658" lon="1.613474"><ele>1540.193</ele><time>2012-05-13T16:43:58Z</time></trkpt><trkpt lat="42.188688" lon="1.613482"><ele>1540.965</ele><time>2012-05-13T16:44:38Z</time></trkpt><trkpt lat="42.188733" lon="1.613493"><ele>1542.121</ele><time>2012-05-13T16:45:18Z</time></trkpt><trkpt lat="42.188778" lon="1.613504"><ele>1543.207</ele><time>2012-05-13T16:45:58Z</time></trkpt><trkpt lat="42.188823" lon="1.613515"><ele>1544.241</ele><time>2012-05-13T16:46:38Z</time></trkpt><trkpt lat="42.188868" lon="1.613526"><ele>1545.275</ele><time>2012-05-13T16:47:18Z</time></trkpt><trkpt lat="42.188900" lon="1.613500"><ele>1545.972</ele><time>2012-05-13T16:47:58Z</time></trkpt><trkpt lat="42.188945" lon="1.613464"><ele>1546.983</ele><time>2012-05-13T16:48:38Z</time></trkpt><trkpt lat="42.188989" lon="1.613427"><ele>1547.743</ele><time>2012-05-13T16:49:18Z</time></trkpt><trkpt lat="42.189034" lon="1.613391"><ele>1548.668</ele><time>2012-05-13T16:49:58Z</time></trkpt><trkpt lat="42.189035" lon="1.613462"><ele>1549.163</ele><time>2012-05-13T16:50:38Z</time></trkpt><trkpt lat="42.189036" lon="1.613522"><ele>1549.626</ele><time>2012-05-13T16:51:18Z</time></trkpt><trkpt lat="42.189018" lon="1.613562"><ele>1549.447</ele><time>2012-05-13T16:51:58Z</time></trkpt><trkpt lat="42.188992" lon="1.613623"><ele>1549.211</ele><time>2012-05-13T16:52:38Z</time></trkpt><trkpt lat="42.188966" lon="1.613684"><ele>1549.807</ele><time>2012-05-13T16:53:18Z</time></trkpt><trkpt lat="42.188940" lon="1.613746"><ele>1550.594</ele><time>2012-05-13T16:53:58Z</time></trkpt><trkpt lat="42.188913" lon="1.613807"><ele>1551.438</ele><time>2012-05-13T16:54:38Z</time></trkpt><trkpt lat="42.188906" lon="1.613855"><ele>1552.435</ele><time>2012-05-13T16:55:18Z</time></trkpt><trkpt lat="42.188897" lon="1.613916"><ele>1553.766</ele><time>2012-05-13T16:55:58Z</time></trkpt><trkpt lat="42.188888" lon="1.613976"><ele>1554.976</ele><time>2012-05-13T16:56:38Z</time></trkpt><trkpt lat="42.188845" lon="1.614040"><ele>1555.631</ele><time>2012-05-13T16:57:18Z</time></trkpt><trkpt lat="42.188805" lon="1.614101"><ele>1556.486</ele><time>2012-05-13T16:57:58Z</time></trkpt><trkpt lat="42.188764" lon="1.614162"><ele>1557.187</ele><time>2012-05-13T16:58:38Z</time></trkpt><trkpt lat="42.188723" lon="1.614224"><ele>1558.042</ele><time>2012-05-13T16:59:18Z</time></trkpt><trkpt lat="42.188719" lon="1.614311"><ele>1560.026</ele><time>2012-05-13T16:59:58Z</time></trkpt><trkpt lat="42.188716" lon="1.614372"><ele>1561.407</ele><time>2012-05-13T17:00:38Z</time></trkpt><trkpt lat="42.188713" lon="1.614432"><ele>1562.810</ele><time>2012-05-13T17:01:18Z</time></trkpt><trkpt lat="42.188710" lon="1.614493"><ele>1564.324</ele><time>2012-05-13T17:01:58Z</time></trkpt><trkpt lat="42.188706" lon="1.614554"><ele>1565.851</ele><time>2012-05-13T17:02:38Z</time></trkpt><trkpt lat="42.188703" lon="1.614614"><ele>1567.362</ele><time>2012-05-13T17:03:18Z</time></trkpt><trkpt lat="42.188700" lon="1.614675"><ele>1568.812</ele><time>2012-05-13T17:03:58Z</time></trkpt><trkpt lat="42.188707" lon="1.614714"><ele>1569.857</ele><time>2012-05-13T17:04:38Z</time></trkpt><trkpt lat="42.188717" lon="1.614774"><ele>1571.582</ele><time>2012-05-13T17:05:18Z</time></trkpt><trkpt lat="42.188726" lon="1.614835"><ele>1573.314</ele><time>2012-05-13T17:05:58Z</time></trkpt><trkpt lat="42.188736" lon="1.614895"><ele>1575.054</ele><time>2012-05-13T17:06:38Z</time></trkpt><trkpt lat="42.188746" lon="1.614956"><ele>1576.809</ele><time>2012-05-13T17:07:18Z</time></trkpt><trkpt lat="42.188772" lon="1.615017"><ele>1578.707</ele><time>2012-05-13T17:07:58Z</time></trkpt><trkpt lat="42.188797" lon="1.615077"><ele>1580.653</ele><time>2012-05-13T17:08:38Z</time></trkpt><trkpt lat="42.188822" lon="1.615137"><ele>1582.597</ele><time>2012-05-13T17:09:18Z</time></trkpt><trkpt lat="42.188847" lon="1.615197"><ele>1584.414</ele><time>2012-05-13T17:09:58Z</time></trkpt><trkpt lat="42.188857" lon="1.615236"><ele>1585.525</ele><time>2012-05-13T17:10:38Z</time></trkpt><trkpt lat="42.188873" lon="1.615297"><ele>1587.355</ele><time>2012-05-13T17:11:18Z</time></trkpt><trkpt lat="42.188888" lon="1.615357"><ele>1589.010</ele><time>2012-05-13T17:11:58Z</time></trkpt><trkpt lat="42.188904" lon="1.615417"><ele>1590.825</ele><time>2012-05-13T17:12:38Z</time></trkpt><trkpt lat="42.188920" lon="1.615477"><ele>1592.762</ele><time>2012-05-13T17:13:18Z</time></trkpt><trkpt lat="42.188926" lon="1.615544"><ele>1594.583</ele><time>2012-05-13T17:13:58Z</time></trkpt><trkpt lat="42.188931" lon="1.615604"><ele>1596.111</ele><time>2012-05-13T17:14:38Z</time></trkpt><trkpt lat="42.188936" lon="1.615665"><ele>1597.807</ele><time>2012-05-13T17:15:18Z</time></trkpt><trkpt lat="42.188901" lon="1.615708"><ele>1598.118</ele><time>2012-05-13T17:15:58Z</time></trkpt><trkpt lat="42.188857" lon="1.615763"><ele>1598.872</ele><time>2012-05-13T17:16:38Z</time></trkpt><trkpt lat="42.188812" lon="1.615818"><ele>1599.539</ele><time>2012-05-13T17:17:18Z</time></trkpt><trkpt lat="42.188805" lon="1.615838"><ele>1599.920</ele><time>2012-05-13T17:17:58Z</time></trkpt><trkpt lat="42.188850" lon="1.615841"><ele>1600.660</ele><time>2012-05-13T17:18:38Z</time></trkpt><trkpt lat="42.188850" lon="1.615841"><ele>1600.665</ele><time>2012-05-13T17:19:18Z</time></trkpt><trkpt lat="42.188917" lon="1.615845"><ele>1601.980</ele><time>2012-05-13T17:19:58Z</time></trkpt><trkpt lat="42.188937" lon="1.615911"><ele>1604.035</ele><time>2012-05-13T17:20:38Z</time></trkpt><trkpt lat="42.188955" lon="1.615971"><ele>1605.986</ele><time>2012-05-13T17:21:18Z</time></trkpt><trkpt lat="42.188973" lon="1.616032"><ele>1607.814</ele><time>2012-05-13T17:21:58Z</time></trkpt><trkpt lat="42.188981" lon="1.616119"><ele>1610.207</ele><time>2012-05-13T17:22:38Z</time></trkpt><trkpt lat="42.188986" lon="1.616179"><ele>1611.785</ele><time>2012-05-13T17:23:18Z</time></trkpt><trkpt lat="42.188990" lon="1.616240"><ele>1613.379</ele><time>2012-05-13T17:23:58Z</time></trkpt><trkpt lat="42.188995" lon="1.616300"><ele>1614.886</ele><time>2012-05-13T17:24:38Z</time></trkpt><trkpt lat="42.189000" lon="1.616361"><ele>1616.337</ele><time>2012-05-13T17:25:18Z</time></trkpt><trkpt lat="42.189005" lon="1.616421"><ele>1618.097</ele><time>2012-05-13T17:25:58Z</time></trkpt><trkpt lat="42.189004" lon="1.616463"><ele>1619.282</ele><time>2012-05-13T17:26:38Z</time></trkpt><trkpt lat="42.189002" lon="1.616523"><ele>1620.997</ele><time>2012-05-13T17:27:18Z</time></trkpt><trkpt lat="42.188999" lon="1.616584"><ele>1622.687</ele><time>2012-05-13T17:27:58Z</time></trkpt><trkpt lat="42.188997" lon="1.616644"><ele>1624.342</ele><time>2012-05-13T17:28:38Z</time></trkpt><trkpt lat="42.188995" lon="1.616705"><ele>1625.926</ele><time>2012-05-13T17:29:18Z</time></trkpt><trkpt lat="42.188992" lon="1.616766"><ele>1627.407</ele><time>2012-05-13T17:29:58Z</time></trkpt><trkpt lat="42.189008" lon="1.616846"><ele>1629.780</ele><time>2012-05-13T17:30:38Z</time></trkpt><trkpt lat="42.189020" lon="1.616907"><ele>1631.464</ele><time>2012-05-13T17:31:18Z</time></trkpt><trkpt lat="42.189032" lon="1.616967"><ele>1633.021</ele><time>2012-05-13T17:31:58Z</time></trkpt><trkpt lat="42.189045" lon="1.617002"><ele>1634.042</ele><time>2012-05-13T17:32:38Z</time></trkpt><trkpt lat="42.189067" lon="1.617062"><ele>1635.782</ele><time>2012-05-13T17:33:18Z</time></trkpt><trkpt lat="42.189089" lon="1.617122"><ele>1637.547</ele><time>2012-05-13T17:33:58Z</time></trkpt><trkpt lat="42.189097" lon="1.617156"><ele>1638.592</ele><time>2012-05-13T17:34:38Z</time></trkpt><trkpt lat="42.189111" lon="1.617216"><ele>1640.328</ele><time>2012-05-13T17:35:18Z</time></trkpt><trkpt lat="42.189125" lon="1.617276"><ele>1641.689</ele><time>2012-05-13T17:35:58Z</time></trkpt><trkpt lat="42.189139" lon="1.617336"><ele>1642.917</ele><time>2012-05-13T17:36:38Z</time></trkpt><trkpt lat="42.189138" lon="1.617370"><ele>1643.407</ele><time>2012-05-13T17:37:18Z</time></trkpt><trkpt lat="42.189137" lon="1.617430"><ele>1644.244</ele><time>2012-05-13T17:37:58Z</time></trkpt><trkpt lat="42.189136" lon="1.617491"><ele>1645.118</ele><time>2012-05-13T17:38:38Z</time></trkpt><trkpt lat="42.189134" lon="1.617552"><ele>1646.145</ele><time>2012-05-13T17:39:18Z</time></trkpt><trkpt lat="42.189133" lon="1.617612"><ele>1647.286</ele><time>2012-05-13T17:39:58Z</time></trkpt><trkpt lat="42.189131" lon="1.617673"><ele>1648.276</ele><time>2012-05-13T17:40:38Z</time></trkpt><trkpt lat="42.189130" lon="1.617733"><ele>1649.341</ele><time>2012-05-13T17:41:18Z</time></trkpt><trkpt lat="42.189129" lon="1.617794"><ele>1650.376</ele><time>2012-05-13T17:41:58Z</time></trkpt><trkpt lat="42.189127" lon="1.617854"><ele>1651.381</ele><time>2012-05-13T17:42:38Z</time></trkpt><trkpt lat="42.189126" lon="1.617915"><ele>1652.461</ele><time>2012-05-13T17:43:18Z</time></trkpt><trkpt lat="42.189123" lon="1.617959"><ele>1653.117</ele><time>2012-05-13T17:43:58Z</time></trkpt><trkpt lat="42.189119" lon="1.618019"><ele>1654.007</ele><time>2012-05-13T17:44:38Z</time></trkpt><trkpt lat="42.189115" lon="1.618080"><ele>1655.090</ele><time>2012-05-13T17:45:18Z</time></trkpt><trkpt lat="42.189111" lon="1.618140"><ele>1656.054</ele><time>2012-05-13T17:45:58Z</time></trkpt><trkpt lat="42.189107" lon="1.618201"><ele>1657.131</ele><time>2012-05-13T17:46:38Z</time></trkpt><trkpt lat="42.189103" lon="1.618262"><ele>1658.182</ele><time>2012-05-13T17:47:18Z</time></trkpt><trkpt lat="42.189099" lon="1.618322"><ele>1659.142</ele><time>2012-05-13T17:47:58Z</time></trkpt><trkpt lat="42.189095" lon="1.618383"><ele>1659.957</ele><time>2012-05-13T17:48:38Z</time></trkpt><trkpt lat="42.189091" lon="1.618444"><ele>1660.692</ele><time>2012-05-13T17:49:18Z</time></trkpt><trkpt lat="42.189095" lon="1.618485"><ele>1661.353</ele><time>2012-05-13T17:49:58Z</time></trkpt><trkpt lat="42.189102" lon="1.618545"><ele>1662.504</ele><time>2012-05-13T17:50:38Z</time></trkpt><trkpt lat="42.189108" lon="1.618606"><ele>1663.614</ele><time>2012-05-13T17:51:18Z</time></trkpt><trkpt lat="42.189114" lon="1.618666"><ele>1664.907</ele><time>2012-05-13T17:51:58Z</time></trkpt><trkpt lat="42.189120" lon="1.618727"><ele>1666.317</ele><time>2012-05-13T17:52:38Z</time></trkpt><trkpt lat="42.189126" lon="1.618787"><ele>1667.671</ele><time>2012-05-13T17:53:18Z</time></trkpt><trkpt lat="42.189141" lon="1.618838"><ele>1669.198</ele><time>2012-05-13T17:53:58Z</time></trkpt><trkpt lat="42.189159" lon="1.618899"><ele>1671.059</ele><time>2012-05-13T17:54:38Z</time></trkpt><trkpt lat="42.189176" lon="1.618959"><ele>1673.219</ele><time>2012-05-13T17:55:18Z</time></trkpt><trkpt lat="42.189194" lon="1.619019"><ele>1675.474</ele><time>2012-05-13T17:55:58Z</time></trkpt><trkpt lat="42.189212" lon="1.619079"><ele>1677.569</ele><time>2012-05-13T17:56:38Z</time></trkpt><trkpt lat="42.189277" lon="1.619156"><ele>1681.743</ele><time>2012-05-13T17:57:18Z</time></trkpt><trkpt lat="42.189324" lon="1.619148"><ele>1683.364</ele><time>2012-05-13T17:57:58Z</time></trkpt><trkpt lat="42.189369" lon="1.619140"><ele>1684.810</ele><time>2012-05-13T17:58:38Z</time></trkpt><trkpt lat="42.189435" lon="1.619119"><ele>1686.807</ele><time>2012-05-13T17:59:18Z</time></trkpt><trkpt lat="42.189480" lon="1.619105"><ele>1688.976</ele><time>2012-05-13T17:59:58Z</time></trkpt><trkpt lat="42.189525" lon="1.619090"><ele>1691.270</ele><time>2012-05-13T18:00:38Z</time></trkpt><trkpt lat="42.189570" lon="1.619076"><ele>1693.597</ele><time>2012-05-13T18:01:18Z</time></trkpt><trkpt lat="42.189634" lon="1.619082"><ele>1697.258</ele><time>2012-05-13T18:01:58Z</time></trkpt><trkpt lat="42.189679" lon="1.619086"><ele>1699.898</ele><time>2012-05-13T18:02:38Z</time></trkpt><trkpt lat="42.189724" lon="1.619091"><ele>1702.573</ele><time>2012-05-13T18:03:18Z</time></trkpt><trkpt lat="42.189692" lon="1.619177"><ele>1702.588</ele><time>2012-05-13T18:03:58Z</time></trkpt><trkpt lat="42.189670" lon="1.619238"><ele>1702.839</ele><time>2012-05-13T18:04:38Z</time></trkpt><trkpt lat="42.189648" lon="1.619299"><ele>1703.201</ele><time>2012-05-13T18:05:18Z</time></trkpt><trkpt lat="42.189632" lon="1.619335"><ele>1703.221</ele><time>2012-05-13T18:05:58Z</time></trkpt><trkpt lat="42.189605" lon="1.619396"><ele>1703.407</ele><time>2012-05-13T18:06:38Z</time></trkpt><trkpt lat="42.189589" lon="1.619436"><ele>1703.615</ele><time>2012-05-13T18:07:18Z</time></trkpt><trkpt lat="42.189565" lon="1.619498"><ele>1704.779</ele><time>2012-05-13T18:07:58Z</time></trkpt><trkpt lat="42.189542" lon="1.619559"><ele>1705.726</ele><time>2012-05-13T18:08:38Z</time></trkpt><trkpt lat="42.189511" lon="1.619632"><ele>1706.557</ele><time>2012-05-13T18:09:18Z</time></trkpt><trkpt lat="42.189485" lon="1.619693"><ele>1706.917</ele><time>2012-05-13T18:09:58Z</time></trkpt><trkpt lat="42.189475" lon="1.619746"><ele>1708.132</ele><time>2012-05-13T18:10:38Z</time></trkpt><trkpt lat="42.189464" lon="1.619807"><ele>1709.547</ele><time>2012-05-13T18:11:18Z</time></trkpt><trkpt lat="42.189453" lon="1.619868"><ele>1710.911</ele><time>2012-05-13T18:11:58Z</time></trkpt><trkpt lat="42.189435" lon="1.619913"><ele>1711.521</ele><time>2012-05-13T18:12:38Z</time></trkpt><trkpt lat="42.189410" lon="1.619975"><ele>1712.603</ele><time>2012-05-13T18:13:18Z</time></trkpt><trkpt lat="42.189415" lon="1.620008"><ele>1713.907</ele><time>2012-05-13T18:13:58Z</time></trkpt><trkpt lat="42.189425" lon="1.620069"><ele>1716.043</ele><time>2012-05-13T18:14:38Z</time></trkpt><trkpt lat="42.189434" lon="1.620129"><ele>1718.297</ele><time>2012-05-13T18:15:18Z</time></trkpt><trkpt lat="42.189443" lon="1.620190"><ele>1720.414</ele><time>2012-05-13T18:15:58Z</time></trkpt><trkpt lat="42.189466" lon="1.620279"><ele>1724.475</ele><time>2012-05-13T18:16:38Z</time></trkpt><trkpt lat="42.189482" lon="1.620339"><ele>1726.235</ele><time>2012-05-13T18:17:18Z</time></trkpt><trkpt lat="42.189497" lon="1.620400"><ele>1727.920</ele><time>2012-05-13T18:17:58Z</time></trkpt><trkpt lat="42.189529" lon="1.620486"><ele>1731.255</ele><time>2012-05-13T18:18:38Z</time></trkpt><trkpt lat="42.189583" lon="1.620476"><ele>1734.884</ele><time>2012-05-13T18:19:18Z</time></trkpt><trkpt lat="42.189641" lon="1.620447"><ele>1738.407</ele><time>2012-05-13T18:19:58Z</time></trkpt><trkpt lat="42.189681" lon="1.620396"><ele>1740.317</ele><time>2012-05-13T18:20:38Z</time></trkpt><trkpt lat="42.189725" lon="1.620340"><ele>1742.307</ele><time>2012-05-13T18:21:18Z</time></trkpt><trkpt lat="42.189759" lon="1.620342"><ele>1745.130</ele><time>2012-05-13T18:21:58Z</time></trkpt><trkpt lat="42.189805" lon="1.620345"><ele>1748.814</ele><time>2012-05-13T18:22:38Z</time></trkpt><trkpt lat="42.189850" lon="1.620348"><ele>1752.541</ele><time>2012-05-13T18:23:18Z</time></trkpt><trkpt lat="42.189895" lon="1.620351"><ele>1756.132</ele><time>2012-05-13T18:23:58Z</time></trkpt><trkpt lat="42.189940" lon="1.620354"><ele>1759.822</ele><time>2012-05-13T18:24:38Z</time></trkpt><trkpt lat="42.189985" lon="1.620357"><ele>1763.427</ele><time>2012-05-13T18:25:18Z</time></trkpt><trkpt lat="42.190023" lon="1.620383"><ele>1767.012</ele><time>2012-05-13T18:25:58Z</time></trkpt><trkpt lat="42.190032" lon="1.620447"><ele>1768.327</ele><time>2012-05-13T18:26:38Z</time></trkpt><trkpt lat="42.190041" lon="1.620507"><ele>1769.568</ele><time>2012-05-13T18:27:18Z</time></trkpt><trkpt lat="42.190060" lon="1.620556"><ele>1771.614</ele><time>2012-05-13T18:27:58Z</time></trkpt><trkpt lat="42.190083" lon="1.620616"><ele>1774.107</ele><time>2012-05-13T18:28:38Z</time></trkpt><trkpt lat="42.190124" lon="1.620648"><ele>1778.124</ele><time>2012-05-13T18:29:18Z</time></trkpt><trkpt lat="42.190170" lon="1.620683"><ele>1782.598</ele><time>2012-05-13T18:29:58Z</time></trkpt><trkpt lat="42.190199" lon="1.620688"><ele>1785.265</ele><time>2012-05-13T18:30:38Z</time></trkpt><trkpt lat="42.190244" lon="1.620696"><ele>1789.496</ele><time>2012-05-13T18:31:18Z</time></trkpt><trkpt lat="42.190289" lon="1.620704"><ele>1793.776</ele><time>2012-05-13T18:31:58Z</time></trkpt><trkpt lat="42.190329" lon="1.620724"><ele>1797.851</ele><time>2012-05-13T18:32:38Z</time></trkpt><trkpt lat="42.190374" lon="1.620747"><ele>1802.766</ele><time>2012-05-13T18:33:18Z</time></trkpt><trkpt lat="42.190420" lon="1.620770"><ele>1807.785</ele><time>2012-05-13T18:33:58Z</time></trkpt><trkpt lat="42.190465" lon="1.620793"><ele>1812.789</ele><time>2012-05-13T18:34:38Z</time></trkpt><trkpt lat="42.190510" lon="1.620815"><ele>1817.817</ele><time>2012-05-13T18:35:18Z</time></trkpt><trkpt lat="42.190556" lon="1.620838"><ele>1823.207</ele><time>2012-05-13T18:35:58Z</time></trkpt><trkpt lat="42.190601" lon="1.620861"><ele>1828.880</ele><time>2012-05-13T18:36:38Z</time></trkpt><trkpt lat="42.190646" lon="1.620884"><ele>1834.554</ele><time>2012-05-13T18:37:18Z</time></trkpt><trkpt lat="42.190691" lon="1.620907"><ele>1840.481</ele><time>2012-05-13T18:37:58Z</time></trkpt><trkpt lat="42.190737" lon="1.620930"><ele>1846.462</ele><time>2012-05-13T18:38:38Z</time></trkpt><trkpt lat="42.190782" lon="1.620953"><ele>1852.452</ele><time>2012-05-13T18:39:18Z</time></trkpt><trkpt lat="42.190827" lon="1.620976"><ele>1858.597</ele><time>2012-05-13T18:39:58Z</time></trkpt><trkpt lat="42.190873" lon="1.620999"><ele>1862.542</ele><time>2012-05-13T18:40:38Z</time></trkpt><trkpt lat="42.190918" lon="1.621022"><ele>1865.892</ele><time>2012-05-13T18:41:18Z</time></trkpt><trkpt lat="42.190963" lon="1.621045"><ele>1869.073</ele><time>2012-05-13T18:41:58Z</time></trkpt><trkpt lat="42.191009" lon="1.621068"><ele>1872.120</ele><time>2012-05-13T18:42:38Z</time></trkpt><trkpt lat="42.191054" lon="1.621091"><ele>1874.907</ele><time>2012-05-13T18:43:18Z</time></trkpt><trkpt lat="42.191099" lon="1.621114"><ele>1877.621</ele><time>2012-05-13T18:43:58Z</time></trkpt><trkpt lat="42.191145" lon="1.621137"><ele>1880.245</ele><time>2012-05-13T18:44:38Z</time></trkpt><trkpt lat="42.191190" lon="1.621159"><ele>1882.632</ele><time>2012-05-13T18:45:18Z</time></trkpt><trkpt lat="42.191235" lon="1.621182"><ele>1885.063</ele><time>2012-05-13T18:45:58Z</time></trkpt><trkpt lat="42.191280" lon="1.621270"><ele>1889.893</ele><time>2012-05-13T18:46:38Z</time></trkpt><trkpt lat="42.191311" lon="1.621330"><ele>1893.138</ele><time>2012-05-13T18:47:18Z</time></trkpt><trkpt lat="42.191342" lon="1.621390"><ele>1896.343</ele><time>2012-05-13T18:47:58Z</time></trkpt><trkpt lat="42.191372" lon="1.621449"><ele>1899.421</ele><time>2012-05-13T18:48:38Z</time></trkpt><trkpt lat="42.191403" lon="1.621510"><ele>1902.541</ele><time>2012-05-13T18:49:18Z</time></trkpt><trkpt lat="42.191413" lon="1.621548"><ele>1904.105</ele><time>2012-05-13T18:49:58Z</time></trkpt><trkpt lat="42.191429" lon="1.621608"><ele>1906.707</ele><time>2012-05-13T18:50:38Z</time></trkpt><trkpt lat="42.191445" lon="1.621669"><ele>1909.314</ele><time>2012-05-13T18:51:18Z</time></trkpt><trkpt lat="42.191460" lon="1.621729"><ele>1912.118</ele><time>2012-05-13T18:51:58Z</time></trkpt><trkpt lat="42.191476" lon="1.621789"><ele>1914.935</ele><time>2012-05-13T18:52:38Z</time></trkpt><trkpt lat="42.191492" lon="1.621849"><ele>1917.616</ele><time>2012-05-13T18:53:18Z</time></trkpt><trkpt lat="42.191508" lon="1.621909"><ele>1920.416</ele><time>2012-05-13T18:53:58Z</time></trkpt><trkpt lat="42.191523" lon="1.621970"><ele>1923.111</ele><time>2012-05-13T18:54:38Z</time></trkpt><trkpt lat="42.191536" lon="1.622047"><ele>1926.246</ele><time>2012-05-13T18:55:18Z</time></trkpt><trkpt lat="42.191545" lon="1.622107"><ele>1928.539</ele><time>2012-05-13T18:55:58Z</time></trkpt><trkpt lat="42.191555" lon="1.622168"><ele>1931.001</ele><time>2012-05-13T18:56:38Z</time></trkpt><trkpt lat="42.191565" lon="1.622228"><ele>1933.521</ele><time>2012-05-13T18:57:18Z</time></trkpt><trkpt lat="42.191575" lon="1.622288"><ele>1936.607</ele><time>2012-05-13T18:57:58Z</time></trkpt><trkpt lat="42.191584" lon="1.622349"><ele>1939.615</ele><time>2012-05-13T18:58:38Z</time></trkpt><trkpt lat="42.191594" lon="1.622409"><ele>1942.799</ele><time>2012-05-13T18:59:18Z</time></trkpt><trkpt lat="42.191602" lon="1.622459"><ele>1945.266</ele><time>2012-05-13T18:59:58Z</time></trkpt><trkpt lat="42.191611" lon="1.622519"><ele>1948.247</ele><time>2012-05-13T19:00:38Z</time></trkpt><trkpt lat="42.191620" lon="1.622580"><ele>1951.177</ele><time>2012-05-13T19:01:18Z</time></trkpt><trkpt lat="42.191629" lon="1.622640"><ele>1954.122</ele><time>2012-05-13T19:01:58Z</time></trkpt><trkpt lat="42.191638" lon="1.622700"><ele>1957.187</ele><time>2012-05-13T19:02:38Z</time></trkpt><trkpt lat="42.191647" lon="1.622761"><ele>1960.297</ele><time>2012-05-13T19:03:18Z</time></trkpt><trkpt lat="42.191656" lon="1.622821"><ele>1963.223</ele><time>2012-05-13T19:03:58Z</time></trkpt><trkpt lat="42.191665" lon="1.622882"><ele>1966.425</ele><time>2012-05-13T19:04:38Z</time></trkpt><trkpt lat="42.191674" lon="1.622942"><ele>1969.407</ele><time>2012-05-13T19:05:18Z</time></trkpt><trkpt lat="42.191683" lon="1.623002"><ele>1972.431</ele><time>2012-05-13T19:05:58Z</time></trkpt><trkpt lat="42.191706" lon="1.623085"><ele>1976.785</ele><time>2012-05-13T19:06:38Z</time></trkpt><trkpt lat="42.191722" lon="1.623145"><ele>1979.232</ele><time>2012-05-13T19:07:18Z</time></trkpt><trkpt lat="42.191738" lon="1.623205"><ele>1981.813</ele><time>2012-05-13T19:07:58Z</time></trkpt><trkpt lat="42.191755" lon="1.623266"><ele>1984.613</ele><time>2012-05-13T19:08:38Z</time></trkpt><trkpt lat="42.191771" lon="1.623326"><ele>1987.528</ele><time>2012-05-13T19:09:18Z</time></trkpt><trkpt lat="42.191788" lon="1.623386"><ele>1989.693</ele><time>2012-05-13T19:09:58Z</time></trkpt><trkpt lat="42.191804" lon="1.623446"><ele>1991.529</ele><time>2012-05-13T19:10:38Z</time></trkpt><trkpt lat="42.191820" lon="1.623506"><ele>1993.600</ele><time>2012-05-13T19:11:18Z</time></trkpt><trkpt lat="42.191841" lon="1.623572"><ele>1996.220</ele><time>2012-05-13T19:11:58Z</time></trkpt><trkpt lat="42.191860" lon="1.623633"><ele>1998.607</ele><time>2012-05-13T19:12:38Z</time></trkpt><trkpt lat="42.191879" lon="1.623693"><ele>2000.874</ele><time>2012-05-13T19:13:18Z</time></trkpt><trkpt lat="42.191897" lon="1.623753"><ele>2002.948</ele><time>2012-05-13T19:13:58Z</time></trkpt><trkpt lat="42.191916" lon="1.623813"><ele>2005.165</ele><time>2012-05-13T19:14:38Z</time></trkpt><trkpt lat="42.191935" lon="1.623873"><ele>2007.186</ele><time>2012-05-13T19:15:18Z</time></trkpt><trkpt lat="42.191953" lon="1.623933"><ele>2008.296</ele><time>2012-05-13T19:15:58Z</time></trkpt><trkpt lat="42.191972" lon="1.623994"><ele>2008.721</ele><time>2012-05-13T19:16:38Z</time></trkpt><trkpt lat="42.191991" lon="1.624054"><ele>2009.226</ele><time>2012-05-13T19:17:18Z</time></trkpt><trkpt lat="42.192029" lon="1.624130"><ele>2010.361</ele><time>2012-05-13T19:17:58Z</time></trkpt><trkpt lat="42.192059" lon="1.624190"><ele>2010.721</ele><time>2012-05-13T19:18:38Z</time></trkpt><trkpt lat="42.192089" lon="1.624250"><ele>2010.413</ele><time>2012-05-13T19:19:18Z</time></trkpt><trkpt lat="42.192119" lon="1.624310"><ele>2010.007</ele><time>2012-05-13T19:19:58Z</time></trkpt><trkpt lat="42.192149" lon="1.624370"><ele>2009.728</ele><time>2012-05-13T19:20:38Z</time></trkpt><trkpt lat="42.192179" lon="1.624430"><ele>2009.432</ele><time>2012-05-13T19:21:18Z</time></trkpt><trkpt lat="42.192209" lon="1.624490"><ele>2009.179</ele><time>2012-05-13T19:21:58Z</time></trkpt><trkpt lat="42.192243" lon="1.624516"><ele>2009.950</ele><time>2012-05-13T19:22:38Z</time></trkpt><trkpt lat="42.192288" lon="1.624553"><ele>2010.910</ele><time>2012-05-13T19:23:18Z</time></trkpt><trkpt lat="42.192334" lon="1.624589"><ele>2011.925</ele><time>2012-05-13T19:23:58Z</time></trkpt><trkpt lat="42.192379" lon="1.624625"><ele>2012.830</ele><time>2012-05-13T19:24:38Z</time></trkpt><trkpt lat="42.192425" lon="1.624661"><ele>2013.799</ele><time>2012-05-13T19:25:18Z</time></trkpt><trkpt lat="42.192491" lon="1.624731"><ele>2014.307</ele><time>2012-05-13T19:25:58Z</time></trkpt><trkpt lat="42.192537" lon="1.624778"><ele>2014.727</ele><time>2012-05-13T19:26:38Z</time></trkpt><trkpt lat="42.192582" lon="1.624826"><ele>2015.007</ele><time>2012-05-13T19:27:18Z</time></trkpt><trkpt lat="42.192628" lon="1.624873"><ele>2015.121</ele><time>2012-05-13T19:27:58Z</time></trkpt><trkpt lat="42.192673" lon="1.624921"><ele>2015.185</ele><time>2012-05-13T19:28:38Z</time></trkpt><trkpt lat="42.192703" lon="1.624937"><ele>2015.772</ele><time>2012-05-13T19:29:18Z</time></trkpt><trkpt lat="42.192748" lon="1.624962"><ele>2016.423</ele><time>2012-05-13T19:29:58Z</time></trkpt><trkpt lat="42.192793" lon="1.624987"><ele>2017.233</ele><time>2012-05-13T19:30:38Z</time></trkpt><trkpt lat="42.192839" lon="1.625012"><ele>2018.718</ele><time>2012-05-13T19:31:18Z</time></trkpt><trkpt lat="42.192884" lon="1.625037"><ele>2020.873</ele><time>2012-05-13T19:31:58Z</time></trkpt><trkpt lat="42.192929" lon="1.625062"><ele>2022.768</ele><time>2012-05-13T19:32:38Z</time></trkpt><trkpt lat="42.192975" lon="1.625087"><ele>2024.742</ele><time>2012-05-13T19:33:18Z</time></trkpt><trkpt lat="42.193020" lon="1.625112"><ele>2026.626</ele><time>2012-05-13T19:33:58Z</time></trkpt><trkpt lat="42.193030" lon="1.625145"><ele>2027.007</ele><time>2012-05-13T19:34:38Z</time></trkpt><trkpt lat="42.193048" lon="1.625205"><ele>2027.748</ele><time>2012-05-13T19:35:18Z</time></trkpt><trkpt lat="42.193067" lon="1.625265"><ele>2028.972</ele><time>2012-05-13T19:35:58Z</time></trkpt><trkpt lat="42.193085" lon="1.625325"><ele>2030.929</ele><time>2012-05-13T19:36:38Z</time></trkpt><trkpt lat="42.193103" lon="1.625385"><ele>2032.960</ele><time>2012-05-13T19:37:18Z</time></trkpt><trkpt lat="42.193121" lon="1.625445"><ele>2034.950</ele><time>2012-05-13T19:37:58Z</time></trkpt><trkpt lat="42.193140" lon="1.625506"><ele>2036.915</ele><time>2012-05-13T19:38:38Z</time></trkpt><trkpt lat="42.193155" lon="1.625539"><ele>2038.360</ele><time>2012-05-13T19:39:18Z</time></trkpt><trkpt lat="42.193183" lon="1.625599"><ele>2041.038</ele><time>2012-05-13T19:39:58Z</time></trkpt><trkpt lat="42.193212" lon="1.625659"><ele>2043.670</ele><time>2012-05-13T19:40:38Z</time></trkpt><trkpt lat="42.193240" lon="1.625719"><ele>2045.917</ele><time>2012-05-13T19:41:18Z</time></trkpt><trkpt lat="42.193268" lon="1.625779"><ele>2047.907</ele><time>2012-05-13T19:41:58Z</time></trkpt><trkpt lat="42.193296" lon="1.625838"><ele>2049.555</ele><time>2012-05-13T19:42:38Z</time></trkpt><trkpt lat="42.193324" lon="1.625898"><ele>2050.599</ele><time>2012-05-13T19:43:18Z</time></trkpt><trkpt lat="42.193370" lon="1.625936"><ele>2051.976</ele><time>2012-05-13T19:43:58Z</time></trkpt><trkpt lat="42.193416" lon="1.625974"><ele>2053.387</ele><time>2012-05-13T19:44:38Z</time></trkpt><trkpt lat="42.193461" lon="1.626011"><ele>2054.597</ele><time>2012-05-13T19:45:18Z</time></trkpt><trkpt lat="42.193507" lon="1.626049"><ele>2055.662</ele><time>2012-05-13T19:45:58Z</time></trkpt><trkpt lat="42.193573" lon="1.626065"><ele>2057.587</ele><time>2012-05-13T19:46:38Z</time></trkpt><trkpt lat="42.193618" lon="1.626076"><ele>2058.762</ele><time>2012-05-13T19:47:18Z</time></trkpt><trkpt lat="42.193663" lon="1.626087"><ele>2059.983</ele><time>2012-05-13T19:47:58Z</time></trkpt><trkpt lat="42.193708" lon="1.626098"><ele>2061.011</ele><time>2012-05-13T19:48:38Z</time></trkpt><trkpt lat="42.193753" lon="1.626110"><ele>2062.107</ele><time>2012-05-13T19:49:18Z</time></trkpt><trkpt lat="42.193811" lon="1.626143"><ele>2064.128</ele><time>2012-05-13T19:49:58Z</time></trkpt><trkpt lat="42.193857" lon="1.626170"><ele>2065.792</ele><time>2012-05-13T19:50:38Z</time></trkpt><trkpt lat="42.193902" lon="1.626196"><ele>2067.359</ele><time>2012-05-13T19:51:18Z</time></trkpt><trkpt lat="42.193947" lon="1.626222"><ele>2069.190</ele><time>2012-05-13T19:51:58Z</time></trkpt><trkpt lat="42.193993" lon="1.626248"><ele>2070.970</ele><time>2012-05-13T19:52:38Z</time></trkpt><trkpt lat="42.194038" lon="1.626275"><ele>2072.655</ele><time>2012-05-13T19:53:18Z</time></trkpt><trkpt lat="42.194083" lon="1.626301"><ele>2074.370</ele><time>2012-05-13T19:53:58Z</time></trkpt><trkpt lat="42.194146" lon="1.626332"><ele>2076.739</ele><time>2012-05-13T19:54:38Z</time></trkpt><trkpt lat="42.194191" lon="1.626355"><ele>2078.501</ele><time>2012-05-13T19:55:18Z</time></trkpt><trkpt lat="42.194236" lon="1.626377"><ele>2080.421</ele><time>2012-05-13T19:55:58Z</time></trkpt><trkpt lat="42.194281" lon="1.626400"><ele>2082.107</ele><time>2012-05-13T19:56:38Z</time></trkpt><trkpt lat="42.194327" lon="1.626423"><ele>2083.845</ele><time>2012-05-13T19:57:18Z</time></trkpt><trkpt lat="42.194372" lon="1.626446"><ele>2085.419</ele><time>2012-05-13T19:57:58Z</time></trkpt><trkpt lat="42.194417" lon="1.626468"><ele>2087.096</ele><time>2012-05-13T19:58:38Z</time></trkpt><trkpt lat="42.194463" lon="1.626491"><ele>2088.797</ele><time>2012-05-13T19:59:18Z</time></trkpt><trkpt lat="42.194512" lon="1.626514"><ele>2090.677</ele><time>2012-05-13T19:59:58Z</time></trkpt><trkpt lat="42.194512" lon="1.626514"><ele>2090.672</ele><time>2012-05-13T20:00:38Z</time></trkpt><trkpt lat="42.194558" lon="1.626534"><ele>2092.347</ele><time>2012-05-13T20:01:18Z</time></trkpt><trkpt lat="42.194603" lon="1.626555"><ele>2093.934</ele><time>2012-05-13T20:01:58Z</time></trkpt><trkpt lat="42.194648" lon="1.626576"><ele>2095.655</ele><time>2012-05-13T20:02:38Z</time></trkpt><trkpt lat="42.194693" lon="1.626596"><ele>2097.210</ele><time>2012-05-13T20:03:18Z</time></trkpt><trkpt lat="42.194694" lon="1.626616"><ele>2097.107</ele><time>2012-05-13T20:03:58Z</time></trkpt><trkpt lat="42.194694" lon="1.626604"><ele>2097.265</ele><time>2012-05-13T20:04:38Z</time></trkpt><trkpt lat="42.194694" lon="1.626589"><ele>2097.299</ele><time>2012-05-13T20:05:18Z</time></trkpt><trkpt lat="42.195853" lon="1.628974"><ele>2111.326</ele><time>2012-05-13T20:05:58Z</time></trkpt><trkpt lat="42.195786" lon="1.628887"><ele>2113.757</ele><time>2012-05-13T20:06:38Z</time></trkpt><trkpt lat="42.195740" lon="1.628827"><ele>2114.917</ele><time>2012-05-13T20:07:18Z</time></trkpt><trkpt lat="42.195694" lon="1.628768"><ele>2116.252</ele><time>2012-05-13T20:07:58Z</time></trkpt><trkpt lat="42.195649" lon="1.628708"><ele>2117.757</ele><time>2012-05-13T20:08:38Z</time></trkpt><trkpt lat="42.195603" lon="1.628649"><ele>2119.383</ele><time>2012-05-13T20:09:18Z</time></trkpt><trkpt lat="42.195557" lon="1.628583"><ele>2121.025</ele><time>2012-05-13T20:09:58Z</time></trkpt><trkpt lat="42.195515" lon="1.628523"><ele>2121.917</ele><time>2012-05-13T20:10:38Z</time></trkpt><trkpt lat="42.195472" lon="1.628464"><ele>2122.607</ele><time>2012-05-13T20:11:18Z</time></trkpt><trkpt lat="42.195430" lon="1.628404"><ele>2123.220</ele><time>2012-05-13T20:11:58Z</time></trkpt><trkpt lat="42.195388" lon="1.628344"><ele>2123.684</ele><time>2012-05-13T20:12:38Z</time></trkpt><trkpt lat="42.195346" lon="1.628285"><ele>2123.581</ele><time>2012-05-13T20:13:18Z</time></trkpt><trkpt lat="42.195304" lon="1.628225"><ele>2122.882</ele><time>2012-05-13T20:13:58Z</time></trkpt><trkpt lat="42.195262" lon="1.628166"><ele>2121.692</ele><time>2012-05-13T20:14:38Z</time></trkpt><trkpt lat="42.195220" lon="1.628106"><ele>2120.497</ele><time>2012-05-13T20:15:18Z</time></trkpt><trkpt lat="42.195194" lon="1.628034"><ele>2120.022</ele><time>2012-05-13T20:15:58Z</time></trkpt><trkpt lat="42.195172" lon="1.627974"><ele>2119.497</ele><time>2012-05-13T20:16:38Z</time></trkpt><trkpt lat="42.195150" lon="1.627914"><ele>2118.923</ele><time>2012-05-13T20:17:18Z</time></trkpt><trkpt lat="42.195128" lon="1.627854"><ele>2118.225</ele><time>2012-05-13T20:17:58Z</time></trkpt><trkpt lat="42.195106" lon="1.627794"><ele>2117.607</ele><time>2012-05-13T20:18:38Z</time></trkpt><trkpt lat="42.195084" lon="1.627734"><ele>2116.671</ele><time>2012-05-13T20:19:18Z</time></trkpt><trkpt lat="42.195073" lon="1.627701"><ele>2116.135</ele><time>2012-05-13T20:19:58Z</time></trkpt><trkpt lat="42.195054" lon="1.627641"><ele>2115.392</ele><time>2012-05-13T20:20:38Z</time></trkpt><trkpt lat="42.195034" lon="1.627580"><ele>2114.523</ele><time>2012-05-13T20:21:18Z</time></trkpt><trkpt lat="42.195015" lon="1.627520"><ele>2113.773</ele><time>2012-05-13T20:21:58Z</time></trkpt><trkpt lat="42.194996" lon="1.627460"><ele>2112.878</ele><time>2012-05-13T20:22:38Z</time></trkpt><trkpt lat="42.194976" lon="1.627400"><ele>2111.933</ele><time>2012-05-13T20:23:18Z</time></trkpt><trkpt lat="42.194957" lon="1.627340"><ele>2111.075</ele><time>2012-05-13T20:23:58Z</time></trkpt><trkpt lat="42.194938" lon="1.627280"><ele>2110.128</ele><time>2012-05-13T20:24:38Z</time></trkpt><trkpt lat="42.194918" lon="1.627220"><ele>2109.220</ele><time>2012-05-13T20:25:18Z</time></trkpt><trkpt lat="42.194899" lon="1.627159"><ele>2108.107</ele><time>2012-05-13T20:25:58Z</time></trkpt><trkpt lat="42.194880" lon="1.627099"><ele>2107.149</ele><time>2012-05-13T20:26:38Z</time></trkpt><trkpt lat="42.194856" lon="1.627039"><ele>2105.933</ele><time>2012-05-13T20:27:18Z</time></trkpt><trkpt lat="42.194833" lon="1.626979"><ele>2104.840</ele><time>2012-05-13T20:27:58Z</time></trkpt><trkpt lat="42.194810" lon="1.626919"><ele>2103.621</ele><time>2012-05-13T20:28:38Z</time></trkpt><trkpt lat="42.194787" lon="1.626859"><ele>2102.121</ele><time>2012-05-13T20:29:18Z</time></trkpt><trkpt lat="42.194763" lon="1.626798"><ele>2100.686</ele><time>2012-05-13T20:29:58Z</time></trkpt><trkpt lat="42.194740" lon="1.626738"><ele>2099.231</ele><time>2012-05-13T20:30:38Z</time></trkpt><trkpt lat="42.194717" lon="1.626678"><ele>2097.991</ele><time>2012-05-13T20:31:18Z</time></trkpt><trkpt lat="42.194694" lon="1.626618"><ele>2097.181</ele><time>2012-05-13T20:31:58Z</time></trkpt><trkpt lat="42.194693" lon="1.626596"><ele>2097.219</ele><time>2012-05-13T20:32:38Z</time></trkpt><trkpt lat="42.194694" lon="1.626618"><ele>2097.107</ele><time>2012-05-13T20:33:18Z</time></trkpt><trkpt lat="42.194693" lon="1.626563"><ele>2097.371</ele><time>2012-05-13T20:33:58Z</time></trkpt><trkpt lat="42.194692" lon="1.626502"><ele>2097.425</ele><time>2012-05-13T20:34:38Z</time></trkpt><trkpt lat="42.194692" lon="1.626441"><ele>2097.672</ele><time>2012-05-13T20:35:18Z</time></trkpt><trkpt lat="42.194691" lon="1.626381"><ele>2097.713</ele><time>2012-05-13T20:35:58Z</time></trkpt><trkpt lat="42.194690" lon="1.626320"><ele>2096.893</ele><time>2012-05-13T20:36:38Z</time></trkpt><trkpt lat="42.194689" lon="1.626260"><ele>2095.958</ele><time>2012-05-13T20:37:18Z</time></trkpt><trkpt lat="42.194689" lon="1.626199"><ele>2095.013</ele><time>2012-05-13T20:37:58Z</time></trkpt><trkpt lat="42.194688" lon="1.626139"><ele>2094.278</ele><time>2012-05-13T20:38:38Z</time></trkpt><trkpt lat="42.194687" lon="1.626078"><ele>2094.733</ele><time>2012-05-13T20:39:18Z</time></trkpt><trkpt lat="42.194686" lon="1.626018"><ele>2096.326</ele><time>2012-05-13T20:39:58Z</time></trkpt><trkpt lat="42.194686" lon="1.625957"><ele>2098.007</ele><time>2012-05-13T20:40:38Z</time></trkpt><trkpt lat="42.194685" lon="1.625901"><ele>2099.529</ele><time>2012-05-13T20:41:18Z</time></trkpt><trkpt lat="42.194684" lon="1.625841"><ele>2101.173</ele><time>2012-05-13T20:41:58Z</time></trkpt><trkpt lat="42.194684" lon="1.625780"><ele>2102.640</ele><time>2012-05-13T20:42:38Z</time></trkpt><trkpt lat="42.194683" lon="1.625720"><ele>2104.031</ele><time>2012-05-13T20:43:18Z</time></trkpt><trkpt lat="42.194682" lon="1.625659"><ele>2105.541</ele><time>2012-05-13T20:43:58Z</time></trkpt><trkpt lat="42.194681" lon="1.625599"><ele>2106.966</ele><time>2012-05-13T20:44:38Z</time></trkpt><trkpt lat="42.194681" lon="1.625538"><ele>2108.121</ele><time>2012-05-13T20:45:18Z</time></trkpt><trkpt lat="42.194680" lon="1.625478"><ele>2108.786</ele><time>2012-05-13T20:45:58Z</time></trkpt><trkpt lat="42.194679" lon="1.625417"><ele>2109.360</ele><time>2012-05-13T20:46:38Z</time></trkpt><trkpt lat="42.194679" lon="1.625356"><ele>2110.026</ele><time>2012-05-13T20:47:18Z</time></trkpt><trkpt lat="42.194678" lon="1.625296"><ele>2110.607</ele><time>2012-05-13T20:47:58Z</time></trkpt><trkpt lat="42.194668" lon="1.625246"><ele>2110.410</ele><time>2012-05-13T20:48:38Z</time></trkpt><trkpt lat="42.194657" lon="1.625185"><ele>2110.084</ele><time>2012-05-13T20:49:18Z</time></trkpt><trkpt lat="42.194646" lon="1.625125"><ele>2109.731</ele><time>2012-05-13T20:49:58Z</time></trkpt><trkpt lat="42.194634" lon="1.625065"><ele>2109.322</ele><time>2012-05-13T20:50:38Z</time></trkpt><trkpt lat="42.194623" lon="1.625005"><ele>2109.032</ele><time>2012-05-13T20:51:18Z</time></trkpt><trkpt lat="42.194611" lon="1.624944"><ele>2108.437</ele><time>2012-05-13T20:51:58Z</time></trkpt><trkpt lat="42.194600" lon="1.624884"><ele>2107.872</ele><time>2012-05-13T20:52:38Z</time></trkpt><trkpt lat="42.194589" lon="1.624824"><ele>2107.335</ele><time>2012-05-13T20:53:18Z</time></trkpt><trkpt lat="42.194577" lon="1.624763"><ele>2106.786</ele><time>2012-05-13T20:53:58Z</time></trkpt><trkpt lat="42.194566" lon="1.624703"><ele>2106.114</ele><time>2012-05-13T20:54:38Z</time></trkpt><trkpt lat="42.194554" lon="1.624643"><ele>2105.207</ele><time>2012-05-13T20:55:18Z</time></trkpt><trkpt lat="42.194543" lon="1.624582"><ele>2104.525</ele><time>2012-05-13T20:55:58Z</time></trkpt><trkpt lat="42.194532" lon="1.624522"><ele>2103.769</ele><time>2012-05-13T20:56:38Z</time></trkpt><trkpt lat="42.194520" lon="1.624462"><ele>2102.986</ele><time>2012-05-13T20:57:18Z</time></trkpt><trkpt lat="42.194517" lon="1.624412"><ele>2102.277</ele><time>2012-05-13T20:57:58Z</time></trkpt><trkpt lat="42.194513" lon="1.624351"><ele>2101.177</ele><time>2012-05-13T20:58:38Z</time></trkpt><trkpt lat="42.194509" lon="1.624291"><ele>2100.082</ele><time>2012-05-13T20:59:18Z</time></trkpt><trkpt lat="42.194505" lon="1.624230"><ele>2099.017</ele><time>2012-05-13T20:59:58Z</time></trkpt><trkpt lat="42.194501" lon="1.624170"><ele>2097.951</ele><time>2012-05-13T21:00:38Z</time></trkpt><trkpt lat="42.194497" lon="1.624109"><ele>2098.401</ele><time>2012-05-13T21:01:18Z</time></trkpt><trkpt lat="42.194493" lon="1.624049"><ele>2099.011</ele><time>2012-05-13T21:01:58Z</time></trkpt><trkpt lat="42.194488" lon="1.623988"><ele>2099.607</ele><time>2012-05-13T21:02:38Z</time></trkpt><trkpt lat="42.194484" lon="1.623928"><ele>2100.257</ele><time>2012-05-13T21:03:18Z</time></trkpt><trkpt lat="42.194480" lon="1.623868"><ele>2100.951</ele><time>2012-05-13T21:03:58Z</time></trkpt><trkpt lat="42.194458" lon="1.623854"><ele>2100.298</ele><time>2012-05-13T21:04:38Z</time></trkpt><trkpt lat="42.194470" lon="1.623770"><ele>2102.269</ele><time>2012-05-13T21:05:18Z</time></trkpt><trkpt lat="42.194470" lon="1.623770"><ele>2102.289</ele><time>2012-05-13T21:05:58Z</time></trkpt><trkpt lat="42.194479" lon="1.623709"><ele>2103.654</ele><time>2012-05-13T21:06:38Z</time></trkpt><trkpt lat="42.194488" lon="1.623649"><ele>2105.189</ele><time>2012-05-13T21:07:18Z</time></trkpt><trkpt lat="42.194497" lon="1.623588"><ele>2106.532</ele><time>2012-05-13T21:07:58Z</time></trkpt><trkpt lat="42.194506" lon="1.623527"><ele>2107.992</ele><time>2012-05-13T21:08:38Z</time></trkpt><trkpt lat="42.194515" lon="1.623466"><ele>2109.311</ele><time>2012-05-13T21:09:18Z</time></trkpt><trkpt lat="42.194524" lon="1.623406"><ele>2110.607</ele><time>2012-05-13T21:09:58Z</time></trkpt><trkpt lat="42.194533" lon="1.623345"><ele>2112.095</ele><time>2012-05-13T21:10:38Z</time></trkpt><trkpt lat="42.194542" lon="1.623284"><ele>2113.019</ele><time>2012-05-13T21:11:18Z</time></trkpt><trkpt lat="42.194551" lon="1.623223"><ele>2113.996</ele><time>2012-05-13T21:11:58Z</time></trkpt><trkpt lat="42.194560" lon="1.623163"><ele>2114.797</ele><time>2012-05-13T21:12:38Z</time></trkpt><trkpt lat="42.194568" lon="1.623102"><ele>2115.617</ele><time>2012-05-13T21:13:18Z</time></trkpt><trkpt lat="42.194578" lon="1.623041"><ele>2116.492</ele><time>2012-05-13T21:13:58Z</time></trkpt><trkpt lat="42.194586" lon="1.622980"><ele>2116.747</ele><time>2012-05-13T21:14:38Z</time></trkpt><trkpt lat="42.194595" lon="1.622920"><ele>2117.144</ele><time>2012-05-13T21:15:18Z</time></trkpt><trkpt lat="42.194604" lon="1.622859"><ele>2117.505</ele><time>2012-05-13T21:15:58Z</time></trkpt><trkpt lat="42.194613" lon="1.622798"><ele>2117.815</ele><time>2012-05-13T21:16:38Z</time></trkpt><trkpt lat="42.194622" lon="1.622737"><ele>2117.807</ele><time>2012-05-13T21:17:18Z</time></trkpt><trkpt lat="42.194631" lon="1.622677"><ele>2117.586</ele><time>2012-05-13T21:17:58Z</time></trkpt><trkpt lat="42.194640" lon="1.622616"><ele>2117.250</ele><time>2012-05-13T21:18:38Z</time></trkpt><trkpt lat="42.194649" lon="1.622555"><ele>2116.917</ele><time>2012-05-13T21:19:18Z</time></trkpt><trkpt lat="42.194658" lon="1.622494"><ele>2116.578</ele><time>2012-05-13T21:19:58Z</time></trkpt><trkpt lat="42.194667" lon="1.622434"><ele>2115.248</ele><time>2012-05-13T21:20:38Z</time></trkpt><trkpt lat="42.194676" lon="1.622373"><ele>2114.043</ele><time>2012-05-13T21:21:18Z</time></trkpt><trkpt lat="42.194691" lon="1.622335"><ele>2113.398</ele><time>2012-05-13T21:21:58Z</time></trkpt><trkpt lat="42.194715" lon="1.622274"><ele>2112.239</ele><time>2012-05-13T21:22:38Z</time></trkpt><trkpt lat="42.194739" lon="1.622213"><ele>2110.901</ele><time>2012-05-13T21:23:18Z</time></trkpt><trkpt lat="42.194763" lon="1.622152"><ele>2109.321</ele><time>2012-05-13T21:23:58Z</time></trkpt><trkpt lat="42.194787" lon="1.622091"><ele>2107.607</ele><time>2012-05-13T21:24:38Z</time></trkpt><trkpt lat="42.194811" lon="1.622030"><ele>2105.835</ele><time>2012-05-13T21:25:18Z</time></trkpt><trkpt lat="42.194836" lon="1.621968"><ele>2104.039</ele><time>2012-05-13T21:25:58Z</time></trkpt><trkpt lat="42.194874" lon="1.621924"><ele>2102.636</ele><time>2012-05-13T21:26:38Z</time></trkpt><trkpt lat="42.194919" lon="1.621873"><ele>2100.687</ele><time>2012-05-13T21:27:18Z</time></trkpt><trkpt lat="42.194963" lon="1.621823"><ele>2098.897</ele><time>2012-05-13T21:27:58Z</time></trkpt><trkpt lat="42.195008" lon="1.621772"><ele>2097.252</ele><time>2012-05-13T21:28:38Z</time></trkpt><trkpt lat="42.195052" lon="1.621721"><ele>2096.387</ele><time>2012-05-13T21:29:18Z</time></trkpt><trkpt lat="42.195082" lon="1.621726"><ele>2097.596</ele><time>2012-05-13T21:29:58Z</time></trkpt><trkpt lat="42.195127" lon="1.621734"><ele>2099.331</ele><time>2012-05-13T21:30:38Z</time></trkpt><trkpt lat="42.195172" lon="1.621742"><ele>2101.024</ele><time>2012-05-13T21:31:18Z</time></trkpt><trkpt lat="42.195217" lon="1.621749"><ele>2102.707</ele><time>2012-05-13T21:31:58Z</time></trkpt><trkpt lat="42.195273" lon="1.621790"><ele>2105.951</ele><time>2012-05-13T21:32:38Z</time></trkpt><trkpt lat="42.195318" lon="1.621824"><ele>2108.745</ele><time>2012-05-13T21:33:18Z</time></trkpt><trkpt lat="42.195364" lon="1.621857"><ele>2111.322</ele><time>2012-05-13T21:33:58Z</time></trkpt><trkpt lat="42.195409" lon="1.621890"><ele>2113.723</ele><time>2012-05-13T21:34:38Z</time></trkpt><trkpt lat="42.195455" lon="1.621923"><ele>2115.893</ele><time>2012-05-13T21:35:18Z</time></trkpt><trkpt lat="42.195484" lon="1.621904"><ele>2116.418</ele><time>2012-05-13T21:35:58Z</time></trkpt><trkpt lat="42.195529" lon="1.621874"><ele>2117.643</ele><time>2012-05-13T21:36:38Z</time></trkpt><trkpt lat="42.195573" lon="1.621844"><ele>2119.028</ele><time>2012-05-13T21:37:18Z</time></trkpt><trkpt lat="42.195618" lon="1.621814"><ele>2120.889</ele><time>2012-05-13T21:37:58Z</time></trkpt><trkpt lat="42.195682" lon="1.621763"><ele>2123.217</ele><time>2012-05-13T21:38:38Z</time></trkpt><trkpt lat="42.195727" lon="1.621728"><ele>2124.807</ele><time>2012-05-13T21:39:18Z</time></trkpt><trkpt lat="42.195772" lon="1.621693"><ele>2126.544</ele><time>2012-05-13T21:39:58Z</time></trkpt><trkpt lat="42.195816" lon="1.621657"><ele>2128.188</ele><time>2012-05-13T21:40:38Z</time></trkpt><trkpt lat="42.195861" lon="1.621622"><ele>2129.675</ele><time>2012-05-13T21:41:18Z</time></trkpt><trkpt lat="42.195905" lon="1.621587"><ele>2130.816</ele><time>2012-05-13T21:41:58Z</time></trkpt><trkpt lat="42.195927" lon="1.621536"><ele>2131.076</ele><time>2012-05-13T21:42:38Z</time></trkpt><trkpt lat="42.195953" lon="1.621475"><ele>2131.111</ele><time>2012-05-13T21:43:18Z</time></trkpt><trkpt lat="42.195979" lon="1.621413"><ele>2131.146</ele><time>2012-05-13T21:43:58Z</time></trkpt><trkpt lat="42.196005" lon="1.621352"><ele>2131.191</ele><time>2012-05-13T21:44:38Z</time></trkpt><trkpt lat="42.196069" lon="1.621332"><ele>2133.081</ele><time>2012-05-13T21:45:18Z</time></trkpt><trkpt lat="42.196114" lon="1.621318"><ele>2134.319</ele><time>2012-05-13T21:45:58Z</time></trkpt><trkpt lat="42.196157" lon="1.621297"><ele>2135.607</ele><time>2012-05-13T21:46:38Z</time></trkpt><trkpt lat="42.196202" lon="1.621274"><ele>2136.991</ele><time>2012-05-13T21:47:18Z</time></trkpt><trkpt lat="42.196247" lon="1.621252"><ele>2138.265</ele><time>2012-05-13T21:47:58Z</time></trkpt><trkpt lat="42.196251" lon="1.621231"><ele>2138.012</ele><time>2012-05-13T21:48:38Z</time></trkpt><trkpt lat="42.196256" lon="1.621171"><ele>2137.583</ele><time>2012-05-13T21:49:18Z</time></trkpt><trkpt lat="42.196261" lon="1.621110"><ele>2136.823</ele><time>2012-05-13T21:49:58Z</time></trkpt><trkpt lat="42.196263" lon="1.621064"><ele>2136.488</ele><time>2012-05-13T21:50:38Z</time></trkpt><trkpt lat="42.196265" lon="1.621003"><ele>2135.833</ele><time>2012-05-13T21:51:18Z</time></trkpt><trkpt lat="42.196306" lon="1.620923"><ele>2136.327</ele><time>2012-05-13T21:51:58Z</time></trkpt><trkpt lat="42.196337" lon="1.620862"><ele>2136.668</ele><time>2012-05-13T21:52:38Z</time></trkpt><trkpt lat="42.196395" lon="1.620804"><ele>2138.314</ele><time>2012-05-13T21:53:18Z</time></trkpt><trkpt lat="42.196440" lon="1.620759"><ele>2139.507</ele><time>2012-05-13T21:53:58Z</time></trkpt><trkpt lat="42.196484" lon="1.620714"><ele>2140.784</ele><time>2012-05-13T21:54:38Z</time></trkpt><trkpt lat="42.196529" lon="1.620669"><ele>2141.878</ele><time>2012-05-13T21:55:18Z</time></trkpt><trkpt lat="42.196573" lon="1.620625"><ele>2142.995</ele><time>2012-05-13T21:55:58Z</time></trkpt><trkpt lat="42.196618" lon="1.620580"><ele>2143.996</ele><time>2012-05-13T21:56:38Z</time></trkpt><trkpt lat="42.196662" lon="1.620535"><ele>2144.976</ele><time>2012-05-13T21:57:18Z</time></trkpt><trkpt lat="42.196707" lon="1.620503"><ele>2145.451</ele><time>2012-05-13T21:57:58Z</time></trkpt><trkpt lat="42.196752" lon="1.620471"><ele>2145.796</ele><time>2012-05-13T21:58:38Z</time></trkpt><trkpt lat="42.196797" lon="1.620439"><ele>2146.026</ele><time>2012-05-13T21:59:18Z</time></trkpt><trkpt lat="42.196841" lon="1.620407"><ele>2146.247</ele><time>2012-05-13T21:59:58Z</time></trkpt><trkpt lat="42.196886" lon="1.620375"><ele>2146.311</ele><time>2012-05-13T22:00:38Z</time></trkpt><trkpt lat="42.196933" lon="1.620360"><ele>2146.507</ele><time>2012-05-13T22:01:18Z</time></trkpt><trkpt lat="42.196977" lon="1.620347"><ele>2146.814</ele><time>2012-05-13T22:01:58Z</time></trkpt><trkpt lat="42.197022" lon="1.620333"><ele>2147.298</ele><time>2012-05-13T22:02:38Z</time></trkpt><trkpt lat="42.197067" lon="1.620319"><ele>2147.615</ele><time>2012-05-13T22:03:18Z</time></trkpt><trkpt lat="42.197112" lon="1.620305"><ele>2148.086</ele><time>2012-05-13T22:03:58Z</time></trkpt><trkpt lat="42.197157" lon="1.620291"><ele>2148.446</ele><time>2012-05-13T22:04:38Z</time></trkpt><trkpt lat="42.197202" lon="1.620278"><ele>2148.821</ele><time>2012-05-13T22:05:18Z</time></trkpt><trkpt lat="42.197249" lon="1.620270"><ele>2149.266</ele><time>2012-05-13T22:05:58Z</time></trkpt><trkpt lat="42.197294" lon="1.620264"><ele>2149.694</ele><time>2012-05-13T22:06:38Z</time></trkpt><trkpt lat="42.197339" lon="1.620257"><ele>2150.057</ele><time>2012-05-13T22:07:18Z</time></trkpt><trkpt lat="42.197383" lon="1.620250"><ele>2150.422</ele><time>2012-05-13T22:07:58Z</time></trkpt><trkpt lat="42.197428" lon="1.620243"><ele>2150.807</ele><time>2012-05-13T22:08:38Z</time></trkpt><trkpt lat="42.197473" lon="1.620237"><ele>2151.381</ele><time>2012-05-13T22:09:18Z</time></trkpt><trkpt lat="42.197518" lon="1.620230"><ele>2151.625</ele><time>2012-05-13T22:09:58Z</time></trkpt><trkpt lat="42.197549" lon="1.620232"><ele>2151.962</ele><time>2012-05-13T22:10:38Z</time></trkpt><trkpt lat="42.197594" lon="1.620235"><ele>2152.283</ele><time>2012-05-13T22:11:18Z</time></trkpt><trkpt lat="42.197639" lon="1.620239"><ele>2152.653</ele><time>2012-05-13T22:11:58Z</time></trkpt><trkpt lat="42.197685" lon="1.620242"><ele>2152.998</ele><time>2012-05-13T22:12:38Z</time></trkpt><trkpt lat="42.197730" lon="1.620246"><ele>2153.383</ele><time>2012-05-13T22:13:18Z</time></trkpt><trkpt lat="42.197775" lon="1.620249"><ele>2153.747</ele><time>2012-05-13T22:13:58Z</time></trkpt><trkpt lat="42.197804" lon="1.620248"><ele>2153.829</ele><time>2012-05-13T22:14:38Z</time></trkpt><trkpt lat="42.197849" lon="1.620247"><ele>2153.921</ele><time>2012-05-13T22:15:18Z</time></trkpt><trkpt lat="42.197894" lon="1.620246"><ele>2154.107</ele><time>2012-05-13T22:15:58Z</time></trkpt><trkpt lat="42.197939" lon="1.620245"><ele>2154.236</ele><time>2012-05-13T22:16:38Z</time></trkpt><trkpt lat="42.197963" lon="1.620252"><ele>2154.450</ele><time>2012-05-13T22:17:18Z</time></trkpt><trkpt lat="42.198008" lon="1.620265"><ele>2154.767</ele><time>2012-05-13T22:17:58Z</time></trkpt><trkpt lat="42.198053" lon="1.620278"><ele>2155.048</ele><time>2012-05-13T22:18:38Z</time></trkpt><trkpt lat="42.198098" lon="1.620291"><ele>2154.958</ele><time>2012-05-13T22:19:18Z</time></trkpt><trkpt lat="42.198164" lon="1.620304"><ele>2154.793</ele><time>2012-05-13T22:19:58Z</time></trkpt><trkpt lat="42.198209" lon="1.620313"><ele>2154.618</ele><time>2012-05-13T22:20:38Z</time></trkpt><trkpt lat="42.198254" lon="1.620322"><ele>2154.617</ele><time>2012-05-13T22:21:18Z</time></trkpt><trkpt lat="42.198299" lon="1.620331"><ele>2154.587</ele><time>2012-05-13T22:21:58Z</time></trkpt><trkpt lat="42.198344" lon="1.620340"><ele>2154.415</ele><time>2012-05-13T22:22:38Z</time></trkpt><trkpt lat="42.198389" lon="1.620348"><ele>2154.307</ele><time>2012-05-13T22:23:18Z</time></trkpt><trkpt lat="42.198434" lon="1.620357"><ele>2154.183</ele><time>2012-05-13T22:23:58Z</time></trkpt><trkpt lat="42.198466" lon="1.620365"><ele>2154.047</ele><time>2012-05-13T22:24:38Z</time></trkpt><trkpt lat="42.198511" lon="1.620375"><ele>2153.894</ele><time>2012-05-13T22:25:18Z</time></trkpt><trkpt lat="42.198556" lon="1.620386"><ele>2153.715</ele><time>2012-05-13T22:25:58Z</time></trkpt><trkpt lat="42.198601" lon="1.620396"><ele>2153.545</ele><time>2012-05-13T22:26:38Z</time></trkpt><trkpt lat="42.198647" lon="1.620407"><ele>2153.270</ele><time>2012-05-13T22:27:18Z</time></trkpt><trkpt lat="42.198692" lon="1.620417"><ele>2152.995</ele><time>2012-05-13T22:27:58Z</time></trkpt><trkpt lat="42.198737" lon="1.620428"><ele>2152.795</ele><time>2012-05-13T22:28:38Z</time></trkpt><trkpt lat="42.198782" lon="1.620438"><ele>2152.449</ele><time>2012-05-13T22:29:18Z</time></trkpt><trkpt lat="42.198827" lon="1.620449"><ele>2152.223</ele><time>2012-05-13T22:29:58Z</time></trkpt><trkpt lat="42.198872" lon="1.620459"><ele>2152.107</ele><time>2012-05-13T22:30:38Z</time></trkpt><trkpt lat="42.198917" lon="1.620470"><ele>2152.061</ele><time>2012-05-13T22:31:18Z</time></trkpt><trkpt lat="42.198977" lon="1.620488"><ele>2152.055</ele><time>2012-05-13T22:31:58Z</time></trkpt><trkpt lat="42.199022" lon="1.620502"><ele>2151.912</ele><time>2012-05-13T22:32:38Z</time></trkpt><trkpt lat="42.199068" lon="1.620515"><ele>2151.953</ele><time>2012-05-13T22:33:18Z</time></trkpt><trkpt lat="42.199113" lon="1.620529"><ele>2151.983</ele><time>2012-05-13T22:33:58Z</time></trkpt><trkpt lat="42.199158" lon="1.620543"><ele>2151.928</ele><time>2012-05-13T22:34:38Z</time></trkpt><trkpt lat="42.199203" lon="1.620556"><ele>2151.913</ele><time>2012-05-13T22:35:18Z</time></trkpt><trkpt lat="42.199248" lon="1.620570"><ele>2151.811</ele><time>2012-05-13T22:35:58Z</time></trkpt><trkpt lat="42.199294" lon="1.620584"><ele>2151.821</ele><time>2012-05-13T22:36:38Z</time></trkpt><trkpt lat="42.199339" lon="1.620597"><ele>2151.703</ele><time>2012-05-13T22:37:18Z</time></trkpt><trkpt lat="42.199384" lon="1.620611"><ele>2151.707</ele><time>2012-05-13T22:37:58Z</time></trkpt><trkpt lat="42.199429" lon="1.620625"><ele>2151.673</ele><time>2012-05-13T22:38:38Z</time></trkpt><trkpt lat="42.199474" lon="1.620638"><ele>2151.347</ele><time>2012-05-13T22:39:18Z</time></trkpt><trkpt lat="42.199537" lon="1.620663"><ele>2150.994</ele><time>2012-05-13T22:39:58Z</time></trkpt><trkpt lat="42.199582" lon="1.620681"><ele>2150.625</ele><time>2012-05-13T22:40:38Z</time></trkpt><trkpt lat="42.199628" lon="1.620698"><ele>2150.425</ele><time>2012-05-13T22:41:18Z</time></trkpt><trkpt lat="42.199673" lon="1.620716"><ele>2150.250</ele><time>2012-05-13T22:41:58Z</time></trkpt><trkpt lat="42.199718" lon="1.620734"><ele>2150.095</ele><time>2012-05-13T22:42:38Z</time></trkpt><trkpt lat="42.199763" lon="1.620752"><ele>2149.723</ele><time>2012-05-13T22:43:18Z</time></trkpt><trkpt lat="42.199809" lon="1.620769"><ele>2149.483</ele><time>2012-05-13T22:43:58Z</time></trkpt><trkpt lat="42.199854" lon="1.620787"><ele>2149.111</ele><time>2012-05-13T22:44:38Z</time></trkpt><trkpt lat="42.199899" lon="1.620805"><ele>2148.807</ele><time>2012-05-13T22:45:18Z</time></trkpt><trkpt lat="42.199944" lon="1.620823"><ele>2148.564</ele><time>2012-05-13T22:45:58Z</time></trkpt><trkpt lat="42.199990" lon="1.620840"><ele>2148.218</ele><time>2012-05-13T22:46:38Z</time></trkpt><trkpt lat="42.200035" lon="1.620858"><ele>2148.065</ele><time>2012-05-13T22:47:18Z</time></trkpt><trkpt lat="42.200080" lon="1.620876"><ele>2147.856</ele><time>2012-05-13T22:47:58Z</time></trkpt><trkpt lat="42.200125" lon="1.620894"><ele>2147.566</ele><time>2012-05-13T22:48:38Z</time></trkpt><trkpt lat="42.200171" lon="1.620911"><ele>2147.391</ele><time>2012-05-13T22:49:18Z</time></trkpt><trkpt lat="42.200216" lon="1.620929"><ele>2147.056</ele><time>2012-05-13T22:49:58Z</time></trkpt><trkpt lat="42.200261" lon="1.620947"><ele>2146.856</ele><time>2012-05-13T22:50:38Z</time></trkpt><trkpt lat="42.200306" lon="1.620965"><ele>2147.259</ele><time>2012-05-13T22:51:18Z</time></trkpt><trkpt lat="42.200349" lon="1.620975"><ele>2147.714</ele><time>2012-05-13T22:51:58Z</time></trkpt><trkpt lat="42.200390" lon="1.620965"><ele>2147.907</ele><time>2012-05-13T22:52:38Z</time></trkpt><trkpt lat="42.200435" lon="1.620954"><ele>2148.277</ele><time>2012-05-13T22:53:18Z</time></trkpt><trkpt lat="42.200480" lon="1.620943"><ele>2148.581</ele><time>2012-05-13T22:53:58Z</time></trkpt><trkpt lat="42.200525" lon="1.620932"><ele>2148.868</ele><time>2012-05-13T22:54:38Z</time></trkpt><trkpt lat="42.200570" lon="1.620921"><ele>2149.249</ele><time>2012-05-13T22:55:18Z</time></trkpt><trkpt lat="42.200614" lon="1.620910"><ele>2149.859</ele><time>2012-05-13T22:55:58Z</time></trkpt><trkpt lat="42.200659" lon="1.620899"><ele>2150.434</ele><time>2012-05-13T22:56:38Z</time></trkpt><trkpt lat="42.200704" lon="1.620889"><ele>2151.049</ele><time>2012-05-13T22:57:18Z</time></trkpt><trkpt lat="42.200749" lon="1.620878"><ele>2151.526</ele><time>2012-05-13T22:57:58Z</time></trkpt><trkpt lat="42.200794" lon="1.620867"><ele>2152.047</ele><time>2012-05-13T22:58:38Z</time></trkpt><trkpt lat="42.200839" lon="1.620856"><ele>2152.511</ele><time>2012-05-13T22:59:18Z</time></trkpt><trkpt lat="42.200884" lon="1.620845"><ele>2152.907</ele><time>2012-05-13T22:59:58Z</time></trkpt><trkpt lat="42.200929" lon="1.620834"><ele>2153.484</ele><time>2012-05-13T23:00:38Z</time></trkpt><trkpt lat="42.200974" lon="1.620823"><ele>2153.968</ele><time>2012-05-13T23:01:18Z</time></trkpt><trkpt lat="42.201019" lon="1.620812"><ele>2154.415</ele><time>2012-05-13T23:01:58Z</time></trkpt><trkpt lat="42.201063" lon="1.620801"><ele>2155.016</ele><time>2012-05-13T23:02:38Z</time></trkpt><trkpt lat="42.201108" lon="1.620790"><ele>2155.536</ele><time>2012-05-13T23:03:18Z</time></trkpt><trkpt lat="42.201153" lon="1.620779"><ele>2155.721</ele><time>2012-05-13T23:03:58Z</time></trkpt><trkpt lat="42.201198" lon="1.620768"><ele>2155.896</ele><time>2012-05-13T23:04:38Z</time></trkpt><trkpt lat="42.201243" lon="1.620757"><ele>2156.095</ele><time>2012-05-13T23:05:18Z</time></trkpt><trkpt lat="42.201288" lon="1.620747"><ele>2156.349</ele><time>2012-05-13T23:05:58Z</time></trkpt><trkpt lat="42.201333" lon="1.620736"><ele>2156.623</ele><time>2012-05-13T23:06:38Z</time></trkpt><trkpt lat="42.201378" lon="1.620725"><ele>2156.907</ele><time>2012-05-13T23:07:18Z</time></trkpt><trkpt lat="42.201382" lon="1.620693"><ele>2156.981</ele><time>2012-05-13T23:07:58Z</time></trkpt><trkpt lat="42.201391" lon="1.620632"><ele>2157.075</ele><time>2012-05-13T23:08:38Z</time></trkpt><trkpt lat="42.201399" lon="1.620572"><ele>2157.142</ele><time>2012-05-13T23:09:18Z</time></trkpt><trkpt lat="42.201408" lon="1.620511"><ele>2158.063</ele><time>2012-05-13T23:09:58Z</time></trkpt><trkpt lat="42.201417" lon="1.620450"><ele>2159.243</ele><time>2012-05-13T23:10:38Z</time></trkpt><trkpt lat="42.201425" lon="1.620389"><ele>2160.318</ele><time>2012-05-13T23:11:18Z</time></trkpt><trkpt lat="42.201434" lon="1.620329"><ele>2161.413</ele><time>2012-05-13T23:11:58Z</time></trkpt><trkpt lat="42.201431" lon="1.620281"><ele>2162.286</ele><time>2012-05-13T23:12:38Z</time></trkpt><trkpt lat="42.201426" lon="1.620220"><ele>2163.160</ele><time>2012-05-13T23:13:18Z</time></trkpt><trkpt lat="42.201422" lon="1.620160"><ele>2163.926</ele><time>2012-05-13T23:13:58Z</time></trkpt><trkpt lat="42.201418" lon="1.620099"><ele>2164.807</ele><time>2012-05-13T23:14:38Z</time></trkpt><trkpt lat="42.201413" lon="1.620039"><ele>2165.610</ele><time>2012-05-13T23:15:18Z</time></trkpt><trkpt lat="42.201409" lon="1.619978"><ele>2166.534</ele><time>2012-05-13T23:15:58Z</time></trkpt><trkpt lat="42.201405" lon="1.619918"><ele>2167.391</ele><time>2012-05-13T23:16:38Z</time></trkpt><trkpt lat="42.201407" lon="1.619881"><ele>2167.862</ele><time>2012-05-13T23:17:18Z</time></trkpt><trkpt lat="42.201411" lon="1.619821"><ele>2168.772</ele><time>2012-05-13T23:17:58Z</time></trkpt><trkpt lat="42.201415" lon="1.619760"><ele>2169.687</ele><time>2012-05-13T23:18:38Z</time></trkpt><trkpt lat="42.201419" lon="1.619699"><ele>2170.622</ele><time>2012-05-13T23:19:18Z</time></trkpt><trkpt lat="42.201424" lon="1.619639"><ele>2171.515</ele><time>2012-05-13T23:19:58Z</time></trkpt><trkpt lat="42.201428" lon="1.619578"><ele>2172.465</ele><time>2012-05-13T23:20:38Z</time></trkpt><trkpt lat="42.201432" lon="1.619517"><ele>2173.311</ele><time>2012-05-13T23:21:18Z</time></trkpt><trkpt lat="42.201436" lon="1.619457"><ele>2174.207</ele><time>2012-05-13T23:21:58Z</time></trkpt><trkpt lat="42.201450" lon="1.619401"><ele>2175.153</ele><time>2012-05-13T23:22:38Z</time></trkpt><trkpt lat="42.201466" lon="1.619341"><ele>2176.017</ele><time>2012-05-13T23:23:18Z</time></trkpt><trkpt lat="42.201482" lon="1.619280"><ele>2177.074</ele><time>2012-05-13T23:23:58Z</time></trkpt><trkpt lat="42.201497" lon="1.619219"><ele>2178.095</ele><time>2012-05-13T23:24:38Z</time></trkpt><trkpt lat="42.201513" lon="1.619158"><ele>2179.055</ele><time>2012-05-13T23:25:18Z</time></trkpt><trkpt lat="42.201529" lon="1.619097"><ele>2179.990</ele><time>2012-05-13T23:25:58Z</time></trkpt><trkpt lat="42.201545" lon="1.619036"><ele>2180.875</ele><time>2012-05-13T23:26:38Z</time></trkpt><trkpt lat="42.201560" lon="1.618975"><ele>2181.722</ele><time>2012-05-13T23:27:18Z</time></trkpt><trkpt lat="42.201556" lon="1.618929"><ele>2182.362</ele><time>2012-05-13T23:27:58Z</time></trkpt><trkpt lat="42.201551" lon="1.618869"><ele>2183.008</ele><time>2012-05-13T23:28:38Z</time></trkpt><trkpt lat="42.201545" lon="1.618808"><ele>2183.607</ele><time>2012-05-13T23:29:18Z</time></trkpt><trkpt lat="42.201540" lon="1.618748"><ele>2184.234</ele><time>2012-05-13T23:29:58Z</time></trkpt><trkpt lat="42.201534" lon="1.618687"><ele>2184.758</ele><time>2012-05-13T23:30:38Z</time></trkpt><trkpt lat="42.201528" lon="1.618627"><ele>2185.315</ele><time>2012-05-13T23:31:18Z</time></trkpt><trkpt lat="42.201523" lon="1.618566"><ele>2185.916</ele><time>2012-05-13T23:31:58Z</time></trkpt><trkpt lat="42.201546" lon="1.618486"><ele>2187.096</ele><time>2012-05-13T23:32:38Z</time></trkpt><trkpt lat="42.201562" lon="1.618425"><ele>2187.931</ele><time>2012-05-13T23:33:18Z</time></trkpt><trkpt lat="42.201580" lon="1.618364"><ele>2188.776</ele><time>2012-05-13T23:33:58Z</time></trkpt><trkpt lat="42.201597" lon="1.618303"><ele>2189.784</ele><time>2012-05-13T23:34:38Z</time></trkpt><trkpt lat="42.201614" lon="1.618242"><ele>2190.707</ele><time>2012-05-13T23:35:18Z</time></trkpt><trkpt lat="42.201631" lon="1.618181"><ele>2191.717</ele><time>2012-05-13T23:35:58Z</time></trkpt><trkpt lat="42.201648" lon="1.618120"><ele>2192.807</ele><time>2012-05-13T23:36:38Z</time></trkpt><trkpt lat="42.201665" lon="1.618059"><ele>2193.920</ele><time>2012-05-13T23:37:18Z</time></trkpt><trkpt lat="42.201682" lon="1.617998"><ele>2195.044</ele><time>2012-05-13T23:37:58Z</time></trkpt><trkpt lat="42.201699" lon="1.617937"><ele>2196.051</ele><time>2012-05-13T23:38:38Z</time></trkpt><trkpt lat="42.201695" lon="1.617907"><ele>2196.472</ele><time>2012-05-13T23:39:18Z</time></trkpt><trkpt lat="42.201688" lon="1.617846"><ele>2197.272</ele><time>2012-05-13T23:39:58Z</time></trkpt><trkpt lat="42.201681" lon="1.617786"><ele>2198.017</ele><time>2012-05-13T23:40:38Z</time></trkpt><trkpt lat="42.201674" lon="1.617725"><ele>2198.832</ele><time>2012-05-13T23:41:18Z</time></trkpt><trkpt lat="42.201667" lon="1.617665"><ele>2199.639</ele><time>2012-05-13T23:41:58Z</time></trkpt><trkpt lat="42.201659" lon="1.617605"><ele>2200.401</ele><time>2012-05-13T23:42:38Z</time></trkpt><trkpt lat="42.201652" lon="1.617544"><ele>2201.221</ele><time>2012-05-13T23:43:18Z</time></trkpt><trkpt lat="42.201645" lon="1.617484"><ele>2202.107</ele><time>2012-05-13T23:43:58Z</time></trkpt><trkpt lat="42.201638" lon="1.617423"><ele>2203.365</ele><time>2012-05-13T23:44:38Z</time></trkpt><trkpt lat="42.201631" lon="1.617363"><ele>2204.569</ele><time>2012-05-13T23:45:18Z</time></trkpt><trkpt lat="42.201641" lon="1.617288"><ele>2206.266</ele><time>2012-05-13T23:45:58Z</time></trkpt><trkpt lat="42.201650" lon="1.617227"><ele>2207.777</ele><time>2012-05-13T23:46:38Z</time></trkpt><trkpt lat="42.201658" lon="1.617167"><ele>2209.177</ele><time>2012-05-13T23:47:18Z</time></trkpt><trkpt lat="42.201667" lon="1.617106"><ele>2210.542</ele><time>2012-05-13T23:47:58Z</time></trkpt><trkpt lat="42.201675" lon="1.617045"><ele>2212.087</ele><time>2012-05-13T23:48:38Z</time></trkpt><trkpt lat="42.201684" lon="1.616984"><ele>2213.485</ele><time>2012-05-13T23:49:18Z</time></trkpt><trkpt lat="42.201693" lon="1.616923"><ele>2215.089</ele><time>2012-05-13T23:49:58Z</time></trkpt><trkpt lat="42.201701" lon="1.616863"><ele>2216.717</ele><time>2012-05-13T23:50:38Z</time></trkpt><trkpt lat="42.201710" lon="1.616802"><ele>2218.407</ele><time>2012-05-13T23:51:18Z</time></trkpt><trkpt lat="42.201717" lon="1.616743"><ele>2220.090</ele><time>2012-05-13T23:51:58Z</time></trkpt><trkpt lat="42.201724" lon="1.616682"><ele>2221.634</ele><time>2012-05-13T23:52:38Z</time></trkpt><trkpt lat="42.201732" lon="1.616621"><ele>2223.211</ele><time>2012-05-13T23:53:18Z</time></trkpt><trkpt lat="42.201739" lon="1.616561"><ele>2224.692</ele><time>2012-05-13T23:53:58Z</time></trkpt><trkpt lat="42.201747" lon="1.616500"><ele>2226.082</ele><time>2012-05-13T23:54:38Z</time></trkpt><trkpt lat="42.201754" lon="1.616439"><ele>2227.587</ele><time>2012-05-13T23:55:18Z</time></trkpt><trkpt lat="42.201761" lon="1.616407"><ele>2228.362</ele><time>2012-05-13T23:55:58Z</time></trkpt><trkpt lat="42.201774" lon="1.616346"><ele>2230.121</ele><time>2012-05-13T23:56:38Z</time></trkpt><trkpt lat="42.201787" lon="1.616285"><ele>2231.941</ele><time>2012-05-13T23:57:18Z</time></trkpt><trkpt lat="42.201801" lon="1.616224"><ele>2233.905</ele><time>2012-05-13T23:57:58Z</time></trkpt><trkpt lat="42.201791" lon="1.616139"><ele>2235.907</ele><time>2012-05-13T23:58:38Z</time></trkpt><trkpt lat="42.201784" lon="1.616079"><ele>2237.364</ele><time>2012-05-13T23:59:18Z</time></trkpt><trkpt lat="42.201777" lon="1.616019"><ele>2238.518</ele><time>2012-05-13T23:59:58Z</time></trkpt><trkpt lat="42.201770" lon="1.615958"><ele>2239.795</ele><time>2012-05-14T00:00:38Z</time></trkpt><trkpt lat="42.201763" lon="1.615898"><ele>2241.076</ele><time>2012-05-14T00:01:18Z</time></trkpt><trkpt lat="42.201756" lon="1.615837"><ele>2242.246</ele><time>2012-05-14T00:01:58Z</time></trkpt><trkpt lat="42.201732" lon="1.615750"><ele>2243.751</ele><time>2012-05-14T00:02:38Z</time></trkpt><trkpt lat="42.201715" lon="1.615690"><ele>2244.846</ele><time>2012-05-14T00:03:18Z</time></trkpt><trkpt lat="42.201698" lon="1.615630"><ele>2245.914</ele><time>2012-05-14T00:03:58Z</time></trkpt><trkpt lat="42.201682" lon="1.615569"><ele>2247.054</ele><time>2012-05-14T00:04:38Z</time></trkpt><trkpt lat="42.201665" lon="1.615509"><ele>2248.109</ele><time>2012-05-14T00:05:18Z</time></trkpt><trkpt lat="42.201648" lon="1.615449"><ele>2249.307</ele><time>2012-05-14T00:05:58Z</time></trkpt><trkpt lat="42.201631" lon="1.615389"><ele>2250.533</ele><time>2012-05-14T00:06:38Z</time></trkpt><trkpt lat="42.201622" lon="1.615341"><ele>2251.647</ele><time>2012-05-14T00:07:18Z</time></trkpt><trkpt lat="42.201611" lon="1.615281"><ele>2252.954</ele><time>2012-05-14T00:07:58Z</time></trkpt><trkpt lat="42.201599" lon="1.615221"><ele>2254.565</ele><time>2012-05-14T00:08:38Z</time></trkpt><trkpt lat="42.201588" lon="1.615160"><ele>2256.145</ele><time>2012-05-14T00:09:18Z</time></trkpt><trkpt lat="42.201576" lon="1.615100"><ele>2257.720</ele><time>2012-05-14T00:09:58Z</time></trkpt><trkpt lat="42.201565" lon="1.615040"><ele>2259.315</ele><time>2012-05-14T00:10:38Z</time></trkpt><trkpt lat="42.201553" lon="1.614979"><ele>2261.024</ele><time>2012-05-14T00:11:18Z</time></trkpt><trkpt lat="42.201571" lon="1.614947"><ele>2262.304</ele><time>2012-05-14T00:11:58Z</time></trkpt><trkpt lat="42.201605" lon="1.614885"><ele>2264.814</ele><time>2012-05-14T00:12:38Z</time></trkpt><trkpt lat="42.201639" lon="1.614824"><ele>2267.307</ele><time>2012-05-14T00:13:18Z</time></trkpt><trkpt lat="42.201673" lon="1.614763"><ele>2269.744</ele><time>2012-05-14T00:13:58Z</time></trkpt><trkpt lat="42.201730" lon="1.614674"><ele>2272.548</ele><time>2012-05-14T00:14:38Z</time></trkpt><trkpt lat="42.201769" lon="1.614613"><ele>2274.035</ele><time>2012-05-14T00:15:18Z</time></trkpt><trkpt lat="42.201770" lon="1.614560"><ele>2275.086</ele><time>2012-05-14T00:15:58Z</time></trkpt><trkpt lat="42.201770" lon="1.614499"><ele>2276.316</ele><time>2012-05-14T00:16:38Z</time></trkpt><trkpt lat="42.201771" lon="1.614438"><ele>2277.561</ele><time>2012-05-14T00:17:18Z</time></trkpt><trkpt lat="42.201772" lon="1.614378"><ele>2278.216</ele><time>2012-05-14T00:17:58Z</time></trkpt><trkpt lat="42.201773" lon="1.614317"><ele>2278.923</ele><time>2012-05-14T00:18:38Z</time></trkpt><trkpt lat="42.201774" lon="1.614257"><ele>2279.683</ele><time>2012-05-14T00:19:18Z</time></trkpt><trkpt lat="42.201775" lon="1.614196"><ele>2280.311</ele><time>2012-05-14T00:19:58Z</time></trkpt><trkpt lat="42.201775" lon="1.614135"><ele>2280.507</ele><time>2012-05-14T00:20:38Z</time></trkpt><trkpt lat="42.201733" lon="1.614120"><ele>2280.774</ele><time>2012-05-14T00:21:18Z</time></trkpt><trkpt lat="42.201688" lon="1.614104"><ele>2280.948</ele><time>2012-05-14T00:21:58Z</time></trkpt><trkpt lat="42.201643" lon="1.614087"><ele>2281.095</ele><time>2012-05-14T00:22:38Z</time></trkpt><trkpt lat="42.201598" lon="1.614071"><ele>2281.236</ele><time>2012-05-14T00:23:18Z</time></trkpt><trkpt lat="42.201552" lon="1.614054"><ele>2281.376</ele><time>2012-05-14T00:23:58Z</time></trkpt><trkpt lat="42.201507" lon="1.614038"><ele>2281.591</ele><time>2012-05-14T00:24:38Z</time></trkpt><trkpt lat="42.201462" lon="1.614021"><ele>2281.886</ele><time>2012-05-14T00:25:18Z</time></trkpt><trkpt lat="42.201417" lon="1.614005"><ele>2282.078</ele><time>2012-05-14T00:25:58Z</time></trkpt><trkpt lat="42.201372" lon="1.613989"><ele>2282.333</ele><time>2012-05-14T00:26:38Z</time></trkpt><trkpt lat="42.201326" lon="1.613972"><ele>2282.326</ele><time>2012-05-14T00:27:18Z</time></trkpt><trkpt lat="42.201281" lon="1.613956"><ele>2282.407</ele><time>2012-05-14T00:27:58Z</time></trkpt><trkpt lat="42.201236" lon="1.613939"><ele>2282.519</ele><time>2012-05-14T00:28:38Z</time></trkpt><trkpt lat="42.201191" lon="1.613923"><ele>2282.713</ele><time>2012-05-14T00:29:18Z</time></trkpt><trkpt lat="42.201145" lon="1.613906"><ele>2282.870</ele><time>2012-05-14T00:29:58Z</time></trkpt><trkpt lat="42.201100" lon="1.613890"><ele>2282.921</ele><time>2012-05-14T00:30:38Z</time></trkpt><trkpt lat="42.201055" lon="1.613873"><ele>2282.881</ele><time>2012-05-14T00:31:18Z</time></trkpt><trkpt lat="42.201010" lon="1.613857"><ele>2282.626</ele><time>2012-05-14T00:31:58Z</time></trkpt><trkpt lat="42.200965" lon="1.613841"><ele>2282.471</ele><time>2012-05-14T00:32:38Z</time></trkpt><trkpt lat="42.201136" lon="1.613910"><ele>2282.813</ele><time>2012-05-14T00:33:18Z</time></trkpt><trkpt lat="42.201090" lon="1.613895"><ele>2282.943</ele><time>2012-05-14T00:33:58Z</time></trkpt><trkpt lat="42.201045" lon="1.613879"><ele>2282.707</ele><time>2012-05-14T00:34:38Z</time></trkpt><trkpt lat="42.201000" lon="1.613864"><ele>2282.507</ele><time>2012-05-14T00:35:18Z</time></trkpt><trkpt lat="42.200955" lon="1.613849"><ele>2282.473</ele><time>2012-05-14T00:35:58Z</time></trkpt><trkpt lat="42.200969" lon="1.613779"><ele>2282.357</ele><time>2012-05-14T00:36:38Z</time></trkpt><trkpt lat="42.200981" lon="1.613718"><ele>2282.274</ele><time>2012-05-14T00:37:18Z</time></trkpt><trkpt lat="42.200994" lon="1.613658"><ele>2282.115</ele><time>2012-05-14T00:37:58Z</time></trkpt><trkpt lat="42.201006" lon="1.613597"><ele>2281.895</ele><time>2012-05-14T00:38:38Z</time></trkpt><trkpt lat="42.201019" lon="1.613536"><ele>2281.030</ele><time>2012-05-14T00:39:18Z</time></trkpt><trkpt lat="42.201031" lon="1.613475"><ele>2280.275</ele><time>2012-05-14T00:39:58Z</time></trkpt><trkpt lat="42.201044" lon="1.613414"><ele>2279.345</ele><time>2012-05-14T00:40:38Z</time></trkpt><trkpt lat="42.201056" lon="1.613353"><ele>2278.547</ele><time>2012-05-14T00:41:18Z</time></trkpt><trkpt lat="42.201064" lon="1.613295"><ele>2277.511</ele><time>2012-05-14T00:41:58Z</time></trkpt><trkpt lat="42.201071" lon="1.613234"><ele>2276.407</ele><time>2012-05-14T00:42:38Z</time></trkpt><trkpt lat="42.201079" lon="1.613173"><ele>2275.246</ele><time>2012-05-14T00:43:18Z</time></trkpt><trkpt lat="42.201086" lon="1.613113"><ele>2274.170</ele><time>2012-05-14T00:43:58Z</time></trkpt><trkpt lat="42.201093" lon="1.613052"><ele>2273.027</ele><time>2012-05-14T00:44:38Z</time></trkpt><trkpt lat="42.201101" lon="1.612991"><ele>2271.928</ele><time>2012-05-14T00:45:18Z</time></trkpt><trkpt lat="42.201108" lon="1.612930"><ele>2270.748</ele><time>2012-05-14T00:45:58Z</time></trkpt><trkpt lat="42.201116" lon="1.612870"><ele>2269.613</ele><time>2012-05-14T00:46:38Z</time></trkpt><trkpt lat="42.201123" lon="1.612809"><ele>2268.588</ele><time>2012-05-14T00:47:18Z</time></trkpt><trkpt lat="42.201126" lon="1.612740"><ele>2267.129</ele><time>2012-05-14T00:47:58Z</time></trkpt><trkpt lat="42.201129" lon="1.612679"><ele>2265.800</ele><time>2012-05-14T00:48:38Z</time></trkpt><trkpt lat="42.201131" lon="1.612619"><ele>2264.520</ele><time>2012-05-14T00:49:18Z</time></trkpt><trkpt lat="42.201134" lon="1.612558"><ele>2263.207</ele><time>2012-05-14T00:49:58Z</time></trkpt><trkpt lat="42.201136" lon="1.612497"><ele>2261.954</ele><time>2012-05-14T00:50:38Z</time></trkpt><trkpt lat="42.201139" lon="1.612437"><ele>2260.778</ele><time>2012-05-14T00:51:18Z</time></trkpt><trkpt lat="42.201142" lon="1.612376"><ele>2259.685</ele><time>2012-05-14T00:51:58Z</time></trkpt><trkpt lat="42.201144" lon="1.612316"><ele>2258.566</ele><time>2012-05-14T00:52:38Z</time></trkpt><trkpt lat="42.201147" lon="1.612255"><ele>2257.326</ele><time>2012-05-14T00:53:18Z</time></trkpt><trkpt lat="42.201149" lon="1.612194"><ele>2256.171</ele><time>2012-05-14T00:53:58Z</time></trkpt><trkpt lat="42.201152" lon="1.612134"><ele>2254.836</ele><time>2012-05-14T00:54:38Z</time></trkpt><trkpt lat="42.201153" lon="1.612058"><ele>2253.215</ele><time>2012-05-14T00:55:18Z</time></trkpt><trkpt lat="42.201155" lon="1.611998"><ele>2252.065</ele><time>2012-05-14T00:55:58Z</time></trkpt><trkpt lat="42.201156" lon="1.611937"><ele>2250.711</ele><time>2012-05-14T00:56:38Z</time></trkpt><trkpt lat="42.201157" lon="1.611877"><ele>2249.507</ele><time>2012-05-14T00:57:18Z</time></trkpt><trkpt lat="42.201158" lon="1.611816"><ele>2248.443</ele><time>2012-05-14T00:57:58Z</time></trkpt><trkpt lat="42.201159" lon="1.611755"><ele>2247.267</ele><time>2012-05-14T00:58:38Z</time></trkpt><trkpt lat="42.201151" lon="1.611674"><ele>2245.774</ele><time>2012-05-14T00:59:18Z</time></trkpt><trkpt lat="42.201145" lon="1.611614"><ele>2244.365</ele><time>2012-05-14T00:59:58Z</time></trkpt><trkpt lat="42.201138" lon="1.611553"><ele>2242.895</ele><time>2012-05-14T01:00:38Z</time></trkpt><trkpt lat="42.201132" lon="1.611493"><ele>2241.490</ele><time>2012-05-14T01:01:18Z</time></trkpt><trkpt lat="42.201133" lon="1.611439"><ele>2240.045</ele><time>2012-05-14T01:01:58Z</time></trkpt><trkpt lat="42.201135" lon="1.611378"><ele>2238.485</ele><time>2012-05-14T01:02:38Z</time></trkpt><trkpt lat="42.201137" lon="1.611318"><ele>2236.789</ele><time>2012-05-14T01:03:18Z</time></trkpt><trkpt lat="42.201139" lon="1.611257"><ele>2234.917</ele><time>2012-05-14T01:03:58Z</time></trkpt><trkpt lat="42.201141" lon="1.611196"><ele>2233.107</ele><time>2012-05-14T01:04:38Z</time></trkpt><trkpt lat="42.201140" lon="1.611142"><ele>2231.610</ele><time>2012-05-14T01:05:18Z</time></trkpt><trkpt lat="42.201139" lon="1.611082"><ele>2229.634</ele><time>2012-05-14T01:05:58Z</time></trkpt><trkpt lat="42.201138" lon="1.611021"><ele>2227.431</ele><time>2012-05-14T01:06:38Z</time></trkpt><trkpt lat="42.201138" lon="1.610961"><ele>2225.352</ele><time>2012-05-14T01:07:18Z</time></trkpt><trkpt lat="42.201137" lon="1.610900"><ele>2223.012</ele><time>2012-05-14T01:07:58Z</time></trkpt><trkpt lat="42.201136" lon="1.610841"><ele>2220.987</ele><time>2012-05-14T01:08:38Z</time></trkpt><trkpt lat="42.201136" lon="1.610781"><ele>2218.392</ele><time>2012-05-14T01:09:18Z</time></trkpt><trkpt lat="42.201135" lon="1.610720"><ele>2215.716</ele><time>2012-05-14T01:09:58Z</time></trkpt><trkpt lat="42.201134" lon="1.610660"><ele>2213.076</ele><time>2012-05-14T01:10:38Z</time></trkpt><trkpt lat="42.201133" lon="1.610599"><ele>2210.413</ele><time>2012-05-14T01:11:18Z</time></trkpt><trkpt lat="42.201132" lon="1.610538"><ele>2207.607</ele><time>2012-05-14T01:11:58Z</time></trkpt><trkpt lat="42.201135" lon="1.610498"><ele>2205.593</ele><time>2012-05-14T01:12:38Z</time></trkpt><trkpt lat="42.201139" lon="1.610438"><ele>2202.437</ele><time>2012-05-14T01:13:18Z</time></trkpt><trkpt lat="42.201143" lon="1.610377"><ele>2199.354</ele><time>2012-05-14T01:13:58Z</time></trkpt><trkpt lat="42.201147" lon="1.610316"><ele>2196.135</ele><time>2012-05-14T01:14:38Z</time></trkpt><trkpt lat="42.201151" lon="1.610256"><ele>2192.655</ele><time>2012-05-14T01:15:18Z</time></trkpt><trkpt lat="42.201155" lon="1.610195"><ele>2188.390</ele><time>2012-05-14T01:15:58Z</time></trkpt><trkpt lat="42.201158" lon="1.610134"><ele>2184.195</ele><time>2012-05-14T01:16:38Z</time></trkpt><trkpt lat="42.201162" lon="1.610074"><ele>2179.967</ele><time>2012-05-14T01:17:18Z</time></trkpt><trkpt lat="42.201164" lon="1.610028"><ele>2176.781</ele><time>2012-05-14T01:17:58Z</time></trkpt><trkpt lat="42.201167" lon="1.609968"><ele>2172.519</ele><time>2012-05-14T01:18:38Z</time></trkpt><trkpt lat="42.201170" lon="1.609907"><ele>2168.107</ele><time>2012-05-14T01:19:18Z</time></trkpt><trkpt lat="42.201172" lon="1.609846"><ele>2163.818</ele><time>2012-05-14T01:19:58Z</time></trkpt><trkpt lat="42.201178" lon="1.609811"><ele>2161.232</ele><time>2012-05-14T01:20:38Z</time></trkpt><trkpt lat="42.201188" lon="1.609750"><ele>2156.689</ele><time>2012-05-14T01:21:18Z</time></trkpt><trkpt lat="42.201198" lon="1.609689"><ele>2152.750</ele><time>2012-05-14T01:21:58Z</time></trkpt><trkpt lat="42.201209" lon="1.609628"><ele>2149.370</ele><time>2012-05-14T01:22:38Z</time></trkpt><trkpt lat="42.201219" lon="1.609568"><ele>2146.265</ele><time>2012-05-14T01:23:18Z</time></trkpt><trkpt lat="42.201220" lon="1.609500"><ele>2142.890</ele><time>2012-05-14T01:23:58Z</time></trkpt><trkpt lat="42.201222" lon="1.609440"><ele>2139.888</ele><time>2012-05-14T01:24:38Z</time></trkpt><trkpt lat="42.201223" lon="1.609379"><ele>2136.724</ele><time>2012-05-14T01:25:18Z</time></trkpt><trkpt lat="42.201224" lon="1.609319"><ele>2133.726</ele><time>2012-05-14T01:25:58Z</time></trkpt><trkpt lat="42.201226" lon="1.609258"><ele>2130.707</ele><time>2012-05-14T01:26:38Z</time></trkpt><trkpt lat="42.201227" lon="1.609198"><ele>2127.760</ele><time>2012-05-14T01:27:18Z</time></trkpt><trkpt lat="42.201212" lon="1.609139"><ele>2124.254</ele><time>2012-05-14T01:27:58Z</time></trkpt><trkpt lat="42.201196" lon="1.609079"><ele>2120.421</ele><time>2012-05-14T01:28:38Z</time></trkpt><trkpt lat="42.201181" lon="1.609018"><ele>2116.552</ele><time>2012-05-14T01:29:18Z</time></trkpt><trkpt lat="42.201165" lon="1.608958"><ele>2112.542</ele><time>2012-05-14T01:29:58Z</time></trkpt><trkpt lat="42.201149" lon="1.608898"><ele>2108.437</ele><time>2012-05-14T01:30:38Z</time></trkpt><trkpt lat="42.201134" lon="1.608838"><ele>2105.142</ele><time>2012-05-14T01:31:18Z</time></trkpt><trkpt lat="42.201118" lon="1.608778"><ele>2101.975</ele><time>2012-05-14T01:31:58Z</time></trkpt><trkpt lat="42.201103" lon="1.608717"><ele>2098.828</ele><time>2012-05-14T01:32:38Z</time></trkpt><trkpt lat="42.201087" lon="1.608657"><ele>2095.620</ele><time>2012-05-14T01:33:18Z</time></trkpt><trkpt lat="42.201072" lon="1.608597"><ele>2092.107</ele><time>2012-05-14T01:33:58Z</time></trkpt><trkpt lat="42.201056" lon="1.608537"><ele>2087.969</ele><time>2012-05-14T01:34:38Z</time></trkpt><trkpt lat="42.201014" lon="1.608450"><ele>2080.973</ele><time>2012-05-14T01:35:18Z</time></trkpt><trkpt lat="42.200986" lon="1.608390"><ele>2076.260</ele><time>2012-05-14T01:35:58Z</time></trkpt><trkpt lat="42.200957" lon="1.608330"><ele>2071.691</ele><time>2012-05-14T01:36:38Z</time></trkpt><trkpt lat="42.200928" lon="1.608270"><ele>2066.751</ele><time>2012-05-14T01:37:18Z</time></trkpt><trkpt lat="42.200908" lon="1.608203"><ele>2061.926</ele><time>2012-05-14T01:37:58Z</time></trkpt><trkpt lat="42.200890" lon="1.608143"><ele>2057.561</ele><time>2012-05-14T01:38:38Z</time></trkpt><trkpt lat="42.200871" lon="1.608083"><ele>2053.276</ele><time>2012-05-14T01:39:18Z</time></trkpt><trkpt lat="42.200853" lon="1.608023"><ele>2049.190</ele><time>2012-05-14T01:39:58Z</time></trkpt><trkpt lat="42.200835" lon="1.607963"><ele>2045.119</ele><time>2012-05-14T01:40:38Z</time></trkpt><trkpt lat="42.200817" lon="1.607903"><ele>2041.307</ele><time>2012-05-14T01:41:18Z</time></trkpt><trkpt lat="42.200809" lon="1.607871"><ele>2039.329</ele><time>2012-05-14T01:41:58Z</time></trkpt><trkpt lat="42.200794" lon="1.607810"><ele>2035.643</ele><time>2012-05-14T01:42:38Z</time></trkpt><trkpt lat="42.200779" lon="1.607750"><ele>2032.190</ele><time>2012-05-14T01:43:18Z</time></trkpt><trkpt lat="42.200764" lon="1.607690"><ele>2028.811</ele><time>2012-05-14T01:43:58Z</time></trkpt><trkpt lat="42.200749" lon="1.607630"><ele>2025.591</ele><time>2012-05-14T01:44:38Z</time></trkpt><trkpt lat="42.200734" lon="1.607569"><ele>2022.116</ele><time>2012-05-14T01:45:18Z</time></trkpt><trkpt lat="42.200718" lon="1.607509"><ele>2018.761</ele><time>2012-05-14T01:45:58Z</time></trkpt><trkpt lat="42.200695" lon="1.607476"><ele>2016.448</ele><time>2012-05-14T01:46:38Z</time></trkpt><trkpt lat="42.200652" lon="1.607416"><ele>2012.361</ele><time>2012-05-14T01:47:18Z</time></trkpt><trkpt lat="42.200610" lon="1.607357"><ele>2008.217</ele><time>2012-05-14T01:47:58Z</time></trkpt><trkpt lat="42.200568" lon="1.607297"><ele>2003.907</ele><time>2012-05-14T01:48:38Z</time></trkpt><trkpt lat="42.200525" lon="1.607237"><ele>1999.496</ele><time>2012-05-14T01:49:18Z</time></trkpt><trkpt lat="42.200483" lon="1.607178"><ele>1994.880</ele><time>2012-05-14T01:49:58Z</time></trkpt><trkpt lat="42.200420" lon="1.607120"><ele>1989.537</ele><time>2012-05-14T01:50:38Z</time></trkpt><trkpt lat="42.200374" lon="1.607078"><ele>1985.738</ele><time>2012-05-14T01:51:18Z</time></trkpt><trkpt lat="42.200328" lon="1.607036"><ele>1982.038</ele><time>2012-05-14T01:51:58Z</time></trkpt><trkpt lat="42.200283" lon="1.606994"><ele>1978.453</ele><time>2012-05-14T01:52:38Z</time></trkpt><trkpt lat="42.200237" lon="1.606953"><ele>1974.278</ele><time>2012-05-14T01:53:18Z</time></trkpt><trkpt lat="42.200192" lon="1.606911"><ele>1970.226</ele><time>2012-05-14T01:53:58Z</time></trkpt><trkpt lat="42.200160" lon="1.606886"><ele>1967.647</ele><time>2012-05-14T01:54:38Z</time></trkpt><trkpt lat="42.200129" lon="1.606838"><ele>1964.311</ele><time>2012-05-14T01:55:18Z</time></trkpt><trkpt lat="42.200090" lon="1.606778"><ele>1960.307</ele><time>2012-05-14T01:55:58Z</time></trkpt><trkpt lat="42.200090" lon="1.606738"><ele>1958.944</ele><time>2012-05-14T01:56:38Z</time></trkpt><trkpt lat="42.200089" lon="1.606678"><ele>1956.928</ele><time>2012-05-14T01:57:18Z</time></trkpt><trkpt lat="42.200056" lon="1.606644"><ele>1954.195</ele><time>2012-05-14T01:57:58Z</time></trkpt><trkpt lat="42.200010" lon="1.606596"><ele>1950.256</ele><time>2012-05-14T01:58:38Z</time></trkpt><trkpt lat="42.199965" lon="1.606549"><ele>1946.286</ele><time>2012-05-14T01:59:18Z</time></trkpt><trkpt lat="42.199919" lon="1.606502"><ele>1942.241</ele><time>2012-05-14T01:59:58Z</time></trkpt><trkpt lat="42.199874" lon="1.606455"><ele>1938.266</ele><time>2012-05-14T02:00:38Z</time></trkpt><trkpt lat="42.199881" lon="1.606366"><ele>1935.992</ele><time>2012-05-14T02:01:18Z</time></trkpt><trkpt lat="42.199885" lon="1.606305"><ele>1934.173</ele><time>2012-05-14T02:01:58Z</time></trkpt><trkpt lat="42.199890" lon="1.606245"><ele>1932.520</ele><time>2012-05-14T02:02:38Z</time></trkpt><trkpt lat="42.199905" lon="1.606190"><ele>1931.407</ele><time>2012-05-14T02:03:18Z</time></trkpt><trkpt lat="42.199922" lon="1.606129"><ele>1930.291</ele><time>2012-05-14T02:03:58Z</time></trkpt><trkpt lat="42.199939" lon="1.606069"><ele>1928.725</ele><time>2012-05-14T02:04:38Z</time></trkpt><trkpt lat="42.199956" lon="1.606008"><ele>1927.162</ele><time>2012-05-14T02:05:18Z</time></trkpt><trkpt lat="42.199968" lon="1.605970"><ele>1926.123</ele><time>2012-05-14T02:05:58Z</time></trkpt><trkpt lat="42.199988" lon="1.605909"><ele>1924.583</ele><time>2012-05-14T02:06:38Z</time></trkpt><trkpt lat="42.200007" lon="1.605848"><ele>1922.858</ele><time>2012-05-14T02:07:18Z</time></trkpt><trkpt lat="42.200027" lon="1.605787"><ele>1921.023</ele><time>2012-05-14T02:07:58Z</time></trkpt><trkpt lat="42.200047" lon="1.605726"><ele>1919.332</ele><time>2012-05-14T02:08:38Z</time></trkpt><trkpt lat="42.200066" lon="1.605665"><ele>1917.592</ele><time>2012-05-14T02:09:18Z</time></trkpt><trkpt lat="42.200086" lon="1.605604"><ele>1915.711</ele><time>2012-05-14T02:09:58Z</time></trkpt><trkpt lat="42.200105" lon="1.605543"><ele>1913.907</ele><time>2012-05-14T02:10:38Z</time></trkpt><trkpt lat="42.200154" lon="1.605472"><ele>1912.665</ele><time>2012-05-14T02:11:18Z</time></trkpt><trkpt lat="42.200196" lon="1.605411"><ele>1911.719</ele><time>2012-05-14T02:11:58Z</time></trkpt><trkpt lat="42.200238" lon="1.605349"><ele>1911.016</ele><time>2012-05-14T02:12:38Z</time></trkpt><trkpt lat="42.200280" lon="1.605288"><ele>1910.577</ele><time>2012-05-14T02:13:18Z</time></trkpt><trkpt lat="42.200322" lon="1.605226"><ele>1911.197</ele><time>2012-05-14T02:13:58Z</time></trkpt><trkpt lat="42.200348" lon="1.605172"><ele>1911.032</ele><time>2012-05-14T02:14:38Z</time></trkpt><trkpt lat="42.200377" lon="1.605110"><ele>1910.937</ele><time>2012-05-14T02:15:18Z</time></trkpt><trkpt lat="42.200406" lon="1.605049"><ele>1910.891</ele><time>2012-05-14T02:15:58Z</time></trkpt><trkpt lat="42.200436" lon="1.604988"><ele>1910.781</ele><time>2012-05-14T02:16:38Z</time></trkpt><trkpt lat="42.200465" lon="1.604927"><ele>1910.719</ele><time>2012-05-14T02:17:18Z</time></trkpt><trkpt lat="42.200486" lon="1.604889"><ele>1910.807</ele><time>2012-05-14T02:17:58Z</time></trkpt><trkpt lat="42.200519" lon="1.604828"><ele>1910.931</ele><time>2012-05-14T02:18:38Z</time></trkpt><trkpt lat="42.200553" lon="1.604766"><ele>1911.045</ele><time>2012-05-14T02:19:18Z</time></trkpt><trkpt lat="42.200587" lon="1.604705"><ele>1910.812</ele><time>2012-05-14T02:19:58Z</time></trkpt><trkpt lat="42.200621" lon="1.604644"><ele>1910.713</ele><time>2012-05-14T02:20:38Z</time></trkpt><trkpt lat="42.200632" lon="1.604560"><ele>1909.413</ele><time>2012-05-14T02:21:18Z</time></trkpt><trkpt lat="42.200640" lon="1.604499"><ele>1908.318</ele><time>2012-05-14T02:21:58Z</time></trkpt><trkpt lat="42.200648" lon="1.604438"><ele>1907.273</ele><time>2012-05-14T02:22:38Z</time></trkpt><trkpt lat="42.200656" lon="1.604378"><ele>1906.384</ele><time>2012-05-14T02:23:18Z</time></trkpt><trkpt lat="42.200664" lon="1.604317"><ele>1905.407</ele><time>2012-05-14T02:23:58Z</time></trkpt><trkpt lat="42.200672" lon="1.604256"><ele>1904.517</ele><time>2012-05-14T02:24:38Z</time></trkpt><trkpt lat="42.200680" lon="1.604195"><ele>1903.607</ele><time>2012-05-14T02:25:18Z</time></trkpt><trkpt lat="42.200688" lon="1.604135"><ele>1903.280</ele><time>2012-05-14T02:25:58Z</time></trkpt><trkpt lat="42.200697" lon="1.604074"><ele>1903.274</ele><time>2012-05-14T02:26:38Z</time></trkpt><trkpt lat="42.200659" lon="1.604003"><ele>1902.231</ele><time>2012-05-14T02:27:18Z</time></trkpt><trkpt lat="42.200628" lon="1.603943"><ele>1901.442</ele><time>2012-05-14T02:27:58Z</time></trkpt><trkpt lat="42.200596" lon="1.603883"><ele>1900.862</ele><time>2012-05-14T02:28:38Z</time></trkpt><trkpt lat="42.200564" lon="1.603823"><ele>1901.377</ele><time>2012-05-14T02:29:18Z</time></trkpt><trkpt lat="42.200533" lon="1.603763"><ele>1901.622</ele><time>2012-05-14T02:29:58Z</time></trkpt><trkpt lat="42.200501" lon="1.603703"><ele>1901.862</ele><time>2012-05-14T02:30:38Z</time></trkpt><trkpt lat="42.200460" lon="1.603649"><ele>1901.883</ele><time>2012-05-14T02:31:18Z</time></trkpt><trkpt lat="42.200414" lon="1.603590"><ele>1901.711</ele><time>2012-05-14T02:31:58Z</time></trkpt><trkpt lat="42.200368" lon="1.603530"><ele>1901.607</ele><time>2012-05-14T02:32:38Z</time></trkpt><trkpt lat="42.200322" lon="1.603470"><ele>1901.868</ele><time>2012-05-14T02:33:18Z</time></trkpt><trkpt lat="42.200272" lon="1.603394"><ele>1902.532</ele><time>2012-05-14T02:33:58Z</time></trkpt><trkpt lat="42.200233" lon="1.603334"><ele>1902.749</ele><time>2012-05-14T02:34:38Z</time></trkpt><trkpt lat="42.200233" lon="1.603354"><ele>1902.240</ele><time>2012-05-14T02:35:18Z</time></trkpt><trkpt lat="42.200191" lon="1.603311"><ele>1902.010</ele><time>2012-05-14T02:35:58Z</time></trkpt><trkpt lat="42.200145" lon="1.603265"><ele>1901.835</ele><time>2012-05-14T02:36:38Z</time></trkpt><trkpt lat="42.200099" lon="1.603219"><ele>1901.710</ele><time>2012-05-14T02:37:18Z</time></trkpt><trkpt lat="42.200072" lon="1.603201"><ele>1901.592</ele><time>2012-05-14T02:37:58Z</time></trkpt><trkpt lat="42.200026" lon="1.603172"><ele>1901.273</ele><time>2012-05-14T02:38:38Z</time></trkpt><trkpt lat="42.199981" lon="1.603143"><ele>1900.620</ele><time>2012-05-14T02:39:18Z</time></trkpt><trkpt lat="42.199959" lon="1.603089"><ele>1901.107</ele><time>2012-05-14T02:39:58Z</time></trkpt><trkpt lat="42.199934" lon="1.603029"><ele>1901.881</ele><time>2012-05-14T02:40:38Z</time></trkpt><trkpt lat="42.199910" lon="1.602969"><ele>1902.685</ele><time>2012-05-14T02:41:18Z</time></trkpt><trkpt lat="42.199885" lon="1.602909"><ele>1903.292</ele><time>2012-05-14T02:41:58Z</time></trkpt><trkpt lat="42.199860" lon="1.602849"><ele>1903.863</ele><time>2012-05-14T02:42:38Z</time></trkpt><trkpt lat="42.199851" lon="1.602817"><ele>1904.293</ele><time>2012-05-14T02:43:18Z</time></trkpt><trkpt lat="42.199835" lon="1.602757"><ele>1904.898</ele><time>2012-05-14T02:43:58Z</time></trkpt><trkpt lat="42.199818" lon="1.602696"><ele>1904.673</ele><time>2012-05-14T02:44:38Z</time></trkpt><trkpt lat="42.199801" lon="1.602636"><ele>1904.417</ele><time>2012-05-14T02:45:18Z</time></trkpt><trkpt lat="42.199785" lon="1.602576"><ele>1904.187</ele><time>2012-05-14T02:45:58Z</time></trkpt><trkpt lat="42.199768" lon="1.602516"><ele>1903.815</ele><time>2012-05-14T02:46:38Z</time></trkpt><trkpt lat="42.199757" lon="1.602461"><ele>1903.107</ele><time>2012-05-14T02:47:18Z</time></trkpt><trkpt lat="42.199745" lon="1.602401"><ele>1902.143</ele><time>2012-05-14T02:47:58Z</time></trkpt><trkpt lat="42.199733" lon="1.602340"><ele>1901.147</ele><time>2012-05-14T02:48:38Z</time></trkpt><trkpt lat="42.199721" lon="1.602280"><ele>1900.114</ele><time>2012-05-14T02:49:18Z</time></trkpt><trkpt lat="42.199723" lon="1.602210"><ele>1900.035</ele><time>2012-05-14T02:49:58Z</time></trkpt><trkpt lat="42.199724" lon="1.602149"><ele>1899.625</ele><time>2012-05-14T02:50:38Z</time></trkpt><trkpt lat="42.199725" lon="1.602088"><ele>1899.260</ele><time>2012-05-14T02:51:18Z</time></trkpt><trkpt lat="42.199727" lon="1.602028"><ele>1898.925</ele><time>2012-05-14T02:51:58Z</time></trkpt><trkpt lat="42.199728" lon="1.601967"><ele>1898.646</ele><time>2012-05-14T02:52:38Z</time></trkpt><trkpt lat="42.199729" lon="1.601907"><ele>1897.588</ele><time>2012-05-14T02:53:18Z</time></trkpt><trkpt lat="42.199731" lon="1.601846"><ele>1896.116</ele><time>2012-05-14T02:53:58Z</time></trkpt><trkpt lat="42.199756" lon="1.601775"><ele>1896.007</ele><time>2012-05-14T02:54:38Z</time></trkpt><trkpt lat="42.199778" lon="1.601714"><ele>1896.086</ele><time>2012-05-14T02:55:18Z</time></trkpt><trkpt lat="42.199800" lon="1.601653"><ele>1895.990</ele><time>2012-05-14T02:55:58Z</time></trkpt><trkpt lat="42.199821" lon="1.601592"><ele>1895.627</ele><time>2012-05-14T02:56:38Z</time></trkpt><trkpt lat="42.199843" lon="1.601531"><ele>1895.478</ele><time>2012-05-14T02:57:18Z</time></trkpt><trkpt lat="42.199865" lon="1.601470"><ele>1895.198</ele><time>2012-05-14T02:57:58Z</time></trkpt><trkpt lat="42.199887" lon="1.601409"><ele>1894.843</ele><time>2012-05-14T02:58:38Z</time></trkpt><trkpt lat="42.199918" lon="1.601340"><ele>1895.298</ele><time>2012-05-14T02:59:18Z</time></trkpt><trkpt lat="42.199946" lon="1.601279"><ele>1895.856</ele><time>2012-05-14T02:59:58Z</time></trkpt><trkpt lat="42.199975" lon="1.601217"><ele>1896.559</ele><time>2012-05-14T03:00:38Z</time></trkpt><trkpt lat="42.200003" lon="1.601156"><ele>1897.214</ele><time>2012-05-14T03:01:18Z</time></trkpt><trkpt lat="42.200031" lon="1.601095"><ele>1897.707</ele><time>2012-05-14T03:01:58Z</time></trkpt><trkpt lat="42.200059" lon="1.601034"><ele>1898.217</ele><time>2012-05-14T03:02:38Z</time></trkpt><trkpt lat="42.200087" lon="1.600973"><ele>1898.651</ele><time>2012-05-14T03:03:18Z</time></trkpt><trkpt lat="42.200116" lon="1.600911"><ele>1899.268</ele><time>2012-05-14T03:03:58Z</time></trkpt><trkpt lat="42.200144" lon="1.600850"><ele>1899.879</ele><time>2012-05-14T03:04:38Z</time></trkpt><trkpt lat="42.200145" lon="1.600781"><ele>1898.659</ele><time>2012-05-14T03:05:18Z</time></trkpt><trkpt lat="42.200146" lon="1.600720"><ele>1897.764</ele><time>2012-05-14T03:05:58Z</time></trkpt><trkpt lat="42.200147" lon="1.600660"><ele>1896.849</ele><time>2012-05-14T03:06:38Z</time></trkpt><trkpt lat="42.200148" lon="1.600599"><ele>1895.834</ele><time>2012-05-14T03:07:18Z</time></trkpt><trkpt lat="42.200149" lon="1.600539"><ele>1894.855</ele><time>2012-05-14T03:07:58Z</time></trkpt><trkpt lat="42.200150" lon="1.600478"><ele>1893.510</ele><time>2012-05-14T03:08:38Z</time></trkpt><trkpt lat="42.200151" lon="1.600417"><ele>1892.107</ele><time>2012-05-14T03:09:18Z</time></trkpt><trkpt lat="42.200152" lon="1.600357"><ele>1890.895</ele><time>2012-05-14T03:09:58Z</time></trkpt><trkpt lat="42.200146" lon="1.600307"><ele>1889.229</ele><time>2012-05-14T03:10:38Z</time></trkpt><trkpt lat="42.200138" lon="1.600247"><ele>1887.146</ele><time>2012-05-14T03:11:18Z</time></trkpt><trkpt lat="42.200129" lon="1.600187"><ele>1884.817</ele><time>2012-05-14T03:11:58Z</time></trkpt><trkpt lat="42.200121" lon="1.600126"><ele>1882.657</ele><time>2012-05-14T03:12:38Z</time></trkpt><trkpt lat="42.200113" lon="1.600066"><ele>1880.542</ele><time>2012-05-14T03:13:18Z</time></trkpt><trkpt lat="42.200105" lon="1.600006"><ele>1878.397</ele><time>2012-05-14T03:13:58Z</time></trkpt><trkpt lat="42.200096" lon="1.599945"><ele>1876.063</ele><time>2012-05-14T03:14:38Z</time></trkpt><trkpt lat="42.200088" lon="1.599885"><ele>1873.944</ele><time>2012-05-14T03:15:18Z</time></trkpt><trkpt lat="42.200066" lon="1.599836"><ele>1871.318</ele><time>2012-05-14T03:15:58Z</time></trkpt><trkpt lat="42.200039" lon="1.599776"><ele>1868.307</ele><time>2012-05-14T03:16:38Z</time></trkpt><trkpt lat="42.200012" lon="1.599716"><ele>1865.578</ele><time>2012-05-14T03:17:18Z</time></trkpt><trkpt lat="42.199985" lon="1.599656"><ele>1862.792</ele><time>2012-05-14T03:17:58Z</time></trkpt><trkpt lat="42.199958" lon="1.599596"><ele>1859.939</ele><time>2012-05-14T03:18:38Z</time></trkpt><trkpt lat="42.199931" lon="1.599536"><ele>1857.340</ele><time>2012-05-14T03:19:18Z</time></trkpt><trkpt lat="42.199904" lon="1.599476"><ele>1854.780</ele><time>2012-05-14T03:19:58Z</time></trkpt><trkpt lat="42.199877" lon="1.599416"><ele>1852.385</ele><time>2012-05-14T03:20:38Z</time></trkpt><trkpt lat="42.199887" lon="1.599375"><ele>1852.280</ele><time>2012-05-14T03:21:18Z</time></trkpt><trkpt lat="42.199901" lon="1.599315"><ele>1851.892</ele><time>2012-05-14T03:21:58Z</time></trkpt><trkpt lat="42.199916" lon="1.599254"><ele>1851.573</ele><time>2012-05-14T03:22:38Z</time></trkpt><trkpt lat="42.199930" lon="1.599193"><ele>1851.220</ele><time>2012-05-14T03:23:18Z</time></trkpt><trkpt lat="42.199945" lon="1.599132"><ele>1850.907</ele><time>2012-05-14T03:23:58Z</time></trkpt><trkpt lat="42.199959" lon="1.599071"><ele>1850.731</ele><time>2012-05-14T03:24:38Z</time></trkpt><trkpt lat="42.199974" lon="1.599010"><ele>1850.565</ele><time>2012-05-14T03:25:18Z</time></trkpt><trkpt lat="42.199989" lon="1.598949"><ele>1850.372</ele><time>2012-05-14T03:25:58Z</time></trkpt><trkpt lat="42.199988" lon="1.598907"><ele>1849.713</ele><time>2012-05-14T03:26:38Z</time></trkpt><trkpt lat="42.199987" lon="1.598846"><ele>1849.263</ele><time>2012-05-14T03:27:18Z</time></trkpt><trkpt lat="42.199987" lon="1.598785"><ele>1849.088</ele><time>2012-05-14T03:27:58Z</time></trkpt><trkpt lat="42.199986" lon="1.598725"><ele>1848.733</ele><time>2012-05-14T03:28:38Z</time></trkpt><trkpt lat="42.199985" lon="1.598664"><ele>1848.598</ele><time>2012-05-14T03:29:18Z</time></trkpt><trkpt lat="42.199984" lon="1.598604"><ele>1848.315</ele><time>2012-05-14T03:29:58Z</time></trkpt><trkpt lat="42.199988" lon="1.598550"><ele>1848.926</ele><time>2012-05-14T03:30:38Z</time></trkpt><trkpt lat="42.199992" lon="1.598489"><ele>1849.507</ele><time>2012-05-14T03:31:18Z</time></trkpt><trkpt lat="42.199997" lon="1.598429"><ele>1850.241</ele><time>2012-05-14T03:31:58Z</time></trkpt><trkpt lat="42.200001" lon="1.598368"><ele>1850.855</ele><time>2012-05-14T03:32:38Z</time></trkpt><trkpt lat="42.200005" lon="1.598307"><ele>1851.492</ele><time>2012-05-14T03:33:18Z</time></trkpt><trkpt lat="42.200014" lon="1.598231"><ele>1852.613</ele><time>2012-05-14T03:33:58Z</time></trkpt><trkpt lat="42.200020" lon="1.598170"><ele>1853.623</ele><time>2012-05-14T03:34:38Z</time></trkpt><trkpt lat="42.200027" lon="1.598109"><ele>1854.538</ele><time>2012-05-14T03:35:18Z</time></trkpt><trkpt lat="42.200038" lon="1.598043"><ele>1855.643</ele><time>2012-05-14T03:35:58Z</time></trkpt><trkpt lat="42.200012" lon="1.597967"><ele>1856.492</ele><time>2012-05-14T03:36:38Z</time></trkpt><trkpt lat="42.199991" lon="1.597906"><ele>1856.773</ele><time>2012-05-14T03:37:18Z</time></trkpt><trkpt lat="42.199970" lon="1.597846"><ele>1856.520</ele><time>2012-05-14T03:37:58Z</time></trkpt><trkpt lat="42.199950" lon="1.597786"><ele>1856.407</ele><time>2012-05-14T03:38:38Z</time></trkpt><trkpt lat="42.199929" lon="1.597726"><ele>1856.241</ele><time>2012-05-14T03:39:18Z</time></trkpt><trkpt lat="42.199908" lon="1.597666"><ele>1856.145</ele><time>2012-05-14T03:39:58Z</time></trkpt><trkpt lat="42.199887" lon="1.597606"><ele>1856.062</ele><time>2012-05-14T03:40:38Z</time></trkpt><trkpt lat="42.199866" lon="1.597546"><ele>1856.073</ele><time>2012-05-14T03:41:18Z</time></trkpt><trkpt lat="42.199846" lon="1.597486"><ele>1856.093</ele><time>2012-05-14T03:41:58Z</time></trkpt><trkpt lat="42.199825" lon="1.597426"><ele>1855.848</ele><time>2012-05-14T03:42:38Z</time></trkpt><trkpt lat="42.199804" lon="1.597366"><ele>1855.663</ele><time>2012-05-14T03:43:18Z</time></trkpt><trkpt lat="42.199783" lon="1.597305"><ele>1855.528</ele><time>2012-05-14T03:43:58Z</time></trkpt><trkpt lat="42.199762" lon="1.597245"><ele>1855.489</ele><time>2012-05-14T03:44:38Z</time></trkpt><trkpt lat="42.199742" lon="1.597185"><ele>1854.917</ele><time>2012-05-14T03:45:18Z</time></trkpt><trkpt lat="42.199721" lon="1.597125"><ele>1853.907</ele><time>2012-05-14T03:45:58Z</time></trkpt><trkpt lat="42.199700" lon="1.597065"><ele>1852.874</ele><time>2012-05-14T03:46:38Z</time></trkpt><trkpt lat="42.199679" lon="1.597005"><ele>1851.888</ele><time>2012-05-14T03:47:18Z</time></trkpt><trkpt lat="42.199658" lon="1.596945"><ele>1850.875</ele><time>2012-05-14T03:47:58Z</time></trkpt><trkpt lat="42.199638" lon="1.596885"><ele>1851.046</ele><time>2012-05-14T03:48:38Z</time></trkpt><trkpt lat="42.199617" lon="1.596825"><ele>1851.376</ele><time>2012-05-14T03:49:18Z</time></trkpt><trkpt lat="42.199596" lon="1.596765"><ele>1851.541</ele><time>2012-05-14T03:49:58Z</time></trkpt><trkpt lat="42.199575" lon="1.596704"><ele>1851.886</ele><time>2012-05-14T03:50:38Z</time></trkpt><trkpt lat="42.199554" lon="1.596644"><ele>1851.422</ele><time>2012-05-14T03:51:18Z</time></trkpt><trkpt lat="42.199533" lon="1.596584"><ele>1849.862</ele><time>2012-05-14T03:51:58Z</time></trkpt><trkpt lat="42.199513" lon="1.596524"><ele>1848.208</ele><time>2012-05-14T03:52:38Z</time></trkpt><trkpt lat="42.199492" lon="1.596464"><ele>1846.207</ele><time>2012-05-14T03:53:18Z</time></trkpt><trkpt lat="42.199471" lon="1.596404"><ele>1844.124</ele><time>2012-05-14T03:53:58Z</time></trkpt><trkpt lat="42.199450" lon="1.596344"><ele>1842.278</ele><time>2012-05-14T03:54:38Z</time></trkpt><trkpt lat="42.199429" lon="1.596284"><ele>1840.915</ele><time>2012-05-14T03:55:18Z</time></trkpt><trkpt lat="42.199409" lon="1.596224"><ele>1839.886</ele><time>2012-05-14T03:55:58Z</time></trkpt><trkpt lat="42.199388" lon="1.596164"><ele>1838.986</ele><time>2012-05-14T03:56:38Z</time></trkpt><trkpt lat="42.199367" lon="1.596103"><ele>1838.361</ele><time>2012-05-14T03:57:18Z</time></trkpt><trkpt lat="42.199346" lon="1.596043"><ele>1838.046</ele><time>2012-05-14T03:57:58Z</time></trkpt><trkpt lat="42.199325" lon="1.595983"><ele>1837.844</ele><time>2012-05-14T03:58:38Z</time></trkpt><trkpt lat="42.199305" lon="1.595923"><ele>1837.705</ele><time>2012-05-14T03:59:18Z</time></trkpt><trkpt lat="42.199284" lon="1.595863"><ele>1837.515</ele><time>2012-05-14T03:59:58Z</time></trkpt><trkpt lat="42.199263" lon="1.595803"><ele>1837.607</ele><time>2012-05-14T04:00:38Z</time></trkpt><trkpt lat="42.199242" lon="1.595743"><ele>1838.056</ele><time>2012-05-14T04:01:18Z</time></trkpt><trkpt lat="42.199221" lon="1.595683"><ele>1838.640</ele><time>2012-05-14T04:01:58Z</time></trkpt><trkpt lat="42.199200" lon="1.595623"><ele>1839.337</ele><time>2012-05-14T04:02:38Z</time></trkpt><trkpt lat="42.199141" lon="1.595600"><ele>1838.878</ele><time>2012-05-14T04:03:18Z</time></trkpt><trkpt lat="42.199096" lon="1.595583"><ele>1838.728</ele><time>2012-05-14T04:03:58Z</time></trkpt><trkpt lat="42.199051" lon="1.595566"><ele>1838.583</ele><time>2012-05-14T04:04:38Z</time></trkpt><trkpt lat="42.199005" lon="1.595548"><ele>1838.448</ele><time>2012-05-14T04:05:18Z</time></trkpt><trkpt lat="42.198960" lon="1.595531"><ele>1838.315</ele><time>2012-05-14T04:05:58Z</time></trkpt><trkpt lat="42.198915" lon="1.595514"><ele>1838.365</ele><time>2012-05-14T04:06:38Z</time></trkpt><trkpt lat="42.198870" lon="1.595496"><ele>1838.511</ele><time>2012-05-14T04:07:18Z</time></trkpt><trkpt lat="42.198824" lon="1.595479"><ele>1838.907</ele><time>2012-05-14T04:07:58Z</time></trkpt><trkpt lat="42.198779" lon="1.595462"><ele>1839.473</ele><time>2012-05-14T04:08:38Z</time></trkpt><trkpt lat="42.198734" lon="1.595445"><ele>1839.857</ele><time>2012-05-14T04:09:18Z</time></trkpt><trkpt lat="42.198689" lon="1.595427"><ele>1840.264</ele><time>2012-05-14T04:09:58Z</time></trkpt><trkpt lat="42.198644" lon="1.595410"><ele>1840.715</ele><time>2012-05-14T04:10:38Z</time></trkpt><trkpt lat="42.198598" lon="1.595393"><ele>1841.185</ele><time>2012-05-14T04:11:18Z</time></trkpt><trkpt lat="42.198553" lon="1.595375"><ele>1841.650</ele><time>2012-05-14T04:11:58Z</time></trkpt><trkpt lat="42.198508" lon="1.595358"><ele>1842.045</ele><time>2012-05-14T04:12:38Z</time></trkpt><trkpt lat="42.198463" lon="1.595341"><ele>1842.415</ele><time>2012-05-14T04:13:18Z</time></trkpt><trkpt lat="42.198427" lon="1.595339"><ele>1842.565</ele><time>2012-05-14T04:13:58Z</time></trkpt><trkpt lat="42.198382" lon="1.595337"><ele>1842.511</ele><time>2012-05-14T04:14:38Z</time></trkpt><trkpt lat="42.198337" lon="1.595335"><ele>1842.607</ele><time>2012-05-14T04:15:18Z</time></trkpt><trkpt lat="42.198292" lon="1.595332"><ele>1842.613</ele><time>2012-05-14T04:15:58Z</time></trkpt><trkpt lat="42.198247" lon="1.595330"><ele>1842.617</ele><time>2012-05-14T04:16:38Z</time></trkpt><trkpt lat="42.198202" lon="1.595327"><ele>1842.754</ele><time>2012-05-14T04:17:18Z</time></trkpt><trkpt lat="42.198157" lon="1.595325"><ele>1842.735</ele><time>2012-05-14T04:17:58Z</time></trkpt><trkpt lat="42.198112" lon="1.595323"><ele>1842.755</ele><time>2012-05-14T04:18:38Z</time></trkpt><trkpt lat="42.198067" lon="1.595320"><ele>1842.870</ele><time>2012-05-14T04:19:18Z</time></trkpt><trkpt lat="42.198021" lon="1.595318"><ele>1842.945</ele><time>2012-05-14T04:19:58Z</time></trkpt><trkpt lat="42.197977" lon="1.595316"><ele>1843.188</ele><time>2012-05-14T04:20:38Z</time></trkpt><trkpt lat="42.197931" lon="1.595313"><ele>1843.424</ele><time>2012-05-14T04:21:18Z</time></trkpt><trkpt lat="42.197886" lon="1.595311"><ele>1843.626</ele><time>2012-05-14T04:21:58Z</time></trkpt><trkpt lat="42.197841" lon="1.595309"><ele>1843.807</ele><time>2012-05-14T04:22:38Z</time></trkpt><trkpt lat="42.197796" lon="1.595307"><ele>1844.060</ele><time>2012-05-14T04:23:18Z</time></trkpt><trkpt lat="42.197751" lon="1.595304"><ele>1844.114</ele><time>2012-05-14T04:23:58Z</time></trkpt><trkpt lat="42.197706" lon="1.595302"><ele>1844.041</ele><time>2012-05-14T04:24:38Z</time></trkpt><trkpt lat="42.197661" lon="1.595299"><ele>1843.952</ele><time>2012-05-14T04:25:18Z</time></trkpt><trkpt lat="42.197616" lon="1.595297"><ele>1843.862</ele><time>2012-05-14T04:25:58Z</time></trkpt><trkpt lat="42.197571" lon="1.595295"><ele>1843.797</ele><time>2012-05-14T04:26:38Z</time></trkpt><trkpt lat="42.197526" lon="1.595292"><ele>1843.682</ele><time>2012-05-14T04:27:18Z</time></trkpt><trkpt lat="42.197481" lon="1.595290"><ele>1843.557</ele><time>2012-05-14T04:27:58Z</time></trkpt><trkpt lat="42.197436" lon="1.595288"><ele>1843.200</ele><time>2012-05-14T04:28:38Z</time></trkpt><trkpt lat="42.197391" lon="1.595286"><ele>1842.920</ele><time>2012-05-14T04:29:18Z</time></trkpt><trkpt lat="42.197346" lon="1.595283"><ele>1842.707</ele><time>2012-05-14T04:29:58Z</time></trkpt><trkpt lat="42.197301" lon="1.595281"><ele>1842.577</ele><time>2012-05-14T04:30:38Z</time></trkpt><trkpt lat="42.197256" lon="1.595279"><ele>1842.211</ele><time>2012-05-14T04:31:18Z</time></trkpt><trkpt lat="42.197210" lon="1.595276"><ele>1841.868</ele><time>2012-05-14T04:31:58Z</time></trkpt><trkpt lat="42.197166" lon="1.595274"><ele>1841.199</ele><time>2012-05-14T04:32:38Z</time></trkpt><trkpt lat="42.197120" lon="1.595272"><ele>1840.499</ele><time>2012-05-14T04:33:18Z</time></trkpt><trkpt lat="42.197075" lon="1.595269"><ele>1839.614</ele><time>2012-05-14T04:33:58Z</time></trkpt><trkpt lat="42.197009" lon="1.595273"><ele>1838.859</ele><time>2012-05-14T04:34:38Z</time></trkpt><trkpt lat="42.196964" lon="1.595275"><ele>1838.283</ele><time>2012-05-14T04:35:18Z</time></trkpt><trkpt lat="42.196919" lon="1.595277"><ele>1837.725</ele><time>2012-05-14T04:35:58Z</time></trkpt><trkpt lat="42.196874" lon="1.595280"><ele>1837.217</ele><time>2012-05-14T04:36:38Z</time></trkpt><trkpt lat="42.196829" lon="1.595282"><ele>1836.707</ele><time>2012-05-14T04:37:18Z</time></trkpt><trkpt lat="42.196784" lon="1.595284"><ele>1836.130</ele><time>2012-05-14T04:37:58Z</time></trkpt><trkpt lat="42.196739" lon="1.595286"><ele>1835.614</ele><time>2012-05-14T04:38:38Z</time></trkpt><trkpt lat="42.196694" lon="1.595289"><ele>1835.121</ele><time>2012-05-14T04:39:18Z</time></trkpt><trkpt lat="42.196649" lon="1.595291"><ele>1834.652</ele><time>2012-05-14T04:39:58Z</time></trkpt><trkpt lat="42.196604" lon="1.595293"><ele>1834.142</ele><time>2012-05-14T04:40:38Z</time></trkpt><trkpt lat="42.196559" lon="1.595295"><ele>1833.647</ele><time>2012-05-14T04:41:18Z</time></trkpt><trkpt lat="42.196514" lon="1.595297"><ele>1833.042</ele><time>2012-05-14T04:41:58Z</time></trkpt><trkpt lat="42.196469" lon="1.595300"><ele>1832.524</ele><time>2012-05-14T04:42:38Z</time></trkpt><trkpt lat="42.196424" lon="1.595302"><ele>1832.004</ele><time>2012-05-14T04:43:18Z</time></trkpt><trkpt lat="42.196379" lon="1.595304"><ele>1831.614</ele><time>2012-05-14T04:43:58Z</time></trkpt><trkpt lat="42.196334" lon="1.595307"><ele>1831.207</ele><time>2012-05-14T04:44:38Z</time></trkpt><trkpt lat="42.196289" lon="1.595309"><ele>1830.844</ele><time>2012-05-14T04:45:18Z</time></trkpt><trkpt lat="42.196244" lon="1.595311"><ele>1830.598</ele><time>2012-05-14T04:45:58Z</time></trkpt><trkpt lat="42.196199" lon="1.595313"><ele>1830.155</ele><time>2012-05-14T04:46:38Z</time></trkpt><trkpt lat="42.196154" lon="1.595316"><ele>1829.866</ele><time>2012-05-14T04:47:18Z</time></trkpt><trkpt lat="42.196109" lon="1.595318"><ele>1829.496</ele><time>2012-05-14T04:47:58Z</time></trkpt><trkpt lat="42.196064" lon="1.595320"><ele>1828.911</ele><time>2012-05-14T04:48:38Z</time></trkpt><trkpt lat="42.196019" lon="1.595322"><ele>1828.446</ele><time>2012-05-14T04:49:18Z</time></trkpt><trkpt lat="42.195974" lon="1.595325"><ele>1827.896</ele><time>2012-05-14T04:49:58Z</time></trkpt><trkpt lat="42.195929" lon="1.595327"><ele>1827.331</ele><time>2012-05-14T04:50:38Z</time></trkpt><trkpt lat="42.195884" lon="1.595329"><ele>1826.824</ele><time>2012-05-14T04:51:18Z</time></trkpt><trkpt lat="42.195839" lon="1.595331"><ele>1826.307</ele><time>2012-05-14T04:51:58Z</time></trkpt><trkpt lat="42.195794" lon="1.595334"><ele>1825.841</ele><time>2012-05-14T04:52:38Z</time></trkpt><trkpt lat="42.195749" lon="1.595336"><ele>1825.485</ele><time>2012-05-14T04:53:18Z</time></trkpt><trkpt lat="42.195704" lon="1.595338"><ele>1824.922</ele><time>2012-05-14T04:53:58Z</time></trkpt><trkpt lat="42.195659" lon="1.595340"><ele>1824.563</ele><time>2012-05-14T04:54:38Z</time></trkpt><trkpt lat="42.195614" lon="1.595343"><ele>1824.123</ele><time>2012-05-14T04:55:18Z</time></trkpt><trkpt lat="42.195591" lon="1.595277"><ele>1824.488</ele><time>2012-05-14T04:55:58Z</time></trkpt><trkpt lat="42.195570" lon="1.595217"><ele>1824.133</ele><time>2012-05-14T04:56:38Z</time></trkpt><trkpt lat="42.195549" lon="1.595157"><ele>1823.942</ele><time>2012-05-14T04:57:18Z</time></trkpt><trkpt lat="42.195529" lon="1.595097"><ele>1823.822</ele><time>2012-05-14T04:57:58Z</time></trkpt><trkpt lat="42.195508" lon="1.595037"><ele>1823.614</ele><time>2012-05-14T04:58:38Z</time></trkpt><trkpt lat="42.195487" lon="1.594977"><ele>1823.307</ele><time>2012-05-14T04:59:18Z</time></trkpt><trkpt lat="42.195527" lon="1.594961"><ele>1823.426</ele><time>2012-05-14T04:59:58Z</time></trkpt><trkpt lat="42.195572" lon="1.594944"><ele>1823.490</ele><time>2012-05-14T05:00:38Z</time></trkpt><trkpt lat="42.195617" lon="1.594926"><ele>1823.347</ele><time>2012-05-14T05:01:18Z</time></trkpt><trkpt lat="42.195661" lon="1.594909"><ele>1823.148</ele><time>2012-05-14T05:01:58Z</time></trkpt><trkpt lat="42.195706" lon="1.594891"><ele>1823.078</ele><time>2012-05-14T05:02:38Z</time></trkpt><trkpt lat="42.195751" lon="1.594874"><ele>1823.073</ele><time>2012-05-14T05:03:18Z</time></trkpt><trkpt lat="42.195796" lon="1.594856"><ele>1822.968</ele><time>2012-05-14T05:03:58Z</time></trkpt><trkpt lat="42.195841" lon="1.594839"><ele>1822.984</ele><time>2012-05-14T05:04:38Z</time></trkpt><trkpt lat="42.195886" lon="1.594821"><ele>1822.807</ele><time>2012-05-14T05:05:18Z</time></trkpt><trkpt lat="42.195930" lon="1.594804"><ele>1822.717</ele><time>2012-05-14T05:05:58Z</time></trkpt><trkpt lat="42.195975" lon="1.594786"><ele>1822.607</ele><time>2012-05-14T05:06:38Z</time></trkpt><trkpt lat="42.196020" lon="1.594769"><ele>1822.460</ele><time>2012-05-14T05:07:18Z</time></trkpt><trkpt lat="42.196065" lon="1.594751"><ele>1822.394</ele><time>2012-05-14T05:07:58Z</time></trkpt><trkpt lat="42.196110" lon="1.594734"><ele>1822.151</ele><time>2012-05-14T05:08:38Z</time></trkpt><trkpt lat="42.196154" lon="1.594716"><ele>1821.362</ele><time>2012-05-14T05:09:18Z</time></trkpt><trkpt lat="42.196210" lon="1.594716"><ele>1820.522</ele><time>2012-05-14T05:09:58Z</time></trkpt><trkpt lat="42.196255" lon="1.594717"><ele>1819.857</ele><time>2012-05-14T05:10:38Z</time></trkpt><trkpt lat="42.196300" lon="1.594717"><ele>1819.292</ele><time>2012-05-14T05:11:18Z</time></trkpt><trkpt lat="42.196345" lon="1.594718"><ele>1818.634</ele><time>2012-05-14T05:11:58Z</time></trkpt><trkpt lat="42.196390" lon="1.594718"><ele>1817.955</ele><time>2012-05-14T05:12:38Z</time></trkpt><trkpt lat="42.196435" lon="1.594718"><ele>1817.910</ele><time>2012-05-14T05:13:18Z</time></trkpt><trkpt lat="42.196480" lon="1.594719"><ele>1817.907</ele><time>2012-05-14T05:13:58Z</time></trkpt><trkpt lat="42.196525" lon="1.594719"><ele>1817.925</ele><time>2012-05-14T05:14:38Z</time></trkpt><trkpt lat="42.196570" lon="1.594719"><ele>1817.979</ele><time>2012-05-14T05:15:18Z</time></trkpt><trkpt lat="42.196615" lon="1.594720"><ele>1817.916</ele><time>2012-05-14T05:15:58Z</time></trkpt><trkpt lat="42.196660" lon="1.594720"><ele>1817.967</ele><time>2012-05-14T05:16:38Z</time></trkpt><trkpt lat="42.196705" lon="1.594720"><ele>1818.497</ele><time>2012-05-14T05:17:18Z</time></trkpt><trkpt lat="42.196750" lon="1.594721"><ele>1818.982</ele><time>2012-05-14T05:17:58Z</time></trkpt><trkpt lat="42.196795" lon="1.594721"><ele>1819.497</ele><time>2012-05-14T05:18:38Z</time></trkpt><trkpt lat="42.196840" lon="1.594721"><ele>1819.887</ele><time>2012-05-14T05:19:18Z</time></trkpt><trkpt lat="42.196867" lon="1.594709"><ele>1819.842</ele><time>2012-05-14T05:19:58Z</time></trkpt><trkpt lat="42.196912" lon="1.594689"><ele>1819.826</ele><time>2012-05-14T05:20:38Z</time></trkpt><trkpt lat="42.196957" lon="1.594670"><ele>1820.007</ele><time>2012-05-14T05:21:18Z</time></trkpt><trkpt lat="42.197002" lon="1.594650"><ele>1820.610</ele><time>2012-05-14T05:21:58Z</time></trkpt><trkpt lat="42.197046" lon="1.594630"><ele>1821.184</ele><time>2012-05-14T05:22:38Z</time></trkpt><trkpt lat="42.197091" lon="1.594611"><ele>1821.791</ele><time>2012-05-14T05:23:18Z</time></trkpt><trkpt lat="42.197136" lon="1.594591"><ele>1822.222</ele><time>2012-05-14T05:23:58Z</time></trkpt><trkpt lat="42.197181" lon="1.594571"><ele>1822.762</ele><time>2012-05-14T05:24:38Z</time></trkpt><trkpt lat="42.197226" lon="1.594551"><ele>1823.147</ele><time>2012-05-14T05:25:18Z</time></trkpt><trkpt lat="42.197270" lon="1.594532"><ele>1823.412</ele><time>2012-05-14T05:25:58Z</time></trkpt><trkpt lat="42.197315" lon="1.594512"><ele>1823.761</ele><time>2012-05-14T05:26:38Z</time></trkpt><trkpt lat="42.197360" lon="1.594492"><ele>1823.921</ele><time>2012-05-14T05:27:18Z</time></trkpt><trkpt lat="42.197405" lon="1.594473"><ele>1824.213</ele><time>2012-05-14T05:27:58Z</time></trkpt><trkpt lat="42.197450" lon="1.594453"><ele>1824.407</ele><time>2012-05-14T05:28:38Z</time></trkpt><trkpt lat="42.197494" lon="1.594433"><ele>1824.638</ele><time>2012-05-14T05:29:18Z</time></trkpt><trkpt lat="42.197539" lon="1.594413"><ele>1824.262</ele><time>2012-05-14T05:29:58Z</time></trkpt><trkpt lat="42.197584" lon="1.594394"><ele>1823.689</ele><time>2012-05-14T05:30:38Z</time></trkpt><trkpt lat="42.197629" lon="1.594374"><ele>1823.010</ele><time>2012-05-14T05:31:18Z</time></trkpt><trkpt lat="42.197674" lon="1.594354"><ele>1822.380</ele><time>2012-05-14T05:31:58Z</time></trkpt><trkpt lat="42.197731" lon="1.594345"><ele>1821.995</ele><time>2012-05-14T05:32:38Z</time></trkpt><trkpt lat="42.197776" lon="1.594338"><ele>1821.610</ele><time>2012-05-14T05:33:18Z</time></trkpt><trkpt lat="42.197821" lon="1.594330"><ele>1821.061</ele><time>2012-05-14T05:33:58Z</time></trkpt><trkpt lat="42.197866" lon="1.594323"><ele>1820.521</ele><time>2012-05-14T05:34:38Z</time></trkpt><trkpt lat="42.197911" lon="1.594315"><ele>1819.913</ele><time>2012-05-14T05:35:18Z</time></trkpt><trkpt lat="42.197956" lon="1.594308"><ele>1819.307</ele><time>2012-05-14T05:35:58Z</time></trkpt><trkpt lat="42.198001" lon="1.594301"><ele>1818.758</ele><time>2012-05-14T05:36:38Z</time></trkpt><trkpt lat="42.198046" lon="1.594293"><ele>1818.132</ele><time>2012-05-14T05:37:18Z</time></trkpt><trkpt lat="42.198091" lon="1.594286"><ele>1817.599</ele><time>2012-05-14T05:37:58Z</time></trkpt><trkpt lat="42.198136" lon="1.594279"><ele>1817.070</ele><time>2012-05-14T05:38:38Z</time></trkpt><trkpt lat="42.198181" lon="1.594271"><ele>1816.480</ele><time>2012-05-14T05:39:18Z</time></trkpt><trkpt lat="42.198226" lon="1.594264"><ele>1815.895</ele><time>2012-05-14T05:39:58Z</time></trkpt><trkpt lat="42.198271" lon="1.594256"><ele>1815.220</ele><time>2012-05-14T05:40:38Z</time></trkpt><trkpt lat="42.198315" lon="1.594249"><ele>1814.759</ele><time>2012-05-14T05:41:18Z</time></trkpt><trkpt lat="42.198360" lon="1.594242"><ele>1814.403</ele><time>2012-05-14T05:41:58Z</time></trkpt><trkpt lat="42.198405" lon="1.594234"><ele>1814.223</ele><time>2012-05-14T05:42:38Z</time></trkpt><trkpt lat="42.198450" lon="1.594227"><ele>1814.007</ele><time>2012-05-14T05:43:18Z</time></trkpt><trkpt lat="42.198495" lon="1.594220"><ele>1813.977</ele><time>2012-05-14T05:43:58Z</time></trkpt><trkpt lat="42.198540" lon="1.594212"><ele>1813.741</ele><time>2012-05-14T05:44:38Z</time></trkpt><trkpt lat="42.198565" lon="1.594185"><ele>1812.638</ele><time>2012-05-14T05:45:18Z</time></trkpt><trkpt lat="42.198609" lon="1.594134"><ele>1810.849</ele><time>2012-05-14T05:45:58Z</time></trkpt><trkpt lat="42.198653" lon="1.594084"><ele>1809.849</ele><time>2012-05-14T05:46:38Z</time></trkpt><trkpt lat="42.198698" lon="1.594034"><ele>1808.824</ele><time>2012-05-14T05:47:18Z</time></trkpt><trkpt lat="42.198742" lon="1.593984"><ele>1807.889</ele><time>2012-05-14T05:47:58Z</time></trkpt><trkpt lat="42.198787" lon="1.593933"><ele>1806.857</ele><time>2012-05-14T05:48:38Z</time></trkpt><trkpt lat="42.198831" lon="1.593883"><ele>1805.700</ele><time>2012-05-14T05:49:18Z</time></trkpt><trkpt lat="42.198875" lon="1.593833"><ele>1804.720</ele><time>2012-05-14T05:49:58Z</time></trkpt><trkpt lat="42.198920" lon="1.593783"><ele>1804.307</ele><time>2012-05-14T05:50:38Z</time></trkpt><trkpt lat="42.198964" lon="1.593732"><ele>1804.157</ele><time>2012-05-14T05:51:18Z</time></trkpt><trkpt lat="42.199009" lon="1.593682"><ele>1804.121</ele><time>2012-05-14T05:51:58Z</time></trkpt><trkpt lat="42.199053" lon="1.593632"><ele>1804.228</ele><time>2012-05-14T05:52:38Z</time></trkpt><trkpt lat="42.199098" lon="1.593581"><ele>1804.489</ele><time>2012-05-14T05:53:18Z</time></trkpt><trkpt lat="42.199142" lon="1.593531"><ele>1804.949</ele><time>2012-05-14T05:53:58Z</time></trkpt><trkpt lat="42.199186" lon="1.593481"><ele>1805.534</ele><time>2012-05-14T05:54:38Z</time></trkpt><trkpt lat="42.199200" lon="1.593447"><ele>1805.279</ele><time>2012-05-14T05:55:18Z</time></trkpt><trkpt lat="42.199224" lon="1.593386"><ele>1804.678</ele><time>2012-05-14T05:55:58Z</time></trkpt><trkpt lat="42.199249" lon="1.593325"><ele>1803.933</ele><time>2012-05-14T05:56:38Z</time></trkpt><trkpt lat="42.199273" lon="1.593264"><ele>1802.426</ele><time>2012-05-14T05:57:18Z</time></trkpt><trkpt lat="42.199297" lon="1.593203"><ele>1800.807</ele><time>2012-05-14T05:57:58Z</time></trkpt><trkpt lat="42.199322" lon="1.593142"><ele>1799.119</ele><time>2012-05-14T05:58:38Z</time></trkpt><trkpt lat="42.199346" lon="1.593081"><ele>1797.343</ele><time>2012-05-14T05:59:18Z</time></trkpt><trkpt lat="42.199370" lon="1.593020"><ele>1794.960</ele><time>2012-05-14T05:59:58Z</time></trkpt><trkpt lat="42.199395" lon="1.592959"><ele>1792.091</ele><time>2012-05-14T06:00:38Z</time></trkpt><trkpt lat="42.199419" lon="1.592897"><ele>1788.981</ele><time>2012-05-14T06:01:18Z</time></trkpt><trkpt lat="42.199444" lon="1.592836"><ele>1785.646</ele><time>2012-05-14T06:01:58Z</time></trkpt><trkpt lat="42.199468" lon="1.592775"><ele>1782.621</ele><time>2012-05-14T06:02:38Z</time></trkpt><trkpt lat="42.199492" lon="1.592714"><ele>1781.041</ele><time>2012-05-14T06:03:18Z</time></trkpt><trkpt lat="42.199517" lon="1.592653"><ele>1779.581</ele><time>2012-05-14T06:03:58Z</time></trkpt><trkpt lat="42.199541" lon="1.592592"><ele>1778.309</ele><time>2012-05-14T06:04:38Z</time></trkpt><trkpt lat="42.199545" lon="1.592597"><ele>1778.607</ele><time>2012-05-14T06:05:18Z</time></trkpt><trkpt lat="42.199581" lon="1.592535"><ele>1778.126</ele><time>2012-05-14T06:05:58Z</time></trkpt><trkpt lat="42.199616" lon="1.592474"><ele>1778.240</ele><time>2012-05-14T06:06:38Z</time></trkpt><trkpt lat="42.199621" lon="1.592432"><ele>1777.887</ele><time>2012-05-14T06:07:18Z</time></trkpt><trkpt lat="42.199629" lon="1.592371"><ele>1777.378</ele><time>2012-05-14T06:07:58Z</time></trkpt><trkpt lat="42.199637" lon="1.592310"><ele>1776.858</ele><time>2012-05-14T06:08:38Z</time></trkpt><trkpt lat="42.199645" lon="1.592249"><ele>1776.293</ele><time>2012-05-14T06:09:18Z</time></trkpt><trkpt lat="42.199652" lon="1.592189"><ele>1776.118</ele><time>2012-05-14T06:09:58Z</time></trkpt><trkpt lat="42.199660" lon="1.592128"><ele>1776.392</ele><time>2012-05-14T06:10:38Z</time></trkpt><trkpt lat="42.199668" lon="1.592067"><ele>1776.573</ele><time>2012-05-14T06:11:18Z</time></trkpt><trkpt lat="42.199663" lon="1.592005"><ele>1776.120</ele><time>2012-05-14T06:11:58Z</time></trkpt><trkpt lat="42.199658" lon="1.591945"><ele>1775.707</ele><time>2012-05-14T06:12:38Z</time></trkpt><trkpt lat="42.199654" lon="1.591884"><ele>1774.271</ele><time>2012-05-14T06:13:18Z</time></trkpt><trkpt lat="42.199649" lon="1.591824"><ele>1772.865</ele><time>2012-05-14T06:13:58Z</time></trkpt><trkpt lat="42.199645" lon="1.591763"><ele>1771.462</ele><time>2012-05-14T06:14:38Z</time></trkpt><trkpt lat="42.199655" lon="1.591711"><ele>1770.523</ele><time>2012-05-14T06:15:18Z</time></trkpt><trkpt lat="42.199668" lon="1.591650"><ele>1769.283</ele><time>2012-05-14T06:15:58Z</time></trkpt><trkpt lat="42.199680" lon="1.591589"><ele>1767.188</ele><time>2012-05-14T06:16:38Z</time></trkpt><trkpt lat="42.199692" lon="1.591528"><ele>1765.123</ele><time>2012-05-14T06:17:18Z</time></trkpt><trkpt lat="42.199704" lon="1.591467"><ele>1763.274</ele><time>2012-05-14T06:17:58Z</time></trkpt><trkpt lat="42.199716" lon="1.591407"><ele>1761.456</ele><time>2012-05-14T06:18:38Z</time></trkpt><trkpt lat="42.199775" lon="1.591318"><ele>1759.021</ele><time>2012-05-14T06:19:18Z</time></trkpt><trkpt lat="42.199816" lon="1.591256"><ele>1757.407</ele><time>2012-05-14T06:19:58Z</time></trkpt><trkpt lat="42.199857" lon="1.591195"><ele>1756.119</ele><time>2012-05-14T06:20:38Z</time></trkpt><trkpt lat="42.199898" lon="1.591133"><ele>1754.943</ele><time>2012-05-14T06:21:18Z</time></trkpt><trkpt lat="42.199938" lon="1.591072"><ele>1755.620</ele><time>2012-05-14T06:21:58Z</time></trkpt><trkpt lat="42.199898" lon="1.591007"><ele>1754.681</ele><time>2012-05-14T06:22:38Z</time></trkpt><trkpt lat="42.199861" lon="1.590947"><ele>1753.381</ele><time>2012-05-14T06:23:18Z</time></trkpt><trkpt lat="42.199859" lon="1.590899"><ele>1753.316</ele><time>2012-05-14T06:23:58Z</time></trkpt><trkpt lat="42.199856" lon="1.590838"><ele>1753.281</ele><time>2012-05-14T06:24:38Z</time></trkpt><trkpt lat="42.199853" lon="1.590778"><ele>1754.191</ele><time>2012-05-14T06:25:18Z</time></trkpt><trkpt lat="42.199850" lon="1.590717"><ele>1755.081</ele><time>2012-05-14T06:25:58Z</time></trkpt><trkpt lat="42.199847" lon="1.590657"><ele>1755.919</ele><time>2012-05-14T06:26:38Z</time></trkpt><trkpt lat="42.199845" lon="1.590596"><ele>1756.907</ele><time>2012-05-14T06:27:18Z</time></trkpt><trkpt lat="42.199842" lon="1.590536"><ele>1757.661</ele><time>2012-05-14T06:27:58Z</time></trkpt><trkpt lat="42.199839" lon="1.590475"><ele>1757.885</ele><time>2012-05-14T06:28:38Z</time></trkpt><trkpt lat="42.199836" lon="1.590415"><ele>1757.962</ele><time>2012-05-14T06:29:18Z</time></trkpt><trkpt lat="42.199858" lon="1.590377"><ele>1759.323</ele><time>2012-05-14T06:29:58Z</time></trkpt><trkpt lat="42.199894" lon="1.590316"><ele>1761.523</ele><time>2012-05-14T06:30:38Z</time></trkpt><trkpt lat="42.199930" lon="1.590255"><ele>1763.268</ele><time>2012-05-14T06:31:18Z</time></trkpt><trkpt lat="42.199966" lon="1.590193"><ele>1764.363</ele><time>2012-05-14T06:31:58Z</time></trkpt><trkpt lat="42.200002" lon="1.590132"><ele>1765.552</ele><time>2012-05-14T06:32:38Z</time></trkpt><trkpt lat="42.200008" lon="1.590057"><ele>1765.153</ele><time>2012-05-14T06:33:18Z</time></trkpt><trkpt lat="42.200012" lon="1.589996"><ele>1764.608</ele><time>2012-05-14T06:33:58Z</time></trkpt><trkpt lat="42.200017" lon="1.589936"><ele>1763.907</ele><time>2012-05-14T06:34:38Z</time></trkpt><trkpt lat="42.200021" lon="1.589875"><ele>1763.177</ele><time>2012-05-14T06:35:18Z</time></trkpt><trkpt lat="42.200026" lon="1.589814"><ele>1762.331</ele><time>2012-05-14T06:35:58Z</time></trkpt><trkpt lat="42.200031" lon="1.589754"><ele>1761.718</ele><time>2012-05-14T06:36:38Z</time></trkpt><trkpt lat="42.200035" lon="1.589693"><ele>1761.479</ele><time>2012-05-14T06:37:18Z</time></trkpt><trkpt lat="42.200040" lon="1.589632"><ele>1761.669</ele><time>2012-05-14T06:37:58Z</time></trkpt><trkpt lat="42.200044" lon="1.589572"><ele>1761.884</ele><time>2012-05-14T06:38:38Z</time></trkpt><trkpt lat="42.200049" lon="1.589511"><ele>1762.179</ele><time>2012-05-14T06:39:18Z</time></trkpt><trkpt lat="42.200053" lon="1.589450"><ele>1762.326</ele><time>2012-05-14T06:39:58Z</time></trkpt><trkpt lat="42.200058" lon="1.589390"><ele>1762.647</ele><time>2012-05-14T06:40:38Z</time></trkpt><trkpt lat="42.200062" lon="1.589329"><ele>1762.911</ele><time>2012-05-14T06:41:18Z</time></trkpt><trkpt lat="42.200067" lon="1.589268"><ele>1763.307</ele><time>2012-05-14T06:41:58Z</time></trkpt><trkpt lat="42.200072" lon="1.589199"><ele>1763.674</ele><time>2012-05-14T06:42:38Z</time></trkpt><trkpt lat="42.200075" lon="1.589138"><ele>1763.758</ele><time>2012-05-14T06:43:18Z</time></trkpt><trkpt lat="42.200079" lon="1.589077"><ele>1763.775</ele><time>2012-05-14T06:43:58Z</time></trkpt><trkpt lat="42.200083" lon="1.589017"><ele>1763.766</ele><time>2012-05-14T06:44:38Z</time></trkpt><trkpt lat="42.200087" lon="1.588956"><ele>1763.616</ele><time>2012-05-14T06:45:18Z</time></trkpt><trkpt lat="42.200091" lon="1.588895"><ele>1763.671</ele><time>2012-05-14T06:45:58Z</time></trkpt><trkpt lat="42.200095" lon="1.588835"><ele>1763.076</ele><time>2012-05-14T06:46:38Z</time></trkpt><trkpt lat="42.200099" lon="1.588774"><ele>1762.424</ele><time>2012-05-14T06:47:18Z</time></trkpt><trkpt lat="42.200103" lon="1.588713"><ele>1761.704</ele><time>2012-05-14T06:47:58Z</time></trkpt><trkpt lat="42.200107" lon="1.588653"><ele>1761.014</ele><time>2012-05-14T06:48:38Z</time></trkpt><trkpt lat="42.200111" lon="1.588592"><ele>1760.107</ele><time>2012-05-14T06:49:18Z</time></trkpt><trkpt lat="42.200114" lon="1.588531"><ele>1758.534</ele><time>2012-05-14T06:49:58Z</time></trkpt><trkpt lat="42.200171" lon="1.588458"><ele>1759.138</ele><time>2012-05-14T06:50:38Z</time></trkpt><trkpt lat="42.200216" lon="1.588400"><ele>1759.435</ele><time>2012-05-14T06:51:18Z</time></trkpt><trkpt lat="42.200260" lon="1.588343"><ele>1759.546</ele><time>2012-05-14T06:51:58Z</time></trkpt><trkpt lat="42.200304" lon="1.588285"><ele>1758.526</ele><time>2012-05-14T06:52:38Z</time></trkpt><trkpt lat="42.200349" lon="1.588228"><ele>1757.461</ele><time>2012-05-14T06:53:18Z</time></trkpt><trkpt lat="42.200393" lon="1.588170"><ele>1756.476</ele><time>2012-05-14T06:53:58Z</time></trkpt><trkpt lat="42.200420" lon="1.588166"><ele>1757.118</ele><time>2012-05-14T06:54:38Z</time></trkpt><trkpt lat="42.200465" lon="1.588160"><ele>1758.298</ele><time>2012-05-14T06:55:18Z</time></trkpt><trkpt lat="42.200510" lon="1.588153"><ele>1759.417</ele><time>2012-05-14T06:55:58Z</time></trkpt><trkpt lat="42.200555" lon="1.588147"><ele>1760.607</ele><time>2012-05-14T06:56:38Z</time></trkpt><trkpt lat="42.200600" lon="1.588140"><ele>1762.723</ele><time>2012-05-14T06:57:18Z</time></trkpt><trkpt lat="42.200603" lon="1.588062"><ele>1760.987</ele><time>2012-05-14T06:57:58Z</time></trkpt><trkpt lat="42.200605" lon="1.588002"><ele>1760.544</ele><time>2012-05-14T06:58:38Z</time></trkpt><trkpt lat="42.200607" lon="1.587941"><ele>1760.195</ele><time>2012-05-14T06:59:18Z</time></trkpt><trkpt lat="42.200610" lon="1.587881"><ele>1759.995</ele><time>2012-05-14T06:59:58Z</time></trkpt><trkpt lat="42.200612" lon="1.587820"><ele>1759.640</ele><time>2012-05-14T07:00:38Z</time></trkpt><trkpt lat="42.200614" lon="1.587759"><ele>1759.315</ele><time>2012-05-14T07:01:18Z</time></trkpt><trkpt lat="42.200598" lon="1.587682"><ele>1758.124</ele><time>2012-05-14T07:01:58Z</time></trkpt><trkpt lat="42.200585" lon="1.587622"><ele>1757.104</ele><time>2012-05-14T07:02:38Z</time></trkpt><trkpt lat="42.200572" lon="1.587561"><ele>1756.214</ele><time>2012-05-14T07:03:18Z</time></trkpt><trkpt lat="42.200560" lon="1.587501"><ele>1755.307</ele><time>2012-05-14T07:03:58Z</time></trkpt><trkpt lat="42.200547" lon="1.587441"><ele>1754.654</ele><time>2012-05-14T07:04:38Z</time></trkpt><trkpt lat="42.200534" lon="1.587381"><ele>1754.088</ele><time>2012-05-14T07:05:18Z</time></trkpt><trkpt lat="42.200524" lon="1.587348"><ele>1753.525</ele><time>2012-05-14T07:05:58Z</time></trkpt><trkpt lat="42.200506" lon="1.587288"><ele>1752.596</ele><time>2012-05-14T07:06:38Z</time></trkpt><trkpt lat="42.200488" lon="1.587228"><ele>1751.626</ele><time>2012-05-14T07:07:18Z</time></trkpt><trkpt lat="42.200469" lon="1.587168"><ele>1750.591</ele><time>2012-05-14T07:07:58Z</time></trkpt><trkpt lat="42.200451" lon="1.587108"><ele>1749.586</ele><time>2012-05-14T07:08:38Z</time></trkpt><trkpt lat="42.200433" lon="1.587047"><ele>1748.672</ele><time>2012-05-14T07:09:18Z</time></trkpt><trkpt lat="42.200415" lon="1.586987"><ele>1747.713</ele><time>2012-05-14T07:09:58Z</time></trkpt><trkpt lat="42.200397" lon="1.586927"><ele>1746.814</ele><time>2012-05-14T07:10:38Z</time></trkpt><trkpt lat="42.200388" lon="1.586854"><ele>1746.007</ele><time>2012-05-14T07:11:18Z</time></trkpt><trkpt lat="42.200381" lon="1.586793"><ele>1745.449</ele><time>2012-05-14T07:11:58Z</time></trkpt><trkpt lat="42.200374" lon="1.586733"><ele>1744.873</ele><time>2012-05-14T07:12:38Z</time></trkpt><trkpt lat="42.200368" lon="1.586673"><ele>1744.290</ele><time>2012-05-14T07:13:18Z</time></trkpt><trkpt lat="42.200361" lon="1.586612"><ele>1743.331</ele><time>2012-05-14T07:13:58Z</time></trkpt><trkpt lat="42.200354" lon="1.586552"><ele>1742.341</ele><time>2012-05-14T07:14:38Z</time></trkpt><trkpt lat="42.200347" lon="1.586491"><ele>1741.466</ele><time>2012-05-14T07:15:18Z</time></trkpt><trkpt lat="42.200340" lon="1.586431"><ele>1740.541</ele><time>2012-05-14T07:15:58Z</time></trkpt><trkpt lat="42.200333" lon="1.586371"><ele>1739.671</ele><time>2012-05-14T07:16:38Z</time></trkpt><trkpt lat="42.200334" lon="1.586337"><ele>1739.441</ele><time>2012-05-14T07:17:18Z</time></trkpt><trkpt lat="42.200334" lon="1.586276"><ele>1738.915</ele><time>2012-05-14T07:17:58Z</time></trkpt><trkpt lat="42.200335" lon="1.586216"><ele>1738.407</ele><time>2012-05-14T07:18:38Z</time></trkpt><trkpt lat="42.200336" lon="1.586155"><ele>1737.959</ele><time>2012-05-14T07:19:18Z</time></trkpt><trkpt lat="42.200337" lon="1.586095"><ele>1737.443</ele><time>2012-05-14T07:19:58Z</time></trkpt><trkpt lat="42.200338" lon="1.586034"><ele>1736.990</ele><time>2012-05-14T07:20:38Z</time></trkpt><trkpt lat="42.200339" lon="1.585973"><ele>1736.481</ele><time>2012-05-14T07:21:18Z</time></trkpt><trkpt lat="42.200340" lon="1.585913"><ele>1735.971</ele><time>2012-05-14T07:21:58Z</time></trkpt><trkpt lat="42.200340" lon="1.585852"><ele>1735.466</ele><time>2012-05-14T07:22:38Z</time></trkpt><trkpt lat="42.200341" lon="1.585792"><ele>1734.881</ele><time>2012-05-14T07:23:18Z</time></trkpt><trkpt lat="42.200358" lon="1.585704"><ele>1734.492</ele><time>2012-05-14T07:23:58Z</time></trkpt><trkpt lat="42.200369" lon="1.585643"><ele>1734.073</ele><time>2012-05-14T07:24:38Z</time></trkpt><trkpt lat="42.200381" lon="1.585582"><ele>1733.720</ele><time>2012-05-14T07:25:18Z</time></trkpt><trkpt lat="42.200392" lon="1.585521"><ele>1733.207</ele><time>2012-05-14T07:25:58Z</time></trkpt><trkpt lat="42.200404" lon="1.585461"><ele>1732.851</ele><time>2012-05-14T07:26:38Z</time></trkpt><trkpt lat="42.200416" lon="1.585400"><ele>1732.255</ele><time>2012-05-14T07:27:18Z</time></trkpt><trkpt lat="42.200427" lon="1.585339"><ele>1731.792</ele><time>2012-05-14T07:27:58Z</time></trkpt><trkpt lat="42.200443" lon="1.585294"><ele>1731.413</ele><time>2012-05-14T07:28:38Z</time></trkpt><trkpt lat="42.200465" lon="1.585233"><ele>1730.943</ele><time>2012-05-14T07:29:18Z</time></trkpt><trkpt lat="42.200487" lon="1.585172"><ele>1730.458</ele><time>2012-05-14T07:29:58Z</time></trkpt><trkpt lat="42.200508" lon="1.585111"><ele>1729.813</ele><time>2012-05-14T07:30:38Z</time></trkpt><trkpt lat="42.200530" lon="1.585050"><ele>1729.389</ele><time>2012-05-14T07:31:18Z</time></trkpt><trkpt lat="42.200549" lon="1.584999"><ele>1728.806</ele><time>2012-05-14T07:31:58Z</time></trkpt><trkpt lat="42.200571" lon="1.584938"><ele>1727.726</ele><time>2012-05-14T07:32:38Z</time></trkpt><trkpt lat="42.200593" lon="1.584877"><ele>1726.407</ele><time>2012-05-14T07:33:18Z</time></trkpt><trkpt lat="42.200615" lon="1.584815"><ele>1725.220</ele><time>2012-05-14T07:33:58Z</time></trkpt><trkpt lat="42.200637" lon="1.584754"><ele>1724.094</ele><time>2012-05-14T07:34:38Z</time></trkpt><trkpt lat="42.200659" lon="1.584693"><ele>1722.761</ele><time>2012-05-14T07:35:18Z</time></trkpt><trkpt lat="42.200681" lon="1.584632"><ele>1721.492</ele><time>2012-05-14T07:35:58Z</time></trkpt><trkpt lat="42.200703" lon="1.584571"><ele>1720.092</ele><time>2012-05-14T07:36:38Z</time></trkpt><trkpt lat="42.200725" lon="1.584510"><ele>1718.597</ele><time>2012-05-14T07:37:18Z</time></trkpt><trkpt lat="42.200742" lon="1.584470"><ele>1717.432</ele><time>2012-05-14T07:37:58Z</time></trkpt><trkpt lat="42.200767" lon="1.584409"><ele>1715.928</ele><time>2012-05-14T07:38:38Z</time></trkpt><trkpt lat="42.200792" lon="1.584348"><ele>1714.489</ele><time>2012-05-14T07:39:18Z</time></trkpt><trkpt lat="42.200817" lon="1.584286"><ele>1712.917</ele><time>2012-05-14T07:39:58Z</time></trkpt><trkpt lat="42.200841" lon="1.584225"><ele>1711.707</ele><time>2012-05-14T07:40:38Z</time></trkpt><trkpt lat="42.200866" lon="1.584164"><ele>1711.184</ele><time>2012-05-14T07:41:18Z</time></trkpt><trkpt lat="42.200891" lon="1.584103"><ele>1710.668</ele><time>2012-05-14T07:41:58Z</time></trkpt><trkpt lat="42.200916" lon="1.584042"><ele>1710.085</ele><time>2012-05-14T07:42:38Z</time></trkpt><trkpt lat="42.200941" lon="1.583981"><ele>1709.336</ele><time>2012-05-14T07:43:18Z</time></trkpt><trkpt lat="42.200966" lon="1.583920"><ele>1708.616</ele><time>2012-05-14T07:43:58Z</time></trkpt><trkpt lat="42.200991" lon="1.583859"><ele>1708.031</ele><time>2012-05-14T07:44:38Z</time></trkpt><trkpt lat="42.201016" lon="1.583798"><ele>1707.576</ele><time>2012-05-14T07:45:18Z</time></trkpt><trkpt lat="42.201041" lon="1.583736"><ele>1707.111</ele><time>2012-05-14T07:45:58Z</time></trkpt><trkpt lat="42.201066" lon="1.583675"><ele>1706.721</ele><time>2012-05-14T07:46:38Z</time></trkpt><trkpt lat="42.201091" lon="1.583614"><ele>1706.403</ele><time>2012-05-14T07:47:18Z</time></trkpt><trkpt lat="42.201105" lon="1.583526"><ele>1705.007</ele><time>2012-05-14T07:47:58Z</time></trkpt><trkpt lat="42.201115" lon="1.583466"><ele>1704.033</ele><time>2012-05-14T07:48:38Z</time></trkpt><trkpt lat="42.201124" lon="1.583405"><ele>1703.017</ele><time>2012-05-14T07:49:18Z</time></trkpt><trkpt lat="42.201134" lon="1.583344"><ele>1702.174</ele><time>2012-05-14T07:49:58Z</time></trkpt><trkpt lat="42.201144" lon="1.583283"><ele>1701.635</ele><time>2012-05-14T07:50:38Z</time></trkpt><trkpt lat="42.201087" lon="1.583364"><ele>1701.085</ele><time>2012-05-14T07:51:18Z</time></trkpt><trkpt lat="42.201044" lon="1.583426"><ele>1701.120</ele><time>2012-05-14T07:51:58Z</time></trkpt><trkpt lat="42.201001" lon="1.583488"><ele>1701.125</ele><time>2012-05-14T07:52:38Z</time></trkpt><trkpt lat="42.200958" lon="1.583549"><ele>1700.928</ele><time>2012-05-14T07:53:18Z</time></trkpt><trkpt lat="42.200916" lon="1.583611"><ele>1700.789</ele><time>2012-05-14T07:53:58Z</time></trkpt><trkpt lat="42.200873" lon="1.583672"><ele>1700.617</ele><time>2012-05-14T07:54:38Z</time></trkpt><trkpt lat="42.200830" lon="1.583734"><ele>1700.707</ele><time>2012-05-14T07:55:18Z</time></trkpt><trkpt lat="42.200787" lon="1.583795"><ele>1702.064</ele><time>2012-05-14T07:55:58Z</time></trkpt><trkpt lat="42.200744" lon="1.583857"><ele>1703.398</ele><time>2012-05-14T07:56:38Z</time></trkpt><trkpt lat="42.200766" lon="1.583796"><ele>1702.035</ele><time>2012-05-14T07:57:18Z</time></trkpt><trkpt lat="42.200789" lon="1.583735"><ele>1700.796</ele><time>2012-05-14T07:57:58Z</time></trkpt><trkpt lat="42.200793" lon="1.583741"><ele>1700.896</ele><time>2012-05-14T07:58:38Z</time></trkpt><trkpt lat="42.200753" lon="1.583803"><ele>1702.111</ele><time>2012-05-14T07:59:18Z</time></trkpt><trkpt lat="42.200713" lon="1.583864"><ele>1703.586</ele><time>2012-05-14T07:59:58Z</time></trkpt><trkpt lat="42.200673" lon="1.583926"><ele>1704.764</ele><time>2012-05-14T08:00:38Z</time></trkpt><trkpt lat="42.200633" lon="1.583987"><ele>1705.906</ele><time>2012-05-14T08:01:18Z</time></trkpt><trkpt lat="42.200593" lon="1.584049"><ele>1707.016</ele><time>2012-05-14T08:01:58Z</time></trkpt><trkpt lat="42.200553" lon="1.584110"><ele>1708.007</ele><time>2012-05-14T08:02:38Z</time></trkpt><trkpt lat="42.200513" lon="1.584172"><ele>1708.788</ele><time>2012-05-14T08:03:18Z</time></trkpt><trkpt lat="42.200473" lon="1.584233"><ele>1709.692</ele><time>2012-05-14T08:03:58Z</time></trkpt><trkpt lat="42.200433" lon="1.584295"><ele>1710.589</ele><time>2012-05-14T08:04:38Z</time></trkpt><trkpt lat="42.200393" lon="1.584356"><ele>1711.280</ele><time>2012-05-14T08:05:18Z</time></trkpt><trkpt lat="42.200353" lon="1.584418"><ele>1711.880</ele><time>2012-05-14T08:05:58Z</time></trkpt><trkpt lat="42.200325" lon="1.584460"><ele>1712.235</ele><time>2012-05-14T08:06:38Z</time></trkpt><trkpt lat="42.200280" lon="1.584507"><ele>1712.480</ele><time>2012-05-14T08:07:18Z</time></trkpt><trkpt lat="42.200236" lon="1.584554"><ele>1713.225</ele><time>2012-05-14T08:07:58Z</time></trkpt><trkpt lat="42.200191" lon="1.584601"><ele>1713.926</ele><time>2012-05-14T08:08:38Z</time></trkpt><trkpt lat="42.200147" lon="1.584648"><ele>1714.608</ele><time>2012-05-14T08:09:18Z</time></trkpt><trkpt lat="42.200103" lon="1.584695"><ele>1715.207</ele><time>2012-05-14T08:09:58Z</time></trkpt><trkpt lat="42.200058" lon="1.584742"><ele>1715.674</ele><time>2012-05-14T08:10:38Z</time></trkpt><trkpt lat="42.200014" lon="1.584789"><ele>1715.658</ele><time>2012-05-14T08:11:18Z</time></trkpt><trkpt lat="42.199949" lon="1.584858"><ele>1716.165</ele><time>2012-05-14T08:11:58Z</time></trkpt><trkpt lat="42.199953" lon="1.584797"><ele>1715.736</ele><time>2012-05-14T08:12:38Z</time></trkpt><trkpt lat="42.199958" lon="1.584737"><ele>1715.456</ele><time>2012-05-14T08:13:18Z</time></trkpt><trkpt lat="42.199962" lon="1.584676"><ele>1714.561</ele><time>2012-05-14T08:13:58Z</time></trkpt><trkpt lat="42.199967" lon="1.584615"><ele>1713.446</ele><time>2012-05-14T08:14:38Z</time></trkpt><trkpt lat="42.199972" lon="1.584555"><ele>1712.467</ele><time>2012-05-14T08:15:18Z</time></trkpt><trkpt lat="42.199976" lon="1.584494"><ele>1711.381</ele><time>2012-05-14T08:15:58Z</time></trkpt><trkpt lat="42.199981" lon="1.584433"><ele>1710.219</ele><time>2012-05-14T08:16:38Z</time></trkpt><trkpt lat="42.199985" lon="1.584373"><ele>1709.307</ele><time>2012-05-14T08:17:18Z</time></trkpt><trkpt lat="42.199990" lon="1.584312"><ele>1708.328</ele><time>2012-05-14T08:17:58Z</time></trkpt><trkpt lat="42.199994" lon="1.584251"><ele>1707.442</ele><time>2012-05-14T08:18:38Z</time></trkpt><trkpt lat="42.199999" lon="1.584191"><ele>1706.479</ele><time>2012-05-14T08:19:18Z</time></trkpt><trkpt lat="42.200001" lon="1.584160"><ele>1705.990</ele><time>2012-05-14T08:19:58Z</time></trkpt><trkpt lat="42.200001" lon="1.584100"><ele>1704.860</ele><time>2012-05-14T08:20:38Z</time></trkpt><trkpt lat="42.200001" lon="1.584039"><ele>1703.765</ele><time>2012-05-14T08:21:18Z</time></trkpt><trkpt lat="42.200001" lon="1.583978"><ele>1702.640</ele><time>2012-05-14T08:21:58Z</time></trkpt><trkpt lat="42.200000" lon="1.583918"><ele>1701.552</ele><time>2012-05-14T08:22:38Z</time></trkpt><trkpt lat="42.200000" lon="1.583857"><ele>1700.753</ele><time>2012-05-14T08:23:18Z</time></trkpt><trkpt lat="42.200000" lon="1.583797"><ele>1700.008</ele><time>2012-05-14T08:23:58Z</time></trkpt><trkpt lat="42.200000" lon="1.583736"><ele>1699.307</ele><time>2012-05-14T08:24:38Z</time></trkpt><trkpt lat="42.200000" lon="1.583676"><ele>1698.747</ele><time>2012-05-14T08:25:18Z</time></trkpt><trkpt lat="42.199999" lon="1.583615"><ele>1698.111</ele><time>2012-05-14T08:25:58Z</time></trkpt><trkpt lat="42.199999" lon="1.583555"><ele>1697.298</ele><time>2012-05-14T08:26:38Z</time></trkpt><trkpt lat="42.199999" lon="1.583494"><ele>1696.469</ele><time>2012-05-14T08:27:18Z</time></trkpt><trkpt lat="42.199999" lon="1.583433"><ele>1695.519</ele><time>2012-05-14T08:27:58Z</time></trkpt><trkpt lat="42.199999" lon="1.583373"><ele>1694.634</ele><time>2012-05-14T08:28:38Z</time></trkpt><trkpt lat="42.199999" lon="1.583312"><ele>1693.869</ele><time>2012-05-14T08:29:18Z</time></trkpt><trkpt lat="42.199998" lon="1.583252"><ele>1693.262</ele><time>2012-05-14T08:29:58Z</time></trkpt><trkpt lat="42.199998" lon="1.583218"><ele>1692.883</ele><time>2012-05-14T08:30:38Z</time></trkpt><trkpt lat="42.199973" lon="1.583158"><ele>1693.111</ele><time>2012-05-14T08:31:18Z</time></trkpt><trkpt lat="42.199948" lon="1.583098"><ele>1693.207</ele><time>2012-05-14T08:31:58Z</time></trkpt><trkpt lat="42.199922" lon="1.583038"><ele>1693.298</ele><time>2012-05-14T08:32:38Z</time></trkpt><trkpt lat="42.199890" lon="1.582961"><ele>1692.672</ele><time>2012-05-14T08:33:18Z</time></trkpt><trkpt lat="42.199859" lon="1.582902"><ele>1692.239</ele><time>2012-05-14T08:33:58Z</time></trkpt><trkpt lat="42.199828" lon="1.582842"><ele>1691.870</ele><time>2012-05-14T08:34:38Z</time></trkpt><trkpt lat="42.199798" lon="1.582782"><ele>1691.290</ele><time>2012-05-14T08:35:18Z</time></trkpt><trkpt lat="42.199767" lon="1.582722"><ele>1690.755</ele><time>2012-05-14T08:35:58Z</time></trkpt><trkpt lat="42.199746" lon="1.582682"><ele>1690.330</ele><time>2012-05-14T08:36:38Z</time></trkpt><trkpt lat="42.199701" lon="1.582659"><ele>1690.596</ele><time>2012-05-14T08:37:18Z</time></trkpt><trkpt lat="42.199656" lon="1.582637"><ele>1690.131</ele><time>2012-05-14T08:37:58Z</time></trkpt><trkpt lat="42.199610" lon="1.582615"><ele>1689.824</ele><time>2012-05-14T08:38:38Z</time></trkpt><trkpt lat="42.199565" lon="1.582593"><ele>1689.607</ele><time>2012-05-14T08:39:18Z</time></trkpt><trkpt lat="42.199517" lon="1.582569"><ele>1689.461</ele><time>2012-05-14T08:39:58Z</time></trkpt><trkpt lat="42.199472" lon="1.582570"><ele>1689.655</ele><time>2012-05-14T08:40:38Z</time></trkpt><trkpt lat="42.199427" lon="1.582571"><ele>1689.112</ele><time>2012-05-14T08:41:18Z</time></trkpt><trkpt lat="42.199382" lon="1.582572"><ele>1687.563</ele><time>2012-05-14T08:41:58Z</time></trkpt><trkpt lat="42.199337" lon="1.582573"><ele>1685.993</ele><time>2012-05-14T08:42:38Z</time></trkpt><trkpt lat="42.199292" lon="1.582574"><ele>1684.388</ele><time>2012-05-14T08:43:18Z</time></trkpt><trkpt lat="42.199247" lon="1.582575"><ele>1682.763</ele><time>2012-05-14T08:43:58Z</time></trkpt><trkpt lat="42.199184" lon="1.582576"><ele>1680.483</ele><time>2012-05-14T08:44:38Z</time></trkpt><trkpt lat="42.199139" lon="1.582596"><ele>1678.425</ele><time>2012-05-14T08:45:18Z</time></trkpt><trkpt lat="42.199094" lon="1.582615"><ele>1676.117</ele><time>2012-05-14T08:45:58Z</time></trkpt><trkpt lat="42.199049" lon="1.582635"><ele>1673.907</ele><time>2012-05-14T08:46:38Z</time></trkpt><trkpt lat="42.199005" lon="1.582654"><ele>1671.870</ele><time>2012-05-14T08:47:18Z</time></trkpt><trkpt lat="42.198960" lon="1.582673"><ele>1669.844</ele><time>2012-05-14T08:47:58Z</time></trkpt><trkpt lat="42.198915" lon="1.582693"><ele>1667.991</ele><time>2012-05-14T08:48:38Z</time></trkpt><trkpt lat="42.198870" lon="1.582712"><ele>1666.262</ele><time>2012-05-14T08:49:18Z</time></trkpt><trkpt lat="42.198825" lon="1.582732"><ele>1664.892</ele><time>2012-05-14T08:49:58Z</time></trkpt><trkpt lat="42.198783" lon="1.582750"><ele>1663.717</ele><time>2012-05-14T08:50:38Z</time></trkpt><trkpt lat="42.198741" lon="1.582812"><ele>1664.312</ele><time>2012-05-14T08:51:18Z</time></trkpt><trkpt lat="42.198700" lon="1.582873"><ele>1664.657</ele><time>2012-05-14T08:51:58Z</time></trkpt><trkpt lat="42.198658" lon="1.582935"><ele>1664.700</ele><time>2012-05-14T08:52:38Z</time></trkpt><trkpt lat="42.198617" lon="1.582996"><ele>1664.620</ele><time>2012-05-14T08:53:18Z</time></trkpt><trkpt lat="42.198575" lon="1.583058"><ele>1664.407</ele><time>2012-05-14T08:53:58Z</time></trkpt><trkpt lat="42.198524" lon="1.583133"><ele>1665.397</ele><time>2012-05-14T08:54:38Z</time></trkpt><trkpt lat="42.198479" lon="1.583123"><ele>1662.741</ele><time>2012-05-14T08:55:18Z</time></trkpt><trkpt lat="42.198434" lon="1.583114"><ele>1660.268</ele><time>2012-05-14T08:55:58Z</time></trkpt><trkpt lat="42.198389" lon="1.583103"><ele>1657.739</ele><time>2012-05-14T08:56:38Z</time></trkpt><trkpt lat="42.198344" lon="1.583093"><ele>1655.159</ele><time>2012-05-14T08:57:18Z</time></trkpt><trkpt lat="42.198299" lon="1.583084"><ele>1652.444</ele><time>2012-05-14T08:57:58Z</time></trkpt><trkpt lat="42.198253" lon="1.583073"><ele>1649.489</ele><time>2012-05-14T08:58:38Z</time></trkpt><trkpt lat="42.198208" lon="1.583063"><ele>1646.682</ele><time>2012-05-14T08:59:18Z</time></trkpt><trkpt lat="42.198163" lon="1.583054"><ele>1643.843</ele><time>2012-05-14T08:59:58Z</time></trkpt><trkpt lat="42.198138" lon="1.583048"><ele>1642.217</ele><time>2012-05-14T09:00:38Z</time></trkpt><trkpt lat="42.198093" lon="1.583047"><ele>1639.807</ele><time>2012-05-14T09:01:18Z</time></trkpt><trkpt lat="42.198047" lon="1.583045"><ele>1637.390</ele><time>2012-05-14T09:01:58Z</time></trkpt><trkpt lat="42.198003" lon="1.583044"><ele>1635.464</ele><time>2012-05-14T09:02:38Z</time></trkpt><trkpt lat="42.197957" lon="1.583043"><ele>1633.311</ele><time>2012-05-14T09:03:18Z</time></trkpt><trkpt lat="42.197912" lon="1.583042"><ele>1631.362</ele><time>2012-05-14T09:03:58Z</time></trkpt><trkpt lat="42.197867" lon="1.583041"><ele>1629.352</ele><time>2012-05-14T09:04:38Z</time></trkpt><trkpt lat="42.197822" lon="1.583040"><ele>1627.347</ele><time>2012-05-14T09:05:18Z</time></trkpt><trkpt lat="42.197777" lon="1.583039"><ele>1625.392</ele><time>2012-05-14T09:05:58Z</time></trkpt><trkpt lat="42.197732" lon="1.583037"><ele>1623.419</ele><time>2012-05-14T09:06:38Z</time></trkpt><trkpt lat="42.197687" lon="1.583036"><ele>1621.609</ele><time>2012-05-14T09:07:18Z</time></trkpt><trkpt lat="42.197646" lon="1.583035"><ele>1619.919</ele><time>2012-05-14T09:07:58Z</time></trkpt><trkpt lat="42.197601" lon="1.583018"><ele>1617.407</ele><time>2012-05-14T09:08:38Z</time></trkpt><trkpt lat="42.197556" lon="1.583002"><ele>1614.953</ele><time>2012-05-14T09:09:18Z</time></trkpt><trkpt lat="42.197511" lon="1.582985"><ele>1612.447</ele><time>2012-05-14T09:09:58Z</time></trkpt><trkpt lat="42.197465" lon="1.582968"><ele>1610.434</ele><time>2012-05-14T09:10:38Z</time></trkpt><trkpt lat="42.197420" lon="1.582951"><ele>1608.625</ele><time>2012-05-14T09:11:18Z</time></trkpt><trkpt lat="42.197375" lon="1.582934"><ele>1606.975</ele><time>2012-05-14T09:11:58Z</time></trkpt><trkpt lat="42.197330" lon="1.582918"><ele>1605.110</ele><time>2012-05-14T09:12:38Z</time></trkpt><trkpt lat="42.197285" lon="1.582901"><ele>1603.235</ele><time>2012-05-14T09:13:18Z</time></trkpt><trkpt lat="42.197239" lon="1.582884"><ele>1601.457</ele><time>2012-05-14T09:13:58Z</time></trkpt><trkpt lat="42.197194" lon="1.582867"><ele>1599.700</ele><time>2012-05-14T09:14:38Z</time></trkpt><trkpt lat="42.197149" lon="1.582850"><ele>1598.120</ele><time>2012-05-14T09:15:18Z</time></trkpt><trkpt lat="42.197103" lon="1.582834"><ele>1596.507</ele><time>2012-05-14T09:15:58Z</time></trkpt><trkpt lat="42.197047" lon="1.582813"><ele>1594.557</ele><time>2012-05-14T09:16:38Z</time></trkpt><trkpt lat="42.197003" lon="1.582824"><ele>1594.251</ele><time>2012-05-14T09:17:18Z</time></trkpt><trkpt lat="42.196958" lon="1.582835"><ele>1593.948</ele><time>2012-05-14T09:17:58Z</time></trkpt><trkpt lat="42.196913" lon="1.582846"><ele>1593.799</ele><time>2012-05-14T09:18:38Z</time></trkpt><trkpt lat="42.196868" lon="1.582857"><ele>1593.619</ele><time>2012-05-14T09:19:18Z</time></trkpt><trkpt lat="42.196838" lon="1.582865"><ele>1593.674</ele><time>2012-05-14T09:19:58Z</time></trkpt><trkpt lat="42.196793" lon="1.582853"><ele>1592.459</ele><time>2012-05-14T09:20:38Z</time></trkpt><trkpt lat="42.196747" lon="1.582841"><ele>1591.138</ele><time>2012-05-14T09:21:18Z</time></trkpt><trkpt lat="42.196702" lon="1.582829"><ele>1589.770</ele><time>2012-05-14T09:21:58Z</time></trkpt><trkpt lat="42.196657" lon="1.582817"><ele>1588.517</ele><time>2012-05-14T09:22:38Z</time></trkpt><trkpt lat="42.196592" lon="1.582799"><ele>1588.007</ele><time>2012-05-14T09:23:18Z</time></trkpt><trkpt lat="42.196551" lon="1.582740"><ele>1585.595</ele><time>2012-05-14T09:23:58Z</time></trkpt><trkpt lat="42.196511" lon="1.582680"><ele>1583.399</ele><time>2012-05-14T09:24:38Z</time></trkpt><trkpt lat="42.196466" lon="1.582613"><ele>1581.176</ele><time>2012-05-14T09:25:18Z</time></trkpt><trkpt lat="42.196422" lon="1.582665"><ele>1584.087</ele><time>2012-05-14T09:25:58Z</time></trkpt><trkpt lat="42.196363" lon="1.582734"><ele>1586.417</ele><time>2012-05-14T09:26:38Z</time></trkpt><trkpt lat="42.196318" lon="1.582752"><ele>1585.632</ele><time>2012-05-14T09:27:18Z</time></trkpt><trkpt lat="42.196273" lon="1.582770"><ele>1584.997</ele><time>2012-05-14T09:27:58Z</time></trkpt><trkpt lat="42.196241" lon="1.582784"><ele>1584.578</ele><time>2012-05-14T09:28:38Z</time></trkpt><trkpt lat="42.196195" lon="1.582731"><ele>1580.433</ele><time>2012-05-14T09:29:18Z</time></trkpt><trkpt lat="42.196149" lon="1.582678"><ele>1576.026</ele><time>2012-05-14T09:29:58Z</time></trkpt><trkpt lat="42.196104" lon="1.582625"><ele>1571.807</ele><time>2012-05-14T09:30:38Z</time></trkpt><trkpt lat="42.196081" lon="1.582599"><ele>1570.759</ele><time>2012-05-14T09:31:18Z</time></trkpt><trkpt lat="42.196035" lon="1.582569"><ele>1569.883</ele><time>2012-05-14T09:31:58Z</time></trkpt><trkpt lat="42.195990" lon="1.582540"><ele>1568.850</ele><time>2012-05-14T09:32:38Z</time></trkpt><trkpt lat="42.195944" lon="1.582511"><ele>1568.071</ele><time>2012-05-14T09:33:18Z</time></trkpt><trkpt lat="42.195899" lon="1.582482"><ele>1567.371</ele><time>2012-05-14T09:33:58Z</time></trkpt><trkpt lat="42.195868" lon="1.582462"><ele>1567.026</ele><time>2012-05-14T09:34:38Z</time></trkpt><trkpt lat="42.195823" lon="1.582452"><ele>1567.281</ele><time>2012-05-14T09:35:18Z</time></trkpt><trkpt lat="42.195778" lon="1.582442"><ele>1566.441</ele><time>2012-05-14T09:35:58Z</time></trkpt><trkpt lat="42.195733" lon="1.582433"><ele>1565.781</ele><time>2012-05-14T09:36:38Z</time></trkpt><trkpt lat="42.195688" lon="1.582423"><ele>1564.909</ele><time>2012-05-14T09:37:18Z</time></trkpt><trkpt lat="42.195643" lon="1.582413"><ele>1564.107</ele><time>2012-05-14T09:37:58Z</time></trkpt><trkpt lat="42.195598" lon="1.582404"><ele>1563.376</ele><time>2012-05-14T09:38:38Z</time></trkpt><trkpt lat="42.195570" lon="1.582398"><ele>1562.740</ele><time>2012-05-14T09:39:18Z</time></trkpt><trkpt lat="42.195525" lon="1.582405"><ele>1562.727</ele><time>2012-05-14T09:39:58Z</time></trkpt><trkpt lat="42.195480" lon="1.582412"><ele>1562.738</ele><time>2012-05-14T09:40:38Z</time></trkpt><trkpt lat="42.195435" lon="1.582419"><ele>1562.618</ele><time>2012-05-14T09:41:18Z</time></trkpt><trkpt lat="42.195395" lon="1.582425"><ele>1562.633</ele><time>2012-05-14T09:41:58Z</time></trkpt><trkpt lat="42.195349" lon="1.582396"><ele>1561.028</ele><time>2012-05-14T09:42:38Z</time></trkpt><trkpt lat="42.195304" lon="1.582367"><ele>1559.447</ele><time>2012-05-14T09:43:18Z</time></trkpt><trkpt lat="42.195253" lon="1.582334"><ele>1557.229</ele><time>2012-05-14T09:43:58Z</time></trkpt><trkpt lat="42.195208" lon="1.582343"><ele>1556.421</ele><time>2012-05-14T09:44:38Z</time></trkpt><trkpt lat="42.195163" lon="1.582351"><ele>1555.507</ele><time>2012-05-14T09:45:18Z</time></trkpt><trkpt lat="42.195113" lon="1.582361"><ele>1554.586</ele><time>2012-05-14T09:45:58Z</time></trkpt><trkpt lat="42.195069" lon="1.582407"><ele>1555.030</ele><time>2012-05-14T09:46:38Z</time></trkpt><trkpt lat="42.195044" lon="1.582433"><ele>1555.117</ele><time>2012-05-14T09:47:18Z</time></trkpt><trkpt lat="42.194999" lon="1.582438"><ele>1553.938</ele><time>2012-05-14T09:47:58Z</time></trkpt><trkpt lat="42.194954" lon="1.582444"><ele>1552.128</ele><time>2012-05-14T09:48:38Z</time></trkpt><trkpt lat="42.194909" lon="1.582449"><ele>1550.153</ele><time>2012-05-14T09:49:18Z</time></trkpt><trkpt lat="42.194864" lon="1.582454"><ele>1548.168</ele><time>2012-05-14T09:49:58Z</time></trkpt><trkpt lat="42.194799" lon="1.582462"><ele>1545.258</ele><time>2012-05-14T09:50:38Z</time></trkpt><trkpt lat="42.194792" lon="1.582402"><ele>1543.952</ele><time>2012-05-14T09:51:18Z</time></trkpt><trkpt lat="42.194786" lon="1.582341"><ele>1542.717</ele><time>2012-05-14T09:51:58Z</time></trkpt><trkpt lat="42.194779" lon="1.582274"><ele>1541.407</ele><time>2012-05-14T09:52:38Z</time></trkpt><trkpt lat="42.194733" lon="1.582214"><ele>1539.027</ele><time>2012-05-14T09:53:18Z</time></trkpt><trkpt lat="42.194687" lon="1.582155"><ele>1534.141</ele><time>2012-05-14T09:53:58Z</time></trkpt><trkpt lat="42.194654" lon="1.582112"><ele>1530.578</ele><time>2012-05-14T09:54:38Z</time></trkpt><trkpt lat="42.194699" lon="1.582064"><ele>1531.939</ele><time>2012-05-14T09:55:18Z</time></trkpt><trkpt lat="42.194743" lon="1.582015"><ele>1532.049</ele><time>2012-05-14T09:55:58Z</time></trkpt><trkpt lat="42.194788" lon="1.581967"><ele>1531.164</ele><time>2012-05-14T09:56:38Z</time></trkpt><trkpt lat="42.194810" lon="1.581943"><ele>1530.529</ele><time>2012-05-14T09:57:18Z</time></trkpt><trkpt lat="42.194847" lon="1.581882"><ele>1528.216</ele><time>2012-05-14T09:57:58Z</time></trkpt><trkpt lat="42.194896" lon="1.581800"><ele>1525.376</ele><time>2012-05-14T09:58:38Z</time></trkpt><trkpt lat="42.194903" lon="1.581739"><ele>1522.613</ele><time>2012-05-14T09:59:18Z</time></trkpt><trkpt lat="42.194912" lon="1.581658"><ele>1519.007</ele><time>2012-05-14T09:59:58Z</time></trkpt><trkpt lat="42.194866" lon="1.581637"><ele>1516.793</ele><time>2012-05-14T10:00:38Z</time></trkpt><trkpt lat="42.194821" lon="1.581616"><ele>1514.447</ele><time>2012-05-14T10:01:18Z</time></trkpt><trkpt lat="42.194776" lon="1.581595"><ele>1512.044</ele><time>2012-05-14T10:01:58Z</time></trkpt><trkpt lat="42.194718" lon="1.581568"><ele>1509.065</ele><time>2012-05-14T10:02:38Z</time></trkpt><trkpt lat="42.194672" lon="1.581526"><ele>1506.715</ele><time>2012-05-14T10:03:18Z</time></trkpt><trkpt lat="42.194627" lon="1.581485"><ele>1504.690</ele><time>2012-05-14T10:03:58Z</time></trkpt><trkpt lat="42.194581" lon="1.581444"><ele>1502.675</ele><time>2012-05-14T10:04:38Z</time></trkpt><trkpt lat="42.194536" lon="1.581402"><ele>1500.691</ele><time>2012-05-14T10:05:18Z</time></trkpt><trkpt lat="42.194490" lon="1.581361"><ele>1498.681</ele><time>2012-05-14T10:05:58Z</time></trkpt><trkpt lat="42.194444" lon="1.581320"><ele>1496.519</ele><time>2012-05-14T10:06:38Z</time></trkpt><trkpt lat="42.194399" lon="1.581278"><ele>1494.007</ele><time>2012-05-14T10:07:18Z</time></trkpt><trkpt lat="42.194363" lon="1.581246"><ele>1492.191</ele><time>2012-05-14T10:07:58Z</time></trkpt><trkpt lat="42.194329" lon="1.581307"><ele>1494.995</ele><time>2012-05-14T10:08:38Z</time></trkpt><trkpt lat="42.194295" lon="1.581368"><ele>1497.872</ele><time>2012-05-14T10:09:18Z</time></trkpt><trkpt lat="42.194260" lon="1.581430"><ele>1499.573</ele><time>2012-05-14T10:09:58Z</time></trkpt><trkpt lat="42.194243" lon="1.581461"><ele>1499.833</ele><time>2012-05-14T10:10:38Z</time></trkpt><trkpt lat="42.194198" lon="1.581462"><ele>1499.088</ele><time>2012-05-14T10:11:18Z</time></trkpt><trkpt lat="42.194153" lon="1.581463"><ele>1498.173</ele><time>2012-05-14T10:11:58Z</time></trkpt><trkpt lat="42.194108" lon="1.581464"><ele>1496.948</ele><time>2012-05-14T10:12:38Z</time></trkpt><trkpt lat="42.194063" lon="1.581465"><ele>1495.661</ele><time>2012-05-14T10:13:18Z</time></trkpt><trkpt lat="42.193998" lon="1.581466"><ele>1493.717</ele><time>2012-05-14T10:13:58Z</time></trkpt><trkpt lat="42.193952" lon="1.581431"><ele>1492.107</ele><time>2012-05-14T10:14:38Z</time></trkpt><trkpt lat="42.193907" lon="1.581395"><ele>1490.696</ele><time>2012-05-14T10:15:18Z</time></trkpt><trkpt lat="42.193861" lon="1.581360"><ele>1487.510</ele><time>2012-05-14T10:15:58Z</time></trkpt><trkpt lat="42.193820" lon="1.581329"><ele>1484.477</ele><time>2012-05-14T10:16:38Z</time></trkpt><trkpt lat="42.193776" lon="1.581363"><ele>1484.338</ele><time>2012-05-14T10:17:18Z</time></trkpt><trkpt lat="42.193731" lon="1.581398"><ele>1483.848</ele><time>2012-05-14T10:17:58Z</time></trkpt><trkpt lat="42.193687" lon="1.581432"><ele>1482.323</ele><time>2012-05-14T10:18:38Z</time></trkpt><trkpt lat="42.193664" lon="1.581450"><ele>1481.588</ele><time>2012-05-14T10:19:18Z</time></trkpt><trkpt lat="42.193652" lon="1.581511"><ele>1481.586</ele><time>2012-05-14T10:19:58Z</time></trkpt><trkpt lat="42.193640" lon="1.581572"><ele>1481.560</ele><time>2012-05-14T10:20:38Z</time></trkpt><trkpt lat="42.193628" lon="1.581632"><ele>1481.426</ele><time>2012-05-14T10:21:18Z</time></trkpt><trkpt lat="42.193616" lon="1.581693"><ele>1480.607</ele><time>2012-05-14T10:21:58Z</time></trkpt><trkpt lat="42.193598" lon="1.581781"><ele>1477.510</ele><time>2012-05-14T10:22:38Z</time></trkpt><trkpt lat="42.193572" lon="1.581843"><ele>1474.384</ele><time>2012-05-14T10:23:18Z</time></trkpt><trkpt lat="42.193546" lon="1.581904"><ele>1471.351</ele><time>2012-05-14T10:23:58Z</time></trkpt><trkpt lat="42.193519" lon="1.581965"><ele>1468.372</ele><time>2012-05-14T10:24:38Z</time></trkpt><trkpt lat="42.193496" lon="1.582020"><ele>1465.912</ele><time>2012-05-14T10:25:18Z</time></trkpt><trkpt lat="42.193469" lon="1.582081"><ele>1463.687</ele><time>2012-05-14T10:25:58Z</time></trkpt><trkpt lat="42.193442" lon="1.582142"><ele>1461.812</ele><time>2012-05-14T10:26:38Z</time></trkpt><trkpt lat="42.193415" lon="1.582203"><ele>1460.414</ele><time>2012-05-14T10:27:18Z</time></trkpt><trkpt lat="42.193388" lon="1.582264"><ele>1458.654</ele><time>2012-05-14T10:27:58Z</time></trkpt><trkpt lat="42.193359" lon="1.582329"><ele>1456.309</ele><time>2012-05-14T10:28:38Z</time></trkpt><trkpt lat="42.193360" lon="1.582390"><ele>1454.907</ele><time>2012-05-14T10:29:18Z</time></trkpt><trkpt lat="42.193361" lon="1.582471"><ele>1453.193</ele><time>2012-05-14T10:29:58Z</time></trkpt><trkpt lat="42.193392" lon="1.582531"><ele>1451.897</ele><time>2012-05-14T10:30:38Z</time></trkpt><trkpt lat="42.193423" lon="1.582590"><ele>1450.464</ele><time>2012-05-14T10:31:18Z</time></trkpt><trkpt lat="42.193453" lon="1.582650"><ele>1448.985</ele><time>2012-05-14T10:31:58Z</time></trkpt><trkpt lat="42.193484" lon="1.582710"><ele>1447.455</ele><time>2012-05-14T10:32:38Z</time></trkpt><trkpt lat="42.193505" lon="1.582751"><ele>1446.360</ele><time>2012-05-14T10:33:18Z</time></trkpt><trkpt lat="42.193497" lon="1.582811"><ele>1444.595</ele><time>2012-05-14T10:33:58Z</time></trkpt><trkpt lat="42.193489" lon="1.582872"><ele>1442.898</ele><time>2012-05-14T10:34:38Z</time></trkpt><trkpt lat="42.193480" lon="1.582933"><ele>1441.015</ele><time>2012-05-14T10:35:18Z</time></trkpt><trkpt lat="42.193473" lon="1.582987"><ele>1439.426</ele><time>2012-05-14T10:35:58Z</time></trkpt><trkpt lat="42.193464" lon="1.583048"><ele>1437.407</ele><time>2012-05-14T10:36:38Z</time></trkpt><trkpt lat="42.193456" lon="1.583108"><ele>1436.011</ele><time>2012-05-14T10:37:18Z</time></trkpt><trkpt lat="42.193447" lon="1.583169"><ele>1434.545</ele><time>2012-05-14T10:37:58Z</time></trkpt><trkpt lat="42.193438" lon="1.583230"><ele>1432.912</ele><time>2012-05-14T10:38:38Z</time></trkpt><trkpt lat="42.193430" lon="1.583291"><ele>1431.413</ele><time>2012-05-14T10:39:18Z</time></trkpt><trkpt lat="42.193421" lon="1.583352"><ele>1429.943</ele><time>2012-05-14T10:39:58Z</time></trkpt><trkpt lat="42.193412" lon="1.583412"><ele>1428.868</ele><time>2012-05-14T10:40:38Z</time></trkpt><trkpt lat="42.193404" lon="1.583473"><ele>1427.873</ele><time>2012-05-14T10:41:18Z</time></trkpt><trkpt lat="42.193392" lon="1.583555"><ele>1426.489</ele><time>2012-05-14T10:41:58Z</time></trkpt><trkpt lat="42.193378" lon="1.583616"><ele>1425.006</ele><time>2012-05-14T10:42:38Z</time></trkpt><trkpt lat="42.193364" lon="1.583676"><ele>1423.826</ele><time>2012-05-14T10:43:18Z</time></trkpt><trkpt lat="42.193349" lon="1.583737"><ele>1422.407</ele><time>2012-05-14T10:43:58Z</time></trkpt><trkpt lat="42.193335" lon="1.583798"><ele>1421.120</ele><time>2012-05-14T10:44:38Z</time></trkpt><trkpt lat="42.193321" lon="1.583859"><ele>1419.824</ele><time>2012-05-14T10:45:18Z</time></trkpt><trkpt lat="42.193307" lon="1.583920"><ele>1418.991</ele><time>2012-05-14T10:45:58Z</time></trkpt><trkpt lat="42.193292" lon="1.583981"><ele>1418.292</ele><time>2012-05-14T10:46:38Z</time></trkpt><trkpt lat="42.193278" lon="1.584042"><ele>1417.532</ele><time>2012-05-14T10:47:18Z</time></trkpt><trkpt lat="42.193264" lon="1.584103"><ele>1416.827</ele><time>2012-05-14T10:47:58Z</time></trkpt><trkpt lat="42.193250" lon="1.584163"><ele>1416.132</ele><time>2012-05-14T10:48:38Z</time></trkpt><trkpt lat="42.193235" lon="1.584224"><ele>1416.349</ele><time>2012-05-14T10:49:18Z</time></trkpt><trkpt lat="42.193226" lon="1.584266"><ele>1416.602</ele><time>2012-05-14T10:49:58Z</time></trkpt><trkpt lat="42.193192" lon="1.584327"><ele>1415.722</ele><time>2012-05-14T10:50:38Z</time></trkpt><trkpt lat="42.193158" lon="1.584388"><ele>1414.607</ele><time>2012-05-14T10:51:18Z</time></trkpt><trkpt lat="42.193124" lon="1.584450"><ele>1413.196</ele><time>2012-05-14T10:51:58Z</time></trkpt><trkpt lat="42.193090" lon="1.584511"><ele>1410.680</ele><time>2012-05-14T10:52:38Z</time></trkpt><trkpt lat="42.193054" lon="1.584576"><ele>1408.017</ele><time>2012-05-14T10:53:18Z</time></trkpt><trkpt lat="42.193042" lon="1.584637"><ele>1406.958</ele><time>2012-05-14T10:53:58Z</time></trkpt><trkpt lat="42.193030" lon="1.584698"><ele>1405.898</ele><time>2012-05-14T10:54:38Z</time></trkpt><trkpt lat="42.193021" lon="1.584742"><ele>1405.253</ele><time>2012-05-14T10:55:18Z</time></trkpt><trkpt lat="42.192977" lon="1.584789"><ele>1403.228</ele><time>2012-05-14T10:55:58Z</time></trkpt><trkpt lat="42.192932" lon="1.584836"><ele>1401.336</ele><time>2012-05-14T10:56:38Z</time></trkpt><trkpt lat="42.192888" lon="1.584883"><ele>1399.617</ele><time>2012-05-14T10:57:18Z</time></trkpt><trkpt lat="42.192843" lon="1.584930"><ele>1398.018</ele><time>2012-05-14T10:57:58Z</time></trkpt><trkpt lat="42.192799" lon="1.584976"><ele>1396.607</ele><time>2012-05-14T10:58:38Z</time></trkpt><trkpt lat="42.192754" lon="1.585023"><ele>1395.995</ele><time>2012-05-14T10:59:18Z</time></trkpt><trkpt lat="42.192710" lon="1.585070"><ele>1395.899</ele><time>2012-05-14T10:59:58Z</time></trkpt><trkpt lat="42.192665" lon="1.585117"><ele>1395.616</ele><time>2012-05-14T11:00:38Z</time></trkpt><trkpt lat="42.192621" lon="1.585164"><ele>1395.357</ele><time>2012-05-14T11:01:18Z</time></trkpt><trkpt lat="42.192577" lon="1.585211"><ele>1395.167</ele><time>2012-05-14T11:01:58Z</time></trkpt><trkpt lat="42.192519" lon="1.585272"><ele>1394.652</ele><time>2012-05-14T11:02:38Z</time></trkpt><trkpt lat="42.192475" lon="1.585323"><ele>1394.377</ele><time>2012-05-14T11:03:18Z</time></trkpt><trkpt lat="42.192415" lon="1.585392"><ele>1393.792</ele><time>2012-05-14T11:03:58Z</time></trkpt><trkpt lat="42.192399" lon="1.585453"><ele>1394.673</ele><time>2012-05-14T11:04:38Z</time></trkpt><trkpt lat="42.192383" lon="1.585514"><ele>1395.520</ele><time>2012-05-14T11:05:18Z</time></trkpt><trkpt lat="42.192367" lon="1.585575"><ele>1396.007</ele><time>2012-05-14T11:05:58Z</time></trkpt><trkpt lat="42.192351" lon="1.585636"><ele>1396.051</ele><time>2012-05-14T11:06:38Z</time></trkpt><trkpt lat="42.192335" lon="1.585696"><ele>1395.755</ele><time>2012-05-14T11:07:18Z</time></trkpt><trkpt lat="42.192315" lon="1.585771"><ele>1395.232</ele><time>2012-05-14T11:07:58Z</time></trkpt><trkpt lat="42.192309" lon="1.585832"><ele>1395.283</ele><time>2012-05-14T11:08:38Z</time></trkpt><trkpt lat="42.192304" lon="1.585893"><ele>1394.183</ele><time>2012-05-14T11:09:18Z</time></trkpt><trkpt lat="42.192298" lon="1.585953"><ele>1392.918</ele><time>2012-05-14T11:09:58Z</time></trkpt><trkpt lat="42.192292" lon="1.586014"><ele>1391.753</ele><time>2012-05-14T11:10:38Z</time></trkpt><trkpt lat="42.192286" lon="1.586075"><ele>1390.699</ele><time>2012-05-14T11:11:18Z</time></trkpt><trkpt lat="42.192281" lon="1.586136"><ele>1389.607</ele><time>2012-05-14T11:11:58Z</time></trkpt><trkpt lat="42.192275" lon="1.586196"><ele>1388.627</ele><time>2012-05-14T11:12:38Z</time></trkpt><trkpt lat="42.192268" lon="1.586268"><ele>1387.407</ele><time>2012-05-14T11:13:18Z</time></trkpt><trkpt lat="42.192251" lon="1.586329"><ele>1385.681</ele><time>2012-05-14T11:13:58Z</time></trkpt><trkpt lat="42.192234" lon="1.586389"><ele>1383.865</ele><time>2012-05-14T11:14:38Z</time></trkpt><trkpt lat="42.192217" lon="1.586451"><ele>1382.532</ele><time>2012-05-14T11:15:18Z</time></trkpt><trkpt lat="42.192199" lon="1.586511"><ele>1381.233</ele><time>2012-05-14T11:15:58Z</time></trkpt><trkpt lat="42.192182" lon="1.586572"><ele>1380.133</ele><time>2012-05-14T11:16:38Z</time></trkpt><trkpt lat="42.192165" lon="1.586633"><ele>1379.178</ele><time>2012-05-14T11:17:18Z</time></trkpt><trkpt lat="42.192148" lon="1.586694"><ele>1378.843</ele><time>2012-05-14T11:17:58Z</time></trkpt><trkpt lat="42.192134" lon="1.586742"><ele>1378.941</ele><time>2012-05-14T11:18:38Z</time></trkpt><trkpt lat="42.192108" lon="1.586803"><ele>1378.781</ele><time>2012-05-14T11:19:18Z</time></trkpt><trkpt lat="42.192081" lon="1.586864"><ele>1378.409</ele><time>2012-05-14T11:19:58Z</time></trkpt><trkpt lat="42.192055" lon="1.586926"><ele>1378.207</ele><time>2012-05-14T11:20:38Z</time></trkpt><trkpt lat="42.192029" lon="1.586987"><ele>1377.916</ele><time>2012-05-14T11:21:18Z</time></trkpt><trkpt lat="42.192003" lon="1.587048"><ele>1377.650</ele><time>2012-05-14T11:21:58Z</time></trkpt><trkpt lat="42.191981" lon="1.587099"><ele>1377.447</ele><time>2012-05-14T11:22:38Z</time></trkpt><trkpt lat="42.191936" lon="1.587150"><ele>1376.368</ele><time>2012-05-14T11:23:18Z</time></trkpt><trkpt lat="42.191892" lon="1.587200"><ele>1375.348</ele><time>2012-05-14T11:23:58Z</time></trkpt><trkpt lat="42.191847" lon="1.587251"><ele>1374.433</ele><time>2012-05-14T11:24:38Z</time></trkpt><trkpt lat="42.191790" lon="1.587316"><ele>1373.438</ele><time>2012-05-14T11:25:18Z</time></trkpt><trkpt lat="42.191746" lon="1.587377"><ele>1372.857</ele><time>2012-05-14T11:25:58Z</time></trkpt><trkpt lat="42.191702" lon="1.587439"><ele>1372.200</ele><time>2012-05-14T11:26:38Z</time></trkpt><trkpt lat="42.191658" lon="1.587500"><ele>1371.920</ele><time>2012-05-14T11:27:18Z</time></trkpt><trkpt lat="42.191601" lon="1.587579"><ele>1374.007</ele><time>2012-05-14T11:27:58Z</time></trkpt><trkpt lat="42.191601" lon="1.587640"><ele>1376.037</ele><time>2012-05-14T11:28:38Z</time></trkpt><trkpt lat="42.191602" lon="1.587700"><ele>1378.141</ele><time>2012-05-14T11:29:18Z</time></trkpt><trkpt lat="42.191603" lon="1.587761"><ele>1380.158</ele><time>2012-05-14T11:29:58Z</time></trkpt><trkpt lat="42.191604" lon="1.587821"><ele>1382.089</ele><time>2012-05-14T11:30:38Z</time></trkpt><trkpt lat="42.191604" lon="1.587886"><ele>1384.089</ele><time>2012-05-14T11:31:18Z</time></trkpt><trkpt lat="42.191559" lon="1.587849"><ele>1383.444</ele><time>2012-05-14T11:31:58Z</time></trkpt><trkpt lat="42.191514" lon="1.587813"><ele>1382.889</ele><time>2012-05-14T11:32:38Z</time></trkpt><trkpt lat="42.191468" lon="1.587777"><ele>1382.113</ele><time>2012-05-14T11:33:18Z</time></trkpt><trkpt lat="42.191423" lon="1.587741"><ele>1380.943</ele><time>2012-05-14T11:33:58Z</time></trkpt><trkpt lat="42.191374" lon="1.587702"><ele>1379.707</ele><time>2012-05-14T11:34:38Z</time></trkpt><trkpt lat="42.191348" lon="1.587642"><ele>1377.707</ele><time>2012-05-14T11:35:18Z</time></trkpt><trkpt lat="42.191322" lon="1.587582"><ele>1375.733</ele><time>2012-05-14T11:35:58Z</time></trkpt><trkpt lat="42.191296" lon="1.587522"><ele>1373.887</ele><time>2012-05-14T11:36:38Z</time></trkpt><trkpt lat="42.191271" lon="1.587462"><ele>1372.354</ele><time>2012-05-14T11:37:18Z</time></trkpt><trkpt lat="42.191245" lon="1.587402"><ele>1371.285</ele><time>2012-05-14T11:37:58Z</time></trkpt><trkpt lat="42.191219" lon="1.587342"><ele>1370.225</ele><time>2012-05-14T11:38:38Z</time></trkpt><trkpt lat="42.191193" lon="1.587282"><ele>1369.240</ele><time>2012-05-14T11:39:18Z</time></trkpt><trkpt lat="42.191167" lon="1.587222"><ele>1368.475</ele><time>2012-05-14T11:39:58Z</time></trkpt><trkpt lat="42.191141" lon="1.587162"><ele>1367.334</ele><time>2012-05-14T11:40:38Z</time></trkpt><trkpt lat="42.191122" lon="1.587118"><ele>1366.455</ele><time>2012-05-14T11:41:18Z</time></trkpt><trkpt lat="42.191076" lon="1.587070"><ele>1365.610</ele><time>2012-05-14T11:41:58Z</time></trkpt><trkpt lat="42.191030" lon="1.587021"><ele>1364.407</ele><time>2012-05-14T11:42:38Z</time></trkpt><trkpt lat="42.190985" lon="1.586972"><ele>1363.025</ele><time>2012-05-14T11:43:18Z</time></trkpt><trkpt lat="42.190939" lon="1.586923"><ele>1361.519</ele><time>2012-05-14T11:43:58Z</time></trkpt><trkpt lat="42.190894" lon="1.586874"><ele>1359.976</ele><time>2012-05-14T11:44:38Z</time></trkpt><trkpt lat="42.190848" lon="1.586825"><ele>1358.257</ele><time>2012-05-14T11:45:18Z</time></trkpt><trkpt lat="42.190820" lon="1.586795"><ele>1357.377</ele><time>2012-05-14T11:45:58Z</time></trkpt><trkpt lat="42.190774" lon="1.586776"><ele>1357.452</ele><time>2012-05-14T11:46:38Z</time></trkpt><trkpt lat="42.190729" lon="1.586757"><ele>1357.557</ele><time>2012-05-14T11:47:18Z</time></trkpt><trkpt lat="42.190684" lon="1.586738"><ele>1357.679</ele><time>2012-05-14T11:47:58Z</time></trkpt><trkpt lat="42.190639" lon="1.586718"><ele>1357.605</ele><time>2012-05-14T11:48:38Z</time></trkpt><trkpt lat="42.190593" lon="1.586699"><ele>1357.725</ele><time>2012-05-14T11:49:18Z</time></trkpt><trkpt lat="42.190548" lon="1.586680"><ele>1357.807</ele><time>2012-05-14T11:49:58Z</time></trkpt><trkpt lat="42.190503" lon="1.586661"><ele>1358.129</ele><time>2012-05-14T11:50:38Z</time></trkpt><trkpt lat="42.190449" lon="1.586638"><ele>1358.663</ele><time>2012-05-14T11:51:18Z</time></trkpt><trkpt lat="42.190404" lon="1.586584"><ele>1357.710</ele><time>2012-05-14T11:51:58Z</time></trkpt><trkpt lat="42.190358" lon="1.586529"><ele>1356.911</ele><time>2012-05-14T11:52:38Z</time></trkpt><trkpt lat="42.190312" lon="1.586475"><ele>1356.241</ele><time>2012-05-14T11:53:18Z</time></trkpt><trkpt lat="42.190267" lon="1.586420"><ele>1355.286</ele><time>2012-05-14T11:53:58Z</time></trkpt><trkpt lat="42.190236" lon="1.586384"><ele>1354.191</ele><time>2012-05-14T11:54:38Z</time></trkpt><trkpt lat="42.190191" lon="1.586352"><ele>1353.539</ele><time>2012-05-14T11:55:18Z</time></trkpt><trkpt lat="42.190145" lon="1.586320"><ele>1352.801</ele><time>2012-05-14T11:55:58Z</time></trkpt><trkpt lat="42.190100" lon="1.586288"><ele>1352.221</ele><time>2012-05-14T11:56:38Z</time></trkpt><trkpt lat="42.190041" lon="1.586247"><ele>1351.507</ele><time>2012-05-14T11:57:18Z</time></trkpt><trkpt lat="42.189996" lon="1.586252"><ele>1352.065</ele><time>2012-05-14T11:57:58Z</time></trkpt><trkpt lat="42.189952" lon="1.586257"><ele>1351.239</ele><time>2012-05-14T11:58:38Z</time></trkpt><trkpt lat="42.189906" lon="1.586262"><ele>1350.366</ele><time>2012-05-14T11:59:18Z</time></trkpt><trkpt lat="42.189862" lon="1.586267"><ele>1349.637</ele><time>2012-05-14T11:59:58Z</time></trkpt><trkpt lat="42.189817" lon="1.586272"><ele>1348.847</ele><time>2012-05-14T12:00:38Z</time></trkpt><trkpt lat="42.189779" lon="1.586276"><ele>1348.182</ele><time>2012-05-14T12:01:18Z</time></trkpt><trkpt lat="42.189734" lon="1.586282"><ele>1347.497</ele><time>2012-05-14T12:01:58Z</time></trkpt><trkpt lat="42.189689" lon="1.586289"><ele>1347.024</ele><time>2012-05-14T12:02:38Z</time></trkpt><trkpt lat="42.189644" lon="1.586295"><ele>1346.704</ele><time>2012-05-14T12:03:18Z</time></trkpt><trkpt lat="42.189599" lon="1.586302"><ele>1346.414</ele><time>2012-05-14T12:03:58Z</time></trkpt><trkpt lat="42.189554" lon="1.586309"><ele>1346.007</ele><time>2012-05-14T12:04:38Z</time></trkpt><trkpt lat="42.189509" lon="1.586315"><ele>1345.734</ele><time>2012-05-14T12:05:18Z</time></trkpt><trkpt lat="42.189464" lon="1.586321"><ele>1345.358</ele><time>2012-05-14T12:05:58Z</time></trkpt><trkpt lat="42.189419" lon="1.586328"><ele>1345.195</ele><time>2012-05-14T12:06:38Z</time></trkpt><trkpt lat="42.189394" lon="1.586332"><ele>1345.056</ele><time>2012-05-14T12:07:18Z</time></trkpt><trkpt lat="42.189349" lon="1.586329"><ele>1344.686</ele><time>2012-05-14T12:07:58Z</time></trkpt><trkpt lat="42.189304" lon="1.586326"><ele>1344.241</ele><time>2012-05-14T12:08:38Z</time></trkpt><trkpt lat="42.189259" lon="1.586324"><ele>1343.826</ele><time>2012-05-14T12:09:18Z</time></trkpt><trkpt lat="42.189213" lon="1.586321"><ele>1343.431</ele><time>2012-05-14T12:09:58Z</time></trkpt><trkpt lat="42.189168" lon="1.586319"><ele>1343.061</ele><time>2012-05-14T12:10:38Z</time></trkpt><trkpt lat="42.189123" lon="1.586316"><ele>1342.807</ele><time>2012-05-14T12:11:18Z</time></trkpt><trkpt lat="42.189095" lon="1.586315"><ele>1342.607</ele><time>2012-05-14T12:11:58Z</time></trkpt><trkpt lat="42.189050" lon="1.586320"><ele>1342.675</ele><time>2012-05-14T12:12:38Z</time></trkpt><trkpt lat="42.189006" lon="1.586325"><ele>1342.569</ele><time>2012-05-14T12:13:18Z</time></trkpt><trkpt lat="42.188960" lon="1.586330"><ele>1342.436</ele><time>2012-05-14T12:13:58Z</time></trkpt><trkpt lat="42.188916" lon="1.586335"><ele>1342.397</ele><time>2012-05-14T12:14:38Z</time></trkpt><trkpt lat="42.188871" lon="1.586339"><ele>1342.537</ele><time>2012-05-14T12:15:18Z</time></trkpt><trkpt lat="42.188826" lon="1.586344"><ele>1343.162</ele><time>2012-05-14T12:15:58Z</time></trkpt><trkpt lat="42.188781" lon="1.586349"><ele>1343.657</ele><time>2012-05-14T12:16:38Z</time></trkpt><trkpt lat="42.188736" lon="1.586354"><ele>1344.236</ele><time>2012-05-14T12:17:18Z</time></trkpt><trkpt lat="42.188691" lon="1.586359"><ele>1344.817</ele><time>2012-05-14T12:17:58Z</time></trkpt><trkpt lat="42.188646" lon="1.586364"><ele>1345.318</ele><time>2012-05-14T12:18:38Z</time></trkpt><trkpt lat="42.188601" lon="1.586369"><ele>1345.707</ele><time>2012-05-14T12:19:18Z</time></trkpt><trkpt lat="42.188553" lon="1.586374"><ele>1345.565</ele><time>2012-05-14T12:19:58Z</time></trkpt><trkpt lat="42.188505" lon="1.586419"><ele>1345.649</ele><time>2012-05-14T12:20:38Z</time></trkpt><trkpt lat="42.188461" lon="1.586469"><ele>1345.876</ele><time>2012-05-14T12:21:18Z</time></trkpt><trkpt lat="42.188416" lon="1.586520"><ele>1345.877</ele><time>2012-05-14T12:21:58Z</time></trkpt><trkpt lat="42.188372" lon="1.586570"><ele>1345.887</ele><time>2012-05-14T12:22:38Z</time></trkpt><trkpt lat="42.188327" lon="1.586620"><ele>1345.532</ele><time>2012-05-14T12:23:18Z</time></trkpt><trkpt lat="42.188283" lon="1.586670"><ele>1344.867</ele><time>2012-05-14T12:23:58Z</time></trkpt><trkpt lat="42.188229" lon="1.586732"><ele>1344.416</ele><time>2012-05-14T12:24:38Z</time></trkpt><trkpt lat="42.188183" lon="1.586733"><ele>1343.176</ele><time>2012-05-14T12:25:18Z</time></trkpt><trkpt lat="42.188139" lon="1.586734"><ele>1342.013</ele><time>2012-05-14T12:25:58Z</time></trkpt><trkpt lat="42.188093" lon="1.586735"><ele>1340.707</ele><time>2012-05-14T12:26:38Z</time></trkpt><trkpt lat="42.188071" lon="1.586735"><ele>1340.223</ele><time>2012-05-14T12:27:18Z</time></trkpt><trkpt lat="42.188038" lon="1.586797"><ele>1339.877</ele><time>2012-05-14T12:27:58Z</time></trkpt><trkpt lat="42.188006" lon="1.586858"><ele>1339.354</ele><time>2012-05-14T12:28:38Z</time></trkpt><trkpt lat="42.187974" lon="1.586919"><ele>1338.665</ele><time>2012-05-14T12:29:18Z</time></trkpt><trkpt lat="42.187942" lon="1.586980"><ele>1337.735</ele><time>2012-05-14T12:29:58Z</time></trkpt><trkpt lat="42.187909" lon="1.587042"><ele>1336.520</ele><time>2012-05-14T12:30:38Z</time></trkpt><trkpt lat="42.187882" lon="1.587093"><ele>1335.535</ele><time>2012-05-14T12:31:18Z</time></trkpt><trkpt lat="42.187861" lon="1.587154"><ele>1334.711</ele><time>2012-05-14T12:31:58Z</time></trkpt><trkpt lat="42.187839" lon="1.587215"><ele>1333.921</ele><time>2012-05-14T12:32:38Z</time></trkpt><trkpt lat="42.187817" lon="1.587276"><ele>1332.103</ele><time>2012-05-14T12:33:18Z</time></trkpt><trkpt lat="42.187804" lon="1.587314"><ele>1330.907</ele><time>2012-05-14T12:33:58Z</time></trkpt><trkpt lat="42.187759" lon="1.587327"><ele>1328.823</ele><time>2012-05-14T12:34:38Z</time></trkpt><trkpt lat="42.187714" lon="1.587339"><ele>1327.037</ele><time>2012-05-14T12:35:18Z</time></trkpt><trkpt lat="42.187665" lon="1.587353"><ele>1325.194</ele><time>2012-05-14T12:35:58Z</time></trkpt><trkpt lat="42.187620" lon="1.587392"><ele>1322.945</ele><time>2012-05-14T12:36:38Z</time></trkpt><trkpt lat="42.187575" lon="1.587431"><ele>1320.715</ele><time>2012-05-14T12:37:18Z</time></trkpt><trkpt lat="42.187531" lon="1.587470"><ele>1318.570</ele><time>2012-05-14T12:37:58Z</time></trkpt><trkpt lat="42.187486" lon="1.587509"><ele>1316.585</ele><time>2012-05-14T12:38:38Z</time></trkpt><trkpt lat="42.187442" lon="1.587547"><ele>1314.774</ele><time>2012-05-14T12:39:18Z</time></trkpt><trkpt lat="42.187402" lon="1.587583"><ele>1313.156</ele><time>2012-05-14T12:39:58Z</time></trkpt><trkpt lat="42.187357" lon="1.587627"><ele>1311.321</ele><time>2012-05-14T12:40:38Z</time></trkpt><trkpt lat="42.187313" lon="1.587671"><ele>1309.607</ele><time>2012-05-14T12:41:18Z</time></trkpt><trkpt lat="42.187268" lon="1.587715"><ele>1307.939</ele><time>2012-05-14T12:41:58Z</time></trkpt><trkpt lat="42.187224" lon="1.587759"><ele>1306.213</ele><time>2012-05-14T12:42:38Z</time></trkpt><trkpt lat="42.187172" lon="1.587811"><ele>1304.430</ele><time>2012-05-14T12:43:18Z</time></trkpt><trkpt lat="42.187128" lon="1.587873"><ele>1302.631</ele><time>2012-05-14T12:43:58Z</time></trkpt><trkpt lat="42.187083" lon="1.587934"><ele>1300.751</ele><time>2012-05-14T12:44:38Z</time></trkpt><trkpt lat="42.187039" lon="1.587996"><ele>1298.996</ele><time>2012-05-14T12:45:18Z</time></trkpt><trkpt lat="42.186995" lon="1.588057"><ele>1297.121</ele><time>2012-05-14T12:45:58Z</time></trkpt><trkpt lat="42.186950" lon="1.588119"><ele>1294.891</ele><time>2012-05-14T12:46:38Z</time></trkpt><trkpt lat="42.186906" lon="1.588180"><ele>1291.781</ele><time>2012-05-14T12:47:18Z</time></trkpt><trkpt lat="42.186878" lon="1.588220"><ele>1289.719</ele><time>2012-05-14T12:47:58Z</time></trkpt><trkpt lat="42.186893" lon="1.588280"><ele>1289.107</ele><time>2012-05-14T12:48:38Z</time></trkpt><trkpt lat="42.186913" lon="1.588353"><ele>1288.721</ele><time>2012-05-14T12:49:18Z</time></trkpt><trkpt lat="42.186868" lon="1.588378"><ele>1286.755</ele><time>2012-05-14T12:49:58Z</time></trkpt><trkpt lat="42.186823" lon="1.588403"><ele>1284.682</ele><time>2012-05-14T12:50:38Z</time></trkpt><trkpt lat="42.186778" lon="1.588428"><ele>1282.523</ele><time>2012-05-14T12:51:18Z</time></trkpt><trkpt lat="42.186734" lon="1.588454"><ele>1280.283</ele><time>2012-05-14T12:51:58Z</time></trkpt><trkpt lat="42.186689" lon="1.588479"><ele>1277.958</ele><time>2012-05-14T12:52:38Z</time></trkpt><trkpt lat="42.186644" lon="1.588504"><ele>1275.783</ele><time>2012-05-14T12:53:18Z</time></trkpt><trkpt lat="42.186583" lon="1.588539"><ele>1273.178</ele><time>2012-05-14T12:53:58Z</time></trkpt><trkpt lat="42.186538" lon="1.588578"><ele>1271.133</ele><time>2012-05-14T12:54:38Z</time></trkpt><trkpt lat="42.186493" lon="1.588617"><ele>1269.426</ele><time>2012-05-14T12:55:18Z</time></trkpt><trkpt lat="42.186449" lon="1.588655"><ele>1268.207</ele><time>2012-05-14T12:55:58Z</time></trkpt><trkpt lat="42.186404" lon="1.588694"><ele>1267.129</ele><time>2012-05-14T12:56:38Z</time></trkpt><trkpt lat="42.186360" lon="1.588733"><ele>1265.773</ele><time>2012-05-14T12:57:18Z</time></trkpt><trkpt lat="42.186319" lon="1.588768"><ele>1264.330</ele><time>2012-05-14T12:57:58Z</time></trkpt><trkpt lat="42.186275" lon="1.588779"><ele>1262.521</ele><time>2012-05-14T12:58:38Z</time></trkpt><trkpt lat="42.186230" lon="1.588790"><ele>1260.811</ele><time>2012-05-14T12:59:18Z</time></trkpt><trkpt lat="42.186185" lon="1.588801"><ele>1259.146</ele><time>2012-05-14T12:59:58Z</time></trkpt><trkpt lat="42.186140" lon="1.588813"><ele>1257.411</ele><time>2012-05-14T13:00:38Z</time></trkpt><trkpt lat="42.186095" lon="1.588824"><ele>1255.622</ele><time>2012-05-14T13:01:18Z</time></trkpt><trkpt lat="42.186050" lon="1.588835"><ele>1253.762</ele><time>2012-05-14T13:01:58Z</time></trkpt><trkpt lat="42.186005" lon="1.588846"><ele>1251.908</ele><time>2012-05-14T13:02:38Z</time></trkpt><trkpt lat="42.185960" lon="1.588857"><ele>1250.107</ele><time>2012-05-14T13:03:18Z</time></trkpt><trkpt lat="42.185922" lon="1.588866"><ele>1248.584</ele><time>2012-05-14T13:03:58Z</time></trkpt><trkpt lat="42.185878" lon="1.588913"><ele>1247.458</ele><time>2012-05-14T13:04:38Z</time></trkpt><trkpt lat="42.185833" lon="1.588959"><ele>1246.265</ele><time>2012-05-14T13:05:18Z</time></trkpt><trkpt lat="42.185789" lon="1.589006"><ele>1245.186</ele><time>2012-05-14T13:05:58Z</time></trkpt><trkpt lat="42.185744" lon="1.589052"><ele>1244.056</ele><time>2012-05-14T13:06:38Z</time></trkpt><trkpt lat="42.185700" lon="1.589098"><ele>1243.141</ele><time>2012-05-14T13:07:18Z</time></trkpt><trkpt lat="42.185659" lon="1.589140"><ele>1242.496</ele><time>2012-05-14T13:07:58Z</time></trkpt><trkpt lat="42.185615" lon="1.589179"><ele>1241.769</ele><time>2012-05-14T13:08:38Z</time></trkpt><trkpt lat="42.185570" lon="1.589218"><ele>1241.104</ele><time>2012-05-14T13:09:18Z</time></trkpt><trkpt lat="42.185526" lon="1.589257"><ele>1240.324</ele><time>2012-05-14T13:09:58Z</time></trkpt><trkpt lat="42.185481" lon="1.589296"><ele>1239.107</ele><time>2012-05-14T13:10:38Z</time></trkpt><trkpt lat="42.185437" lon="1.589334"><ele>1237.858</ele><time>2012-05-14T13:11:18Z</time></trkpt><trkpt lat="42.185397" lon="1.589369"><ele>1236.562</ele><time>2012-05-14T13:11:58Z</time></trkpt><trkpt lat="42.185369" lon="1.589431"><ele>1236.099</ele><time>2012-05-14T13:12:38Z</time></trkpt><trkpt lat="42.185342" lon="1.589492"><ele>1236.270</ele><time>2012-05-14T13:13:18Z</time></trkpt><trkpt lat="42.185314" lon="1.589553"><ele>1236.780</ele><time>2012-05-14T13:13:58Z</time></trkpt><trkpt lat="42.185287" lon="1.589614"><ele>1237.595</ele><time>2012-05-14T13:14:38Z</time></trkpt><trkpt lat="42.185260" lon="1.589675"><ele>1238.770</ele><time>2012-05-14T13:15:18Z</time></trkpt><trkpt lat="42.185235" lon="1.589731"><ele>1240.083</ele><time>2012-05-14T13:15:58Z</time></trkpt><trkpt lat="42.185190" lon="1.589737"><ele>1238.725</ele><time>2012-05-14T13:16:38Z</time></trkpt><trkpt lat="42.185145" lon="1.589743"><ele>1237.417</ele><time>2012-05-14T13:17:18Z</time></trkpt><trkpt lat="42.185100" lon="1.589750"><ele>1236.207</ele><time>2012-05-14T13:17:58Z</time></trkpt><trkpt lat="42.185055" lon="1.589757"><ele>1235.050</ele><time>2012-05-14T13:18:38Z</time></trkpt><trkpt lat="42.185010" lon="1.589763"><ele>1233.764</ele><time>2012-05-14T13:19:18Z</time></trkpt><trkpt lat="42.184965" lon="1.589769"><ele>1232.081</ele><time>2012-05-14T13:19:58Z</time></trkpt><trkpt lat="42.184920" lon="1.589776"><ele>1230.242</ele><time>2012-05-14T13:20:38Z</time></trkpt><trkpt lat="42.184870" lon="1.589783"><ele>1228.352</ele><time>2012-05-14T13:21:18Z</time></trkpt><trkpt lat="42.184825" lon="1.589789"><ele>1226.547</ele><time>2012-05-14T13:21:58Z</time></trkpt><trkpt lat="42.184780" lon="1.589795"><ele>1224.682</ele><time>2012-05-14T13:22:38Z</time></trkpt><trkpt lat="42.184735" lon="1.589801"><ele>1222.852</ele><time>2012-05-14T13:23:18Z</time></trkpt><trkpt lat="42.184690" lon="1.589807"><ele>1221.553</ele><time>2012-05-14T13:23:58Z</time></trkpt><trkpt lat="42.184645" lon="1.589814"><ele>1220.508</ele><time>2012-05-14T13:24:38Z</time></trkpt><trkpt lat="42.184600" lon="1.589820"><ele>1219.507</ele><time>2012-05-14T13:25:18Z</time></trkpt><trkpt lat="42.184555" lon="1.589826"><ele>1218.477</ele><time>2012-05-14T13:25:58Z</time></trkpt><trkpt lat="42.184510" lon="1.589832"><ele>1217.481</ele><time>2012-05-14T13:26:38Z</time></trkpt><trkpt lat="42.184472" lon="1.589837"><ele>1216.578</ele><time>2012-05-14T13:27:18Z</time></trkpt><trkpt lat="42.184427" lon="1.589847"><ele>1215.699</ele><time>2012-05-14T13:27:58Z</time></trkpt><trkpt lat="42.184382" lon="1.589858"><ele>1214.669</ele><time>2012-05-14T13:28:38Z</time></trkpt><trkpt lat="42.184337" lon="1.589868"><ele>1213.684</ele><time>2012-05-14T13:29:18Z</time></trkpt><trkpt lat="42.184292" lon="1.589879"><ele>1212.559</ele><time>2012-05-14T13:29:58Z</time></trkpt><trkpt lat="42.184247" lon="1.589889"><ele>1211.462</ele><time>2012-05-14T13:30:38Z</time></trkpt><trkpt lat="42.184189" lon="1.589903"><ele>1209.983</ele><time>2012-05-14T13:31:18Z</time></trkpt><trkpt lat="42.184164" lon="1.589964"><ele>1210.311</ele><time>2012-05-14T13:31:58Z</time></trkpt><trkpt lat="42.184138" lon="1.590025"><ele>1210.207</ele><time>2012-05-14T13:32:38Z</time></trkpt><trkpt lat="42.184113" lon="1.590085"><ele>1209.958</ele><time>2012-05-14T13:33:18Z</time></trkpt><trkpt lat="42.184069" lon="1.590118"><ele>1208.572</ele><time>2012-05-14T13:33:58Z</time></trkpt><trkpt lat="42.184024" lon="1.590151"><ele>1206.929</ele><time>2012-05-14T13:34:38Z</time></trkpt><trkpt lat="42.183979" lon="1.590184"><ele>1205.370</ele><time>2012-05-14T13:35:18Z</time></trkpt><trkpt lat="42.183935" lon="1.590218"><ele>1203.740</ele><time>2012-05-14T13:35:58Z</time></trkpt><trkpt lat="42.183890" lon="1.590251"><ele>1202.055</ele><time>2012-05-14T13:36:38Z</time></trkpt><trkpt lat="42.183846" lon="1.590284"><ele>1200.280</ele><time>2012-05-14T13:37:18Z</time></trkpt><trkpt lat="42.183781" lon="1.590332"><ele>1197.821</ele><time>2012-05-14T13:37:58Z</time></trkpt><trkpt lat="42.183736" lon="1.590314"><ele>1195.641</ele><time>2012-05-14T13:38:38Z</time></trkpt><trkpt lat="42.183691" lon="1.590295"><ele>1193.505</ele><time>2012-05-14T13:39:18Z</time></trkpt><trkpt lat="42.183646" lon="1.590277"><ele>1191.507</ele><time>2012-05-14T13:39:58Z</time></trkpt><trkpt lat="42.183601" lon="1.590259"><ele>1189.474</ele><time>2012-05-14T13:40:38Z</time></trkpt><trkpt lat="42.183555" lon="1.590240"><ele>1187.078</ele><time>2012-05-14T13:41:18Z</time></trkpt><trkpt lat="42.183510" lon="1.590222"><ele>1184.785</ele><time>2012-05-14T13:41:58Z</time></trkpt><trkpt lat="42.183465" lon="1.590204"><ele>1182.486</ele><time>2012-05-14T13:42:38Z</time></trkpt><trkpt lat="42.183420" lon="1.590186"><ele>1180.096</ele><time>2012-05-14T13:43:18Z</time></trkpt><trkpt lat="42.183374" lon="1.590167"><ele>1177.741</ele><time>2012-05-14T13:43:58Z</time></trkpt><trkpt lat="42.183329" lon="1.590149"><ele>1175.396</ele><time>2012-05-14T13:44:38Z</time></trkpt><trkpt lat="42.183284" lon="1.590131"><ele>1173.277</ele><time>2012-05-14T13:45:18Z</time></trkpt><trkpt lat="42.183254" lon="1.590119"><ele>1171.761</ele><time>2012-05-14T13:45:58Z</time></trkpt><trkpt lat="42.183209" lon="1.590145"><ele>1169.727</ele><time>2012-05-14T13:46:38Z</time></trkpt><trkpt lat="42.183165" lon="1.590172"><ele>1167.707</ele><time>2012-05-14T13:47:18Z</time></trkpt><trkpt lat="42.183120" lon="1.590199"><ele>1165.749</ele><time>2012-05-14T13:47:58Z</time></trkpt><trkpt lat="42.183075" lon="1.590225"><ele>1163.773</ele><time>2012-05-14T13:48:38Z</time></trkpt><trkpt lat="42.183031" lon="1.590252"><ele>1161.990</ele><time>2012-05-14T13:49:18Z</time></trkpt><trkpt lat="42.182986" lon="1.590279"><ele>1160.061</ele><time>2012-05-14T13:49:58Z</time></trkpt><trkpt lat="42.182941" lon="1.590305"><ele>1158.791</ele><time>2012-05-14T13:50:38Z</time></trkpt><trkpt lat="42.182889" lon="1.590337"><ele>1157.326</ele><time>2012-05-14T13:51:18Z</time></trkpt><trkpt lat="42.182844" lon="1.590336"><ele>1155.391</ele><time>2012-05-14T13:51:58Z</time></trkpt><trkpt lat="42.182798" lon="1.590335"><ele>1153.343</ele><time>2012-05-14T13:52:38Z</time></trkpt><trkpt lat="42.182753" lon="1.590334"><ele>1151.664</ele><time>2012-05-14T13:53:18Z</time></trkpt><trkpt lat="42.182708" lon="1.590333"><ele>1150.010</ele><time>2012-05-14T13:53:58Z</time></trkpt><trkpt lat="42.182663" lon="1.590332"><ele>1148.507</ele><time>2012-05-14T13:54:38Z</time></trkpt><trkpt lat="42.182618" lon="1.590331"><ele>1146.936</ele><time>2012-05-14T13:55:18Z</time></trkpt><trkpt lat="42.182553" lon="1.590329"><ele>1144.660</ele><time>2012-05-14T13:55:58Z</time></trkpt><trkpt lat="42.182543" lon="1.590269"><ele>1142.577</ele><time>2012-05-14T13:56:38Z</time></trkpt><trkpt lat="42.182532" lon="1.590209"><ele>1141.518</ele><time>2012-05-14T13:57:18Z</time></trkpt><trkpt lat="42.182521" lon="1.590148"><ele>1140.528</ele><time>2012-05-14T13:57:58Z</time></trkpt><trkpt lat="42.182510" lon="1.590088"><ele>1139.423</ele><time>2012-05-14T13:58:38Z</time></trkpt><trkpt lat="42.182494" lon="1.590000"><ele>1137.778</ele><time>2012-05-14T13:59:18Z</time></trkpt><trkpt lat="42.182449" lon="1.590043"><ele>1136.263</ele><time>2012-05-14T13:59:58Z</time></trkpt><trkpt lat="42.182405" lon="1.590086"><ele>1134.944</ele><time>2012-05-14T14:00:38Z</time></trkpt><trkpt lat="42.182360" lon="1.590129"><ele>1133.818</ele><time>2012-05-14T14:01:18Z</time></trkpt><trkpt lat="42.182316" lon="1.590172"><ele>1132.907</ele><time>2012-05-14T14:01:58Z</time></trkpt><trkpt lat="42.182271" lon="1.590215"><ele>1132.238</ele><time>2012-05-14T14:02:38Z</time></trkpt><trkpt lat="42.182207" lon="1.590277"><ele>1131.612</ele><time>2012-05-14T14:03:18Z</time></trkpt><trkpt lat="42.182162" lon="1.590276"><ele>1130.489</ele><time>2012-05-14T14:03:58Z</time></trkpt><trkpt lat="42.182117" lon="1.590275"><ele>1129.340</ele><time>2012-05-14T14:04:38Z</time></trkpt><trkpt lat="42.182072" lon="1.590274"><ele>1128.120</ele><time>2012-05-14T14:05:18Z</time></trkpt><trkpt lat="42.182027" lon="1.590273"><ele>1126.965</ele><time>2012-05-14T14:05:58Z</time></trkpt><trkpt lat="42.181982" lon="1.590272"><ele>1125.770</ele><time>2012-05-14T14:06:38Z</time></trkpt><trkpt lat="42.181937" lon="1.590272"><ele>1124.888</ele><time>2012-05-14T14:07:18Z</time></trkpt><trkpt lat="42.181891" lon="1.590271"><ele>1124.724</ele><time>2012-05-14T14:07:58Z</time></trkpt><trkpt lat="42.181850" lon="1.590270"><ele>1124.726</ele><time>2012-05-14T14:08:38Z</time></trkpt><trkpt lat="42.181804" lon="1.590246"><ele>1123.607</ele><time>2012-05-14T14:09:18Z</time></trkpt><trkpt lat="42.181759" lon="1.590223"><ele>1122.420</ele><time>2012-05-14T14:09:58Z</time></trkpt><trkpt lat="42.181714" lon="1.590199"><ele>1121.244</ele><time>2012-05-14T14:10:38Z</time></trkpt><trkpt lat="42.181668" lon="1.590176"><ele>1119.961</ele><time>2012-05-14T14:11:18Z</time></trkpt><trkpt lat="42.181623" lon="1.590152"><ele>1119.882</ele><time>2012-05-14T14:11:58Z</time></trkpt><trkpt lat="42.181578" lon="1.590129"><ele>1119.952</ele><time>2012-05-14T14:12:38Z</time></trkpt><trkpt lat="42.181532" lon="1.590105"><ele>1119.947</ele><time>2012-05-14T14:13:18Z</time></trkpt><trkpt lat="42.181487" lon="1.590082"><ele>1119.932</ele><time>2012-05-14T14:13:58Z</time></trkpt><trkpt lat="42.181434" lon="1.590054"><ele>1119.755</ele><time>2012-05-14T14:14:38Z</time></trkpt><trkpt lat="42.181425" lon="1.590115"><ele>1123.207</ele><time>2012-05-14T14:15:18Z</time></trkpt><trkpt lat="42.181416" lon="1.590175"><ele>1126.717</ele><time>2012-05-14T14:15:58Z</time></trkpt><trkpt lat="42.181403" lon="1.590265"><ele>1131.907</ele><time>2012-05-14T14:16:38Z</time></trkpt><trkpt lat="42.181387" lon="1.590326"><ele>1134.317</ele><time>2012-05-14T14:17:18Z</time></trkpt><trkpt lat="42.181371" lon="1.590387"><ele>1136.281</ele><time>2012-05-14T14:17:58Z</time></trkpt><trkpt lat="42.181355" lon="1.590448"><ele>1138.188</ele><time>2012-05-14T14:18:38Z</time></trkpt><trkpt lat="42.181338" lon="1.590508"><ele>1139.749</ele><time>2012-05-14T14:19:18Z</time></trkpt><trkpt lat="42.181322" lon="1.590569"><ele>1141.529</ele><time>2012-05-14T14:19:58Z</time></trkpt><trkpt lat="42.181306" lon="1.590630"><ele>1144.084</ele><time>2012-05-14T14:20:38Z</time></trkpt><trkpt lat="42.181290" lon="1.590691"><ele>1146.229</ele><time>2012-05-14T14:21:18Z</time></trkpt><trkpt lat="42.181275" lon="1.590748"><ele>1147.992</ele><time>2012-05-14T14:21:58Z</time></trkpt><trkpt lat="42.181264" lon="1.590809"><ele>1149.673</ele><time>2012-05-14T14:22:38Z</time></trkpt><trkpt lat="42.181253" lon="1.590869"><ele>1151.120</ele><time>2012-05-14T14:23:18Z</time></trkpt><trkpt lat="42.181242" lon="1.590930"><ele>1152.307</ele><time>2012-05-14T14:23:58Z</time></trkpt><trkpt lat="42.181232" lon="1.590991"><ele>1153.491</ele><time>2012-05-14T14:24:38Z</time></trkpt><trkpt lat="42.181221" lon="1.591052"><ele>1154.335</ele><time>2012-05-14T14:25:18Z</time></trkpt><trkpt lat="42.181210" lon="1.591113"><ele>1155.042</ele><time>2012-05-14T14:25:58Z</time></trkpt><trkpt lat="42.181199" lon="1.591173"><ele>1154.163</ele><time>2012-05-14T14:26:38Z</time></trkpt><trkpt lat="42.181188" lon="1.591234"><ele>1153.083</ele><time>2012-05-14T14:27:18Z</time></trkpt><trkpt lat="42.181181" lon="1.591275"><ele>1152.228</ele><time>2012-05-14T14:27:58Z</time></trkpt><trkpt lat="42.181164" lon="1.591336"><ele>1150.683</ele><time>2012-05-14T14:28:38Z</time></trkpt><trkpt lat="42.181147" lon="1.591397"><ele>1148.775</ele><time>2012-05-14T14:29:18Z</time></trkpt><trkpt lat="42.181130" lon="1.591458"><ele>1146.328</ele><time>2012-05-14T14:29:58Z</time></trkpt><trkpt lat="42.181113" lon="1.591519"><ele>1143.820</ele><time>2012-05-14T14:30:38Z</time></trkpt><trkpt lat="42.181096" lon="1.591580"><ele>1141.407</ele><time>2012-05-14T14:31:18Z</time></trkpt><trkpt lat="42.181078" lon="1.591641"><ele>1139.189</ele><time>2012-05-14T14:31:58Z</time></trkpt><trkpt lat="42.181061" lon="1.591702"><ele>1137.363</ele><time>2012-05-14T14:32:38Z</time></trkpt><trkpt lat="42.181044" lon="1.591763"><ele>1135.810</ele><time>2012-05-14T14:33:18Z</time></trkpt><trkpt lat="42.181027" lon="1.591824"><ele>1134.331</ele><time>2012-05-14T14:33:58Z</time></trkpt><trkpt lat="42.181010" lon="1.591885"><ele>1132.661</ele><time>2012-05-14T14:34:38Z</time></trkpt><trkpt lat="42.180993" lon="1.591946"><ele>1130.896</ele><time>2012-05-14T14:35:18Z</time></trkpt><trkpt lat="42.180978" lon="1.592000"><ele>1129.021</ele><time>2012-05-14T14:35:58Z</time></trkpt><trkpt lat="42.180955" lon="1.592061"><ele>1126.452</ele><time>2012-05-14T14:36:38Z</time></trkpt><trkpt lat="42.180933" lon="1.592122"><ele>1123.953</ele><time>2012-05-14T14:37:18Z</time></trkpt><trkpt lat="42.180910" lon="1.592183"><ele>1121.308</ele><time>2012-05-14T14:37:58Z</time></trkpt><trkpt lat="42.180889" lon="1.592241"><ele>1118.707</ele><time>2012-05-14T14:38:38Z</time></trkpt><trkpt lat="42.180845" lon="1.592266"><ele>1114.367</ele><time>2012-05-14T14:39:18Z</time></trkpt><trkpt lat="42.180800" lon="1.592291"><ele>1110.521</ele><time>2012-05-14T14:39:58Z</time></trkpt><trkpt lat="42.180755" lon="1.592316"><ele>1107.018</ele><time>2012-05-14T14:40:38Z</time></trkpt><trkpt lat="42.180710" lon="1.592341"><ele>1103.419</ele><time>2012-05-14T14:41:18Z</time></trkpt><trkpt lat="42.180666" lon="1.592367"><ele>1099.989</ele><time>2012-05-14T14:41:58Z</time></trkpt><trkpt lat="42.180621" lon="1.592392"><ele>1096.424</ele><time>2012-05-14T14:42:38Z</time></trkpt><trkpt lat="42.180576" lon="1.592417"><ele>1092.919</ele><time>2012-05-14T14:43:18Z</time></trkpt><trkpt lat="42.180570" lon="1.592415"><ele>1092.553</ele><time>2012-05-14T14:43:58Z</time></trkpt><trkpt lat="42.180524" lon="1.592387"><ele>1090.504</ele><time>2012-05-14T14:44:38Z</time></trkpt><trkpt lat="42.180479" lon="1.592360"><ele>1088.814</ele><time>2012-05-14T14:45:18Z</time></trkpt><trkpt lat="42.180434" lon="1.592333"><ele>1087.107</ele><time>2012-05-14T14:45:58Z</time></trkpt><trkpt lat="42.180388" lon="1.592305"><ele>1085.557</ele><time>2012-05-14T14:46:38Z</time></trkpt><trkpt lat="42.180343" lon="1.592278"><ele>1083.951</ele><time>2012-05-14T14:47:18Z</time></trkpt><trkpt lat="42.180298" lon="1.592251"><ele>1082.358</ele><time>2012-05-14T14:47:58Z</time></trkpt><trkpt lat="42.180252" lon="1.592223"><ele>1080.739</ele><time>2012-05-14T14:48:38Z</time></trkpt><trkpt lat="42.180207" lon="1.592196"><ele>1079.139</ele><time>2012-05-14T14:49:18Z</time></trkpt><trkpt lat="42.180161" lon="1.592169"><ele>1077.544</ele><time>2012-05-14T14:49:58Z</time></trkpt><trkpt lat="42.180116" lon="1.592141"><ele>1075.919</ele><time>2012-05-14T14:50:38Z</time></trkpt><trkpt lat="42.180071" lon="1.592114"><ele>1074.327</ele><time>2012-05-14T14:51:18Z</time></trkpt><trkpt lat="42.180009" lon="1.592077"><ele>1072.168</ele><time>2012-05-14T14:51:58Z</time></trkpt><trkpt lat="42.179963" lon="1.592054"><ele>1070.714</ele><time>2012-05-14T14:52:38Z</time></trkpt><trkpt lat="42.179918" lon="1.592032"><ele>1069.207</ele><time>2012-05-14T14:53:18Z</time></trkpt><trkpt lat="42.179873" lon="1.592010"><ele>1067.784</ele><time>2012-05-14T14:53:58Z</time></trkpt><trkpt lat="42.179827" lon="1.591987"><ele>1066.128</ele><time>2012-05-14T14:54:38Z</time></trkpt><trkpt lat="42.179782" lon="1.591965"><ele>1064.555</ele><time>2012-05-14T14:55:18Z</time></trkpt><trkpt lat="42.179737" lon="1.591943"><ele>1062.766</ele><time>2012-05-14T14:55:58Z</time></trkpt><trkpt lat="42.179691" lon="1.591921"><ele>1061.656</ele><time>2012-05-14T14:56:38Z</time></trkpt><trkpt lat="42.179646" lon="1.591898"><ele>1060.811</ele><time>2012-05-14T14:57:18Z</time></trkpt><trkpt lat="42.179601" lon="1.591876"><ele>1059.916</ele><time>2012-05-14T14:57:58Z</time></trkpt><trkpt lat="42.179550" lon="1.591851"><ele>1058.889</ele><time>2012-05-14T14:58:38Z</time></trkpt><trkpt lat="42.179504" lon="1.591812"><ele>1058.406</ele><time>2012-05-14T14:59:18Z</time></trkpt><trkpt lat="42.179459" lon="1.591772"><ele>1058.126</ele><time>2012-05-14T14:59:58Z</time></trkpt><trkpt lat="42.179413" lon="1.591733"><ele>1057.107</ele><time>2012-05-14T15:00:38Z</time></trkpt><trkpt lat="42.179368" lon="1.591694"><ele>1055.610</ele><time>2012-05-14T15:01:18Z</time></trkpt><trkpt lat="42.179337" lon="1.591667"><ele>1054.494</ele><time>2012-05-14T15:01:58Z</time></trkpt><trkpt lat="42.179292" lon="1.591640"><ele>1052.561</ele><time>2012-05-14T15:02:38Z</time></trkpt><trkpt lat="42.179247" lon="1.591613"><ele>1050.552</ele><time>2012-05-14T15:03:18Z</time></trkpt><trkpt lat="42.179201" lon="1.591585"><ele>1048.392</ele><time>2012-05-14T15:03:58Z</time></trkpt><trkpt lat="42.179156" lon="1.591558"><ele>1046.267</ele><time>2012-05-14T15:04:38Z</time></trkpt><trkpt lat="42.179110" lon="1.591531"><ele>1044.542</ele><time>2012-05-14T15:05:18Z</time></trkpt><trkpt lat="42.179072" lon="1.591508"><ele>1043.095</ele><time>2012-05-14T15:05:58Z</time></trkpt><trkpt lat="42.179027" lon="1.591485"><ele>1041.249</ele><time>2012-05-14T15:06:38Z</time></trkpt><trkpt lat="42.178982" lon="1.591462"><ele>1039.423</ele><time>2012-05-14T15:07:18Z</time></trkpt><trkpt lat="42.178936" lon="1.591438"><ele>1037.507</ele><time>2012-05-14T15:07:58Z</time></trkpt><trkpt lat="42.178891" lon="1.591415"><ele>1035.591</ele><time>2012-05-14T15:08:38Z</time></trkpt><trkpt lat="42.178846" lon="1.591392"><ele>1034.145</ele><time>2012-05-14T15:09:18Z</time></trkpt><trkpt lat="42.178807" lon="1.591372"><ele>1032.632</ele><time>2012-05-14T15:09:58Z</time></trkpt><trkpt lat="42.178367" lon="1.590899"><ele>1018.983</ele><time>2012-05-14T15:10:38Z</time></trkpt></trkseg></trk></gpx>